[[{"header":{"parameterUnit":"m.s-1","parameterCategory":1,"la1":30.6,"la2":29.2853,"lo1":-89.7004,"lo2":-87.6739,"dy":0.0162,"dx":0.0183,"nx":112,"ny":82,"refTime":"2024-07-13T00:00:00:Z","depth":0,"parameterNumber":2,"parameterNumberName":"U-component_of_WINDS"},"data":[0.0,0.0,0.0,0.0,0.0,0.0,0.0,0.0,0.0,0.0,0.0,0.0,0.0,0.0,0.0,0.0,0.0,0.0,0.0,0.0,0.0,0.0,0.0,0.0,0.0,0.0,0.0,0.0,0.0,0.0,0.0,0.0,0.0,0.0,0.0,0.0,0.0,0.0,0.0,0.0,0.0,0.0,0.0,0.0,0.0,0.0,0.0,0.0,0.0,0.0,0.0,0.0,0.0,0.0,0.0,0.0,0.0,0.0,0.0,0.0,0.0,0.0,0.0,0.0,0.0,0.0,0.0,0.0,0.0,0.0,0.0,0.0,0.0,0.0,0.0,0.0,0.0,0.0,0.0,0.0,0.0,0.0,0.0,0.0,0.0,0.0,0.0,0.0,0.0,0.0,-0.5688,-0.6687,-0.8003,-0.8704,-0.8489,-0.8382,-0.7602,-0.5934,0.0,0.0,0.0,0.0,0.0,0.0,0.0,0.0,0.0,0.0,0.0,0.0,0.0,0.0,0.0,0.0,0.0,0.0,0.0,0.0,0.0,0.0,0.0,0.0,0.0,0.0,0.0,0.0,0.0,0.0,0.0,0.0,0.0,0.0,0.0,0.0,0.0,0.0,0.0,0.0,0.0,0.0,0.0,0.0,0.0,0.0,0.0,0.0,0.0,0.0,0.0,0.0,0.0,0.0,0.0,0.0,0.0,0.0,0.0,0.0,0.0,0.0,0.0,0.0,0.0,0.0,0.0,0.0,0.0,0.0,0.0,0.0,0.0,0.0,0.0,0.0,0.0,0.0,0.0,0.0,0.0,0.0,0.0,0.0,0.0,0.0,0.0,0.0,0.0,0.0,0.0,0.0,0.0,0.0,0.0,0.0,0.0,0.0,0.0,0.0,0.0,0.0,0.0,0.0,-0.5905,-0.7533,-0.8352,-0.8791,-0.8744,-0.8258,-0.7533,-0.652,0.0,0.0,0.0,0.0,0.0,0.0,0.0,0.0,0.0,0.0,0.0,0.0,0.0,0.0,0.0,0.0,0.0,0.0,0.0,0.0,0.0,0.0,0.0,0.0,0.0,0.0,0.0,0.0,0.0,0.0,0.0,0.0,0.0,0.0,0.0,0.0,0.0,0.0,0.0,0.0,0.0,0.0,0.0,0.0,0.0,0.0,0.0,0.0,0.0,0.0,0.0,0.0,0.0,0.0,0.0,0.0,0.0,0.0,0.0,0.0,0.0,0.0,0.0,0.0,0.0,0.0,0.0,0.0,0.0,0.0,0.0,0.0,0.0,0.0,0.0,0.0,0.0,0.0,0.0,0.0,0.0,0.0,0.0,0.0,0.0,0.0,0.0,0.0,0.0,0.0,0.0,0.0,0.0,0.0,0.0,0.0,0.0,0.0,0.0,0.0,0.0,0.0,0.0,-0.5662,-0.6493,-0.7772,-0.8432,-0.8804,-0.8804,-0.8245,-0.7459,-0.6439,-0.5822,0.0,0.0,0.0,0.0,0.0,0.0,0.0,0.0,0.0,0.0,0.0,0.0,0.0,0.0,0.0,0.0,0.0,0.0,0.0,0.0,0.0,0.0,0.0,0.0,0.0,0.0,0.0,0.0,0.0,0.0,0.0,0.0,0.0,0.0,0.0,0.0,0.0,0.0,0.0,0.0,0.0,0.0,0.0,0.0,0.0,0.0,0.0,0.0,0.0,0.0,0.0,0.0,0.0,0.0,0.0,0.0,0.0,0.0,0.0,0.0,0.0,0.0,0.0,0.0,0.0,0.0,0.0,0.0,0.0,0.0,0.0,0.0,0.0,0.0,0.0,0.0,0.0,0.0,0.0,0.0,0.0,0.0,0.0,0.0,0.0,0.0,0.0,0.0,0.0,0.0,0.0,0.0,0.0,0.0,0.0,0.0,0.0,0.0,0.0,0.0,0.0,0.0,-0.6466,-0.7088,-0.7826,-0.8432,-0.8804,-0.8804,-0.8112,-0.7268,-0.6256,-0.5504,0.0,0.0,0.0,0.0,0.0,0.0,0.0,0.0,0.0,0.0,0.0,0.0,0.0,0.0,0.0,0.0,0.0,0.0,0.0,0.0,0.0,0.0,0.0,0.0,0.0,0.0,0.0,0.0,0.0,0.0,0.0,0.0,0.0,0.0,0.0,0.0,0.0,0.0,0.0,0.0,0.0,0.0,0.0,0.0,0.0,0.0,0.0,0.0,0.0,0.0,0.0,0.0,0.0,0.0,0.0,0.0,0.0,0.0,0.0,0.0,0.0,0.0,0.0,0.0,0.0,0.0,0.0,0.0,0.0,0.0,0.0,0.0,0.0,0.0,0.0,0.0,0.0,0.0,0.0,0.0,0.0,0.0,0.0,0.0,0.0,0.0,0.0,0.0,0.0,0.0,0.0,0.0,0.0,0.0,0.0,0.0,0.0,0.0,0.0,0.0,0.0,0.0,-0.6566,-0.7564,-0.7866,-0.8432,-0.8804,-0.8804,-0.7726,-0.682,-0.6236,-0.5112,0.0,0.0,0.0,0.0,0.0,0.0,0.0,0.0,0.0,0.0,0.0,0.0,0.0,0.0,0.0,0.0,0.0,0.0,0.0,0.0,0.0,0.0,0.0,0.0,0.0,0.0,0.0,0.0,0.0,0.0,0.0,0.0,0.0,0.0,0.0,0.0,0.0,0.0,0.0,0.0,0.0,0.0,0.0,0.0,0.0,0.0,0.0,0.0,0.0,0.0,0.0,0.0,0.0,0.0,0.0,0.0,0.0,0.0,0.0,0.0,0.0,0.0,0.0,0.0,0.0,0.0,0.0,0.0,0.0,0.0,0.0,0.0,0.0,0.0,0.0,0.0,0.0,0.0,0.0,0.0,0.0,0.0,0.0,0.0,0.0,0.0,0.0,0.0,0.0,0.0,0.0,0.0,0.0,0.0,0.0,0.0,0.0,0.0,0.0,0.0,0.0,0.0,-0.6393,-0.7381,-0.7852,-0.8432,-0.8804,-0.8804,-0.8032,-0.7181,-0.6256,0.0,0.0,0.0,0.0,0.0,0.0,0.0,0.0,0.0,0.0,0.0,0.0,0.0,0.0,0.0,0.0,0.0,0.0,0.0,0.0,0.0,0.0,0.0,0.0,0.0,0.0,0.0,0.0,0.0,0.0,0.0,0.0,0.0,0.0,0.0,0.0,0.0,0.0,0.0,0.0,0.0,0.0,0.0,0.0,0.0,0.0,0.0,0.0,0.0,0.0,0.0,0.0,0.0,0.0,0.0,0.0,0.0,0.0,0.0,0.0,0.0,0.0,0.0,0.0,0.0,0.0,0.0,0.0,0.0,0.0,0.0,0.0,0.0,0.0,0.0,0.0,0.0,0.0,0.0,0.0,0.0,0.0,0.0,0.0,0.0,0.0,0.0,0.0,0.0,0.0,0.0,0.0,0.0,0.0,0.0,0.0,0.0,0.0,0.0,0.0,0.0,0.0,-0.5246,-0.6466,-0.7446,-0.7866,-0.8432,-0.8771,-0.8677,-0.8012,-0.7153,-0.6104,0.0,0.0,0.0,0.0,0.0,0.0,0.0,0.0,0.0,0.0,0.0,0.0,0.0,0.0,0.0,0.0,0.0,0.0,0.0,0.0,0.0,0.0,0.0,0.0,0.0,0.0,0.0,0.0,0.0,0.0,0.0,0.0,0.0,0.0,0.0,0.0,0.0,0.0,0.0,0.0,0.0,0.0,0.0,0.0,0.0,0.0,0.0,0.0,0.0,0.0,0.0,0.0,0.0,0.0,0.0,0.0,0.0,0.0,0.0,0.0,0.0,0.0,0.0,0.0,0.0,0.0,0.0,0.0,0.0,0.0,0.0,0.0,0.0,0.0,0.0,0.0,0.0,0.0,0.0,0.0,0.0,0.0,0.0,0.0,0.0,0.0,0.0,0.0,0.0,0.0,0.0,0.0,0.0,0.0,0.0,0.0,0.0,0.0,0.0,0.0,0.0,0.0,-0.53,-0.6834,-0.7905,-0.7912,-0.8432,-0.8691,-0.8422,-0.7548,-0.6633,0.0,0.0,0.0,0.0,0.0,0.0,0.0,0.0,0.0,0.0,0.0,0.0,0.0,0.0,0.0,0.0,0.0,0.0,0.0,0.0,0.0,0.0,0.0,0.0,0.0,0.0,0.0,0.0,0.0,0.0,0.0,0.0,0.0,0.0,0.0,0.0,0.0,0.0,0.0,0.0,0.0,0.0,0.0,0.0,0.0,0.0,0.0,0.0,0.0,0.0,0.0,0.0,0.0,0.0,0.0,0.0,0.0,0.0,0.0,0.0,0.0,0.0,0.0,0.0,0.0,0.0,0.0,0.0,0.0,0.0,0.0,0.0,0.0,0.0,0.0,0.0,0.0,0.0,0.0,0.0,0.0,0.0,0.0,0.0,0.0,0.0,0.0,0.0,0.0,0.0,0.0,0.0,0.0,0.0,0.0,0.0,0.0,0.0,0.0,0.0,0.0,0.0,0.0,-0.5558,-0.6933,-0.7985,-0.8223,-0.8584,-0.8691,-0.8422,-0.7936,-0.7086,-0.5781,0.0,0.0,0.0,0.0,0.0,0.0,0.0,0.0,0.0,0.0,0.0,0.0,0.0,0.0,0.0,0.0,0.0,0.0,0.0,0.0,0.0,0.0,0.0,0.0,0.0,0.0,0.0,0.0,0.0,0.0,0.0,0.0,0.0,0.0,0.0,0.0,0.0,0.0,0.0,0.0,0.0,0.0,0.0,0.0,0.0,0.0,0.0,0.0,0.0,0.0,0.0,0.0,0.0,0.0,0.0,0.0,0.0,0.0,0.0,0.0,0.0,0.0,0.0,0.0,0.0,0.0,0.0,0.0,0.0,0.0,0.0,0.0,0.0,0.0,0.0,0.0,0.0,0.0,0.0,0.0,0.0,0.0,0.0,0.0,0.0,0.0,0.0,0.0,0.0,0.0,0.0,0.0,0.0,0.0,0.0,0.0,0.0,0.0,0.0,0.0,0.0,0.0,-0.5661,-0.6986,-0.8019,-0.8368,-0.8637,-0.8637,-0.8237,-0.8012,-0.7273,-0.5788,0.0,0.0,0.0,0.0,0.0,0.0,0.0,0.0,0.0,0.0,0.0,0.0,0.0,0.0,0.0,0.0,0.0,0.0,0.0,0.0,0.0,0.0,0.0,0.0,0.0,0.0,0.0,0.0,0.0,0.0,0.0,0.0,0.0,0.0,0.0,0.0,0.0,0.0,0.0,0.0,0.0,0.0,0.0,0.0,0.0,0.0,0.0,0.0,0.0,0.0,0.0,0.0,0.0,0.0,0.0,0.0,0.0,0.0,0.0,0.0,0.0,0.0,0.0,0.0,0.0,0.0,0.0,0.0,0.0,0.0,0.0,0.0,0.0,0.0,0.0,0.0,0.0,0.0,0.0,0.0,0.0,0.0,0.0,0.0,0.0,0.0,0.0,0.0,0.0,0.0,0.0,0.0,0.0,0.0,0.0,0.0,0.0,0.0,0.0,0.0,0.0,0.0,-0.5711,-0.7006,-0.8032,-0.8409,-0.8651,-0.8584,-0.7992,-0.7919,-0.7299,-0.5867,0.0,0.0,0.0,0.0,0.0,0.0,0.0,0.0,0.0,0.0,0.0,0.0,0.0,0.0,0.0,0.0,0.0,0.0,0.0,0.0,0.0,0.0,0.0,0.0,0.0,0.0,0.0,0.0,0.0,0.0,0.0,0.0,0.0,0.0,0.0,0.0,0.0,0.0,0.0,0.0,0.0,0.0,0.0,0.0,0.0,0.0,0.0,0.0,0.0,0.0,0.0,0.0,0.0,0.0,0.0,0.0,0.0,0.0,0.0,0.0,-0.5162,-0.4661,0.0,0.0,0.0,0.0,0.0,0.0,0.0,0.0,0.0,0.0,0.0,0.0,0.0,0.0,0.0,0.0,0.0,0.0,0.0,0.0,0.0,0.0,0.0,0.0,0.0,0.0,0.0,0.0,0.0,0.0,0.0,0.0,0.0,0.0,0.0,0.0,0.0,0.0,0.0,0.0,-0.6028,-0.7154,-0.8105,-0.8657,-0.8771,-0.8664,-0.831,-0.8063,-0.7466,-0.6466,-0.5715,0.0,0.0,0.0,0.0,0.0,0.0,0.0,0.0,0.0,0.0,0.0,0.0,0.0,0.0,0.0,0.0,0.0,0.0,0.0,0.0,0.0,0.0,0.0,0.0,0.0,0.0,0.0,0.0,0.0,0.0,0.0,0.0,0.0,0.0,0.0,0.0,0.0,0.0,0.0,0.0,0.0,0.0,0.0,0.0,0.0,0.0,0.0,0.0,0.0,0.0,0.0,0.0,0.0,0.0,0.0,0.0,0.0,0.0,0.0,-0.6132,-0.5741,0.0,0.0,0.0,0.0,0.0,0.0,0.0,0.0,0.0,0.0,0.0,0.0,0.0,0.0,0.0,0.0,0.0,0.0,0.0,0.0,0.0,0.0,0.0,0.0,0.0,0.0,0.0,0.0,0.0,0.0,0.0,0.0,0.0,0.0,0.0,0.0,0.0,0.0,0.0,0.0,-0.6305,-0.7402,-0.831,-0.8758,-0.8804,-0.8691,-0.8422,-0.8103,-0.7586,-0.6847,-0.5972,0.0,0.0,0.0,0.0,0.0,0.0,0.0,0.0,0.0,0.0,0.0,0.0,0.0,0.0,0.0,0.0,0.0,0.0,0.0,0.0,0.0,0.0,0.0,0.0,0.0,0.0,0.0,0.0,0.0,0.0,0.0,0.0,0.0,0.0,0.0,0.0,0.0,0.0,0.0,0.0,0.0,0.0,0.0,0.0,0.0,0.0,0.0,0.0,0.0,0.0,0.0,0.0,0.0,-0.7101,-0.7255,-0.7459,-0.7459,-0.7622,-0.7852,-0.7363,-0.7114,-0.7061,-0.6606,0.0,0.0,0.0,0.0,0.0,0.0,0.0,0.0,0.0,0.0,0.0,0.0,0.0,0.0,0.0,0.0,0.0,0.0,0.0,0.0,0.0,0.0,-0.7027,-0.7214,-0.7482,-0.7444,-0.64,0.0,0.0,0.0,0.0,0.0,0.0,0.0,0.0,0.0,0.0,0.0,-0.6587,-0.7685,-0.8509,-0.8778,-0.8804,-0.8711,-0.8496,-0.8176,-0.7746,-0.7193,-0.6334,-0.5783,0.0,0.0,0.0,0.0,0.0,0.0,0.0,0.0,0.0,0.0,0.0,0.0,0.0,0.0,0.0,0.0,0.0,0.0,0.0,0.0,0.0,0.0,0.0,0.0,0.0,0.0,0.0,0.0,0.0,0.0,0.0,0.0,-0.4342,-0.4655,0.0,0.0,0.0,0.0,0.0,0.0,0.0,0.0,0.0,0.0,0.0,0.0,0.0,-0.6867,-0.7666,-0.7956,-0.8357,-0.8871,-0.9152,-0.9299,-0.9332,-0.9332,-0.9359,-0.9414,-0.934,0.0,-0.7424,-0.7365,0.0,0.0,0.0,0.0,0.0,0.0,0.0,0.0,0.0,0.0,0.0,0.0,0.0,0.0,0.0,0.0,0.0,0.0,0.0,0.0,0.0,0.0,-0.8464,-0.8268,-0.8417,-0.8517,-0.8134,-0.7263,-0.6365,-0.5701,-0.5581,-0.5395,0.0,0.0,0.0,0.0,0.0,0.0,-0.6867,-0.7789,-0.8509,-0.8778,-0.8804,-0.8791,-0.8751,-0.8484,-0.817,-0.7812,-0.6967,-0.656,-0.6767,-0.5432,0.0,0.0,0.0,0.0,0.0,0.0,0.0,0.0,0.0,0.0,0.0,0.0,0.0,0.0,0.0,0.0,0.0,0.0,0.0,0.0,0.0,0.0,0.0,0.0,0.0,0.0,0.0,0.0,0.0,-0.4362,-0.5003,-0.5275,-0.5478,-0.5464,0.0,0.0,0.0,0.0,0.0,0.0,0.0,0.0,0.0,-0.7598,-0.7909,-0.8325,-0.8911,-0.9045,-0.9239,-0.9492,-0.9619,-0.9715,-0.9715,-0.9715,-0.9715,-0.9715,-0.9715,-0.934,-0.871,-0.8382,-0.8,-0.7584,0.0,0.0,0.0,0.0,-0.7062,-0.7009,-0.7491,-0.7564,-0.7397,-0.7208,0.0,0.0,0.0,0.0,0.0,0.0,0.0,-0.7348,-0.7689,-0.829,-0.8818,-0.8851,-0.8931,-0.8944,-0.8684,-0.8203,-0.7609,-0.6868,-0.672,-0.6406,-0.5468,-0.5464,0.0,0.0,0.0,-0.7069,-0.7453,-0.817,-0.8664,-0.8791,-0.8804,-0.8804,-0.8804,-0.8913,-0.8787,-0.8379,-0.8066,-0.7698,-0.7239,-0.6284,-0.5642,0.0,0.0,0.0,0.0,0.0,0.0,0.0,0.0,0.0,0.0,0.0,0.0,0.0,0.0,0.0,0.0,0.0,0.0,0.0,0.0,0.0,0.0,0.0,0.0,0.0,0.0,0.0,0.0,-0.5099,-0.5628,-0.5905,-0.6285,-0.6384,0.0,0.0,0.0,0.0,0.0,0.0,-0.7042,-0.7625,-0.8188,-0.8724,-0.9125,-0.9492,-0.9793,-0.9793,-0.9833,-0.9943,-1.001,-1.002,-1.002,-1.002,-1.006,-1.012,-1.0003,-0.9976,-0.9967,-0.9305,-0.8905,-0.869,-0.8234,-0.8031,-0.805,-0.8491,-0.8658,-0.8769,-0.9413,-0.9506,-0.9277,-0.8815,-0.8334,-0.7859,-0.7402,0.0,0.0,0.0,0.0,-0.8067,-0.8596,-0.8871,-0.9085,-0.9271,-0.9324,-0.9244,-0.8951,-0.8891,-0.8677,-0.7879,-0.7718,-0.739,-0.6339,-0.6365,0.0,-0.6192,-0.6974,-0.7695,-0.7979,-0.849,-0.8857,-0.9035,-0.9061,-0.914,-0.9283,-0.9597,-0.9519,-0.8997,-0.905,-0.8762,-0.7971,-0.7284,-0.6731,-0.6269,0.0,0.0,0.0,0.0,0.0,0.0,0.0,0.0,0.0,0.0,0.0,0.0,0.0,0.0,0.0,0.0,0.0,0.0,0.0,0.0,0.0,0.0,0.0,0.0,0.0,0.0,0.0,0.0,0.0,-0.6526,-0.7069,0.0,0.0,0.0,0.0,-0.6567,-0.7313,-0.7932,-0.8295,-0.8811,-0.9264,-0.9635,-0.9646,-0.98,-1.0094,-1.0094,-1.0234,-1.0553,-1.0795,-1.0929,-1.0929,-1.0929,-1.1076,-1.1309,-1.0787,-1.0707,-1.0862,-0.9993,-0.9633,-0.9641,-0.9615,-1.0059,-1.0699,-1.0737,-1.1213,-1.1878,-1.1909,-1.1917,-1.1789,-1.1005,-1.0015,-0.9118,-0.9091,-0.8884,0.0,0.0,-0.9098,-0.9198,-0.9539,-0.9655,-0.9675,-0.9659,-0.9659,-0.9579,-0.9251,-0.9191,-0.9011,-0.8469,-0.8355,-0.8154,-0.7511,0.0,-0.7417,-0.7426,-0.7682,-0.7992,-0.8342,-0.8617,-0.9035,-0.9692,-0.9744,-1.002,-1.0644,-1.0729,-1.0409,-0.969,-0.9662,-0.9587,-0.9399,-0.8568,-0.7833,-0.7246,-0.6172,0.0,0.0,0.0,0.0,0.0,0.0,0.0,0.0,0.0,0.0,0.0,0.0,0.0,0.0,0.0,0.0,0.0,0.0,0.0,0.0,0.0,0.0,0.0,0.0,0.0,0.0,0.0,0.0,-0.7373,-0.7826,0.0,-0.7473,-0.7722,-0.7929,-0.8009,-0.8458,-0.8878,-0.9226,-0.9593,-0.994,-1.0271,-1.0459,-1.0668,-1.0922,-1.0929,-1.1015,-1.1122,-1.1223,-1.1269,-1.1269,-1.1269,-1.1295,-1.1382,-1.1209,-1.1176,-1.1216,-1.0935,-1.0468,-0.994,-0.9753,-0.9875,-1.0128,-1.0128,-1.0301,-1.0558,-1.0558,-1.0558,-1.0501,-1.0214,-0.9858,-0.9526,-0.9526,-0.9806,-1.0175,-1.0255,-1.0292,-1.0364,-1.0653,-1.0363,-0.996,-0.996,-0.996,-0.988,-0.9593,-0.9526,-0.9466,-0.9286,-0.8911,-0.8609,-0.8427,-0.8728,-0.8859,-0.8446,-0.9191,-0.965,-0.9336,-0.9765,-1.0192,-1.0415,-1.044,-1.0542,-1.0788,-1.1191,-1.1118,-1.0336,-1.0673,-1.0342,-0.9033,-0.9029,-0.8499,-0.7386,-0.6609,-0.5763,0.0,0.0,0.0,0.0,0.0,0.0,0.0,0.0,0.0,0.0,0.0,0.0,0.0,0.0,0.0,0.0,0.0,0.0,0.0,0.0,0.0,0.0,0.0,0.0,0.0,0.0,-0.7493,-0.7999,-0.8424,-0.8591,-0.8365,-0.8644,-0.8925,-0.9092,-0.9344,-0.9637,-0.9997,-1.0254,-1.0548,-1.0874,-1.1042,-1.1229,-1.1389,-1.1389,-1.1389,-1.1389,-1.1495,-1.1577,-1.1577,-1.1577,-1.163,-1.1675,-1.1475,-1.1449,-1.1563,-1.147,-1.1049,-1.0541,-1.0712,-1.114,-1.1669,-1.1669,-1.1819,-1.2059,-1.2059,-1.1809,-1.1442,-1.1442,-1.0989,-1.0413,-1.0413,-1.0584,-1.0806,-1.0806,-1.0806,-1.0827,-1.1007,-1.0683,-1.0267,-1.0267,-1.0267,-1.0187,-0.9893,-0.9826,-0.98,-0.9729,-0.9285,-0.8956,-0.8994,-0.9256,-0.9321,-0.8921,-0.9587,-0.9969,-0.951,-0.9865,-1.0287,-1.0737,-1.0788,-1.0998,-1.1484,-1.178,-1.1704,-1.1177,-1.1276,-1.0695,-0.9225,-0.9277,-0.8681,-0.7299,-0.6503,-0.5845,-0.5325,0.0,0.0,0.0,0.0,0.0,0.0,0.0,0.0,0.0,0.0,0.0,0.0,0.0,0.0,0.0,0.0,0.0,0.0,0.0,0.0,0.0,0.0,0.0,-0.7006,-0.7559,-0.8045,-0.8402,-0.8911,-0.9224,-0.9224,-0.9526,-0.9729,-0.9735,-0.998,-1.0274,-1.06,-1.0888,-1.1142,-1.1395,-1.1409,-1.1409,-1.1415,-1.1415,-1.1415,-1.1422,-1.175,-1.1919,-1.1919,-1.1919,-1.2037,-1.2271,-1.1662,-1.1617,-1.1899,-1.157,-1.1456,-1.1553,-1.2485,-1.3892,-1.5386,-1.5386,-1.5854,-1.6529,-1.6529,-1.577,-1.4795,-1.4795,-1.3439,-1.1802,-1.1802,-1.1286,-1.0708,-1.0701,-1.0694,-1.0694,-1.0719,-1.0681,-1.0656,-1.0688,-1.0688,-1.0607,-1.0248,-1.0188,-1.0107,-0.9847,-0.9522,-0.9286,-0.9239,-0.9032,-0.8871,-0.8857,-0.891,0.0,-0.8857,-0.8883,-0.9387,-1.0686,-1.0838,-1.1375,-1.2774,-1.2467,-1.2213,-1.2184,-1.1385,-1.066,-1.0119,-0.9404,-0.8391,-0.7057,-0.5927,-0.5181,-0.4849,0.0,0.0,0.0,0.0,0.0,0.0,0.0,0.0,0.0,0.0,0.0,0.0,0.0,0.0,0.0,0.0,0.0,0.0,0.0,0.0,0.0,-0.7348,-0.7933,-0.8013,-0.833,-0.8758,-0.9293,-0.9466,-0.9559,-0.9559,-0.9826,-1.0087,-1.0332,-1.0588,-1.0882,-1.1169,-1.1263,-1.1443,-1.1737,-1.175,-1.185,-1.2058,-1.2058,-1.2058,-1.2058,-1.2144,-1.2184,-1.2184,-1.2184,-1.2225,-1.2291,-1.2131,-1.2111,-1.2178,-1.2091,-1.2447,-1.297,-1.2137,-1.2125,-1.2516,-1.2516,-1.2684,-1.2852,-1.2852,-1.2624,-1.2358,-1.2358,-1.1973,-1.151,-1.151,-1.2259,-1.3057,-1.2742,-1.2703,-1.283,-1.3119,-1.2351,-1.1624,-1.2212,-1.2336,-1.2312,-1.221,-1.2195,-1.2163,-1.2107,-1.1868,-1.1303,-1.0177,-1.034,-1.0532,-1.0275,-1.1116,-1.1392,-1.0372,-1.0661,-1.1116,-1.1491,-1.1541,-1.1907,-1.2822,-1.2773,-1.2432,-1.1809,-1.1535,-1.1018,-1.0137,-0.9618,-0.8888,-0.7888,-0.7043,-0.6408,0.0,0.0,0.0,0.0,0.0,0.0,0.0,0.0,0.0,0.0,0.0,0.0,0.0,0.0,0.0,0.0,0.0,0.0,0.0,0.0,0.0,0.0,-0.813,-0.8684,-0.9051,-0.9145,-0.9345,-0.9806,-0.9866,-0.996,-1.0207,-1.0388,-1.0608,-1.0902,-1.1082,-1.1303,-1.1597,-1.161,-1.1744,-1.2044,-1.2087,-1.2131,-1.2305,-1.2305,-1.2305,-1.2305,-1.2305,-1.2305,-1.2305,-1.2305,-1.2305,-1.2305,-1.2305,-1.2305,-1.2305,-1.2305,-1.2629,-1.3099,0.0,0.0,0.0,0.0,-1.4153,-1.4153,-1.4153,-1.4056,-1.3902,-1.3902,-1.3563,-1.3112,-1.3112,-1.3619,-1.4139,-1.3858,-1.3684,-1.3645,-1.3899,-1.3138,-1.242,-1.2887,-1.3009,-1.2917,-1.2573,-1.2512,-1.2389,-1.2058,-1.1875,0.0,-1.0387,-1.1016,-1.15,-1.1154,-1.178,-1.1955,-1.0939,-1.1141,-1.1491,-1.1765,-1.1789,-1.2104,-1.2847,-1.2715,0.0,0.0,0.0,-1.1108,-0.9983,-0.9273,0.0,0.0,0.0,0.0,0.0,0.0,0.0,0.0,-0.568,-0.5731,0.0,0.0,0.0,0.0,0.0,0.0,0.0,0.0,0.0,0.0,0.0,0.0,0.0,0.0,0.0,0.0,-0.8724,-0.9225,-0.9977,-0.992,-0.988,-1.0134,-1.0163,-1.0421,-1.0942,-1.1022,-1.1162,-1.145,-1.1442,-1.1603,-1.194,-1.1953,0.0,0.0,0.0,-1.2305,-1.2305,-1.2338,-1.2338,-1.2305,-1.2338,-1.2338,-1.2305,-1.2305,-1.2305,-1.2305,-1.2305,-1.2305,-1.2305,-1.2305,-1.2445,-1.2769,-1.4271,-1.5367,-1.621,-1.7035,-1.7364,-1.7364,-1.7364,0.0,0.0,-1.6968,-1.629,-1.5456,-1.5456,-1.5031,-1.4562,-1.4486,-1.4201,-1.3867,-1.3802,-1.3424,-1.3066,-1.3036,-1.3011,-1.2826,-1.2197,-1.2074,-1.1865,-1.1139,-1.1076,-1.1023,-1.0627,-1.136,-1.1873,-1.1531,-1.1552,-1.1444,-1.0964,-1.0914,-1.1141,-1.174,-1.1789,0.0,-1.2847,-1.2529,-1.2428,-1.2807,-1.2093,-1.112,-0.9872,-0.8964,-0.8391,-0.8234,-0.7631,-0.7859,-0.8997,-0.8318,-0.8152,-0.8461,-0.673,-0.6708,0.0,0.0,0.0,0.0,0.0,0.0,0.0,0.0,0.0,0.0,0.0,0.0,0.0,0.0,0.0,-0.8651,-0.9365,-0.9897,-1.0094,-1.0305,-1.0445,-1.0499,-1.0681,-1.0868,-1.0982,-1.1209,-1.1463,-1.1799,-1.1784,-1.1946,-1.2204,-1.2218,-1.2245,-1.2305,-1.2305,-1.2305,-1.2305,-1.2576,-1.2576,-1.2305,-1.2583,0.0,-1.2305,-1.2305,-1.2305,-1.2305,-1.2305,-1.2305,-1.2305,-1.2305,-1.3237,-1.4522,-1.3339,-1.2981,-1.3157,-1.3339,-1.3411,-1.3411,-1.3411,-1.3837,-1.4427,-1.4427,-1.4803,-1.5262,-1.5262,-1.5679,0.0,-1.571,-1.5593,-1.5534,-1.5092,-1.4213,-1.3469,-1.3344,-1.3153,-1.313,-1.3636,-1.3747,-1.3696,-1.3537,-1.4025,-1.4236,-1.3532,-1.2233,-1.1297,-1.1331,-1.1798,-1.2008,-1.1644,-1.1616,-1.1665,-1.1789,-1.1789,-1.2104,-1.2847,-1.2827,-1.2637,-1.235,-1.2174,-1.1631,-1.0627,-1.071,-1.0592,-1.0259,-0.9525,-0.9307,-0.9534,-0.8881,-0.8511,-0.8403,-0.7768,-0.7529,0.0,0.0,0.0,0.0,0.0,0.0,0.0,0.0,0.0,0.0,0.0,-0.7395,-0.7812,0.0,-0.9445,-0.9442,-1.0136,-1.0658,-1.0571,-1.0681,-1.0807,-1.0807,-1.0909,-1.1109,-1.1437,-1.2006,-1.2291,-1.21,-1.2547,-1.2646,-1.2328,-1.2305,-1.2371,-1.2556,-1.2563,-1.2599,-1.2759,-1.2906,-1.2906,-1.2759,-1.2906,-1.2899,-1.2759,-1.2759,-1.2672,-1.2563,-1.3042,-1.2878,-1.2335,-1.2806,-1.3875,-1.5092,-1.4127,-1.4335,-1.5155,-1.5155,-1.5155,-1.5155,-1.5155,-1.5446,-1.5842,-1.5842,-1.6193,-1.6585,-1.6585,-1.6941,-1.7239,-1.7032,-1.6505,-1.5951,-1.5662,-1.503,-1.442,-1.4388,-1.4448,-1.4541,-1.4541,-1.4379,-1.4085,-1.3666,-1.3906,-1.4055,-1.3674,-1.2723,-1.2209,-1.2654,-1.2983,-1.3006,-1.2429,-1.2344,-1.2344,-1.2344,-1.2344,-1.251,-1.2881,-1.2905,-1.2807,-1.2568,-1.2196,-1.1695,-1.1035,-1.0942,-1.0763,-1.051,-0.988,-0.9771,-1.0252,-0.923,-0.8883,-0.9075,-0.8582,-0.8641,0.0,0.0,0.0,0.0,0.0,0.0,0.0,0.0,-0.7054,-0.7433,-0.7905,-0.8435,-0.9097,-0.9884,-1.0399,-1.0327,-1.0856,-1.126,-1.1281,-1.112,-1.1141,-1.1551,-1.1521,-1.1648,-1.2135,-1.2897,-1.3149,-1.2609,-1.3098,-1.3164,-1.2592,-1.2469,-1.2604,-1.3075,-1.2952,-1.2998,-1.3206,-1.3267,-1.3267,-1.3213,-1.3267,-1.3267,-1.3213,-1.3213,-1.3184,-1.3241,-1.4215,-1.4059,-1.3158,-1.3925,-1.4828,-1.5728,-1.5616,-1.6623,-1.8056,-1.7608,-1.7476,-1.7476,-1.7476,-1.7579,-1.7725,-1.7725,-1.7862,-1.8008,-1.8008,-1.8008,-1.8008,-1.8008,-1.7186,-1.6257,-1.608,-1.5758,-1.5405,-1.5233,-1.546,-1.559,-1.5013,-1.4617,-1.4123,-1.3381,-1.3373,-1.3425,-1.3252,-1.3373,-1.3588,-1.3956,-1.4005,-1.376,-1.3105,-1.3023,-1.2993,-1.2915,-1.2905,-1.2905,-1.2905,-1.2905,-1.2905,-1.2905,-1.2344,-1.1801,-1.1339,-1.0891,-1.0554,-1.0319,-0.9887,-1.0037,-1.0788,-0.971,-0.9465,-0.9987,-0.9562,-0.9814,-0.597,-0.6095,-0.6251,-0.6727,-0.6707,-0.6947,0.0,0.0,-0.8429,-0.9246,-0.9439,-0.9726,-1.0533,-1.0385,-1.0357,-1.1056,-1.1101,-1.1332,-1.2143,-1.154,-1.1671,-1.3523,-1.3343,-1.308,-1.3155,-1.345,-1.3636,-1.3564,-1.2879,-1.2769,-1.3491,-1.3033,-1.3123,-1.4021,-1.3473,-1.3173,-1.3213,-1.3427,-1.3427,-1.3213,-1.3427,-1.342,-1.3213,-1.3213,-1.3685,-1.4626,-1.5677,-1.6062,-1.5953,-1.6066,-1.6684,-1.7576,-1.7144,-1.7617,-1.8305,-1.6246,-1.5517,-1.5517,-1.5517,-1.6044,-1.674,-1.674,-1.732,-1.8008,-1.8008,-1.8008,-1.8008,-1.8008,-1.7901,-1.758,-1.6745,-1.6274,-1.58,-1.4959,-1.4613,-1.4582,-1.4849,-1.4865,-1.4668,-1.4156,-1.4628,-1.4903,-1.4183,-1.4658,-1.481,-1.3798,-1.3649,-1.359,-1.3442,-1.3437,-1.3301,-1.2944,-1.2905,-1.2905,-1.2905,-1.2905,-1.2905,-1.2905,-1.2822,-1.2457,-1.1751,-1.1677,-1.1355,-1.073,-1.068,-1.0704,-1.0788,-1.0644,-1.061,-1.0686,-1.1216,-1.0914,-0.7296,-0.7471,0.0,0.0,-0.8072,-0.8298,-0.9044,-0.9185,-0.9266,-0.9635,-1.0217,-1.0593,-1.0446,-1.1174,-1.1821,0.0,-1.2245,-1.2595,-1.2897,-1.2843,-1.2976,-1.3457,-1.4077,-1.4125,-1.3279,-1.4041,-1.4314,-1.3745,-1.3882,-1.4248,-1.4879,-1.4082,-1.3999,-1.4799,-1.394,-1.3547,-1.3721,-1.4434,-1.4748,-1.4667,-1.5401,-1.5678,-1.5581,-1.5581,-1.6024,-1.682,-1.6547,-1.7058,-1.8054,-1.7496,-1.7841,-1.87,-1.8493,-1.849,-1.8479,-1.7262,-1.6828,-1.6828,-1.6828,-1.7079,-1.7398,-1.7398,-1.7681,-1.8008,-1.8008,-1.8008,-1.8008,-1.8008,-1.7613,-1.7104,-1.6706,-1.651,-1.628,-1.5894,-1.5959,-1.6081,-1.5958,-1.5768,-1.5465,-1.4979,-1.5177,-1.5294,-1.4962,-1.5167,-1.5235,-1.4734,-1.4449,-1.4192,-1.3902,-1.3636,-1.335,-1.2954,-1.2905,-1.2905,-1.2905,-1.2905,-1.2905,-1.2905,-1.251,-1.2129,-1.1814,-1.1789,-1.1491,-1.0813,-1.0788,-1.0788,-1.0788,-1.0415,-1.0415,-1.0813,-1.1091,-1.1141,-0.827,0.0,0.0,-0.8851,-0.9118,-0.9357,-0.9437,-0.9646,-0.9908,-1.0219,-1.09,-1.1323,-1.0982,-1.205,-1.294,-1.2765,-1.3308,-1.3746,-1.3688,-1.391,-1.3981,-1.3739,-1.4577,-1.4696,-1.3431,-1.4356,-1.4773,-1.4163,-1.4522,-1.5212,-1.6158,-1.4989,-1.4743,-1.5666,-1.4708,-1.431,-1.4531,-1.5628,-1.615,-1.615,-1.6927,-1.7302,-1.7293,-1.7626,-1.8034,-1.8467,-1.7817,-1.8347,-1.9602,-1.8911,-1.906,-1.9666,-1.9512,-1.9268,-1.889,-1.8344,-1.8105,-1.8008,-1.8008,-1.8008,-1.8008,-1.8008,-1.8008,-1.8008,-1.8008,-1.8008,-1.8008,-1.8008,-1.7501,-1.6991,-1.6991,-1.6991,-1.6991,-1.6991,-1.7273,-1.7412,-1.6824,-1.6475,-1.6084,-1.5518,-1.541,-1.541,-1.541,-1.541,-1.541,-1.541,-1.5156,-1.4805,-1.4338,-1.3838,-1.335,-1.2954,-1.2905,-1.2905,-1.2905,-1.2905,-1.2905,-1.2905,-1.2393,-1.1996,-1.1814,-1.1616,-1.1216,-1.0542,-1.072,-1.0788,-1.0788,-1.0703,-1.0906,-1.1384,-1.1384,-1.1525,0.0,0.0,-0.9184,-0.9198,-0.9452,-0.9746,-0.9997,-1.007,-1.0387,-1.1521,-1.175,-1.2035,-1.2771,-1.297,-1.3124,-1.3511,-1.3866,-1.4231,-1.4595,-1.4338,-1.4386,-1.5145,-1.5029,-1.4633,-1.3933,-1.4259,-1.4714,-1.5138,-1.4279,-1.4752,-1.7045,-1.5511,-1.5203,-1.6599,-1.5998,-1.5647,-1.5655,-1.6723,-1.7253,-1.7253,-1.7302,-1.7302,-1.7334,-1.843,-1.8948,-1.9018,-2.0051,-2.0527,-2.0566,-2.0527,-2.0527,-2.0527,-2.0059,-1.9883,-1.9775,-1.889,-1.8325,-1.8008,-1.8008,-1.8008,-1.8008,-1.8008,-1.8008,-1.8008,-1.8008,-1.8008,-1.8008,-1.8008,-1.7974,-1.7974,-1.7974,-1.7974,-1.7974,-1.7974,-1.7964,-1.7764,-1.6882,-1.6687,-1.6424,-1.5576,-1.541,-1.541,-1.541,-1.541,-1.541,-1.541,-1.54,-1.5244,-1.4814,-1.4033,-1.335,-1.2954,-1.2905,-1.2905,-1.2905,-1.2905,-1.2905,-1.2905,-1.2881,-1.2559,-1.1839,-1.1191,-1.0517,-0.984,-1.0466,-1.0788,-1.0788,-1.2157,-1.2832,-1.2832,-1.2832,-1.2452,0.0,0.0,-0.9579,-0.9744,-0.987,-1.0047,-1.0372,-1.0829,-1.1249,-1.1314,-1.2214,-1.2827,-1.2229,-1.283,-1.362,-1.4351,-1.427,-1.453,-1.579,-1.5579,-1.5312,-1.5283,-1.5204,0.0,-1.485,-1.5207,0.0,-1.5209,-1.5709,-1.6784,-1.8491,-1.6936,-1.6686,-1.818,-1.657,-1.6026,-1.6764,-1.7868,-1.843,-1.843,-1.9155,-1.9471,-1.9511,-1.9883,-2.004,-2.0079,-2.044,-2.0605,-2.0605,-2.0605,-2.0605,-2.0586,-2.0449,-2.0166,-1.9883,-1.9553,-1.8997,-1.8354,-1.8105,-1.8008,-1.8008,-1.8008,-1.8008,-1.8008,-1.8008,-1.8008,-1.8008,-1.8008,-1.8008,-1.8008,-1.8008,-1.8008,-1.8008,-1.8008,-1.8008,-1.7852,-1.7285,-1.7168,-1.6904,-1.6016,-1.587,-1.5782,-1.5459,-1.541,-1.541,-1.541,-1.541,-1.5254,-1.4834,-1.4531,-1.4082,-1.3369,-1.3301,-1.3184,-1.2925,-1.2905,-1.2905,-1.2905,-1.2905,-1.2798,-1.2535,-1.1848,-1.1141,-1.0491,-1.0695,-1.0788,-1.0788,-1.1724,-1.2427,-1.2905,-1.2905,-1.2774,0.0,-0.9664,-0.9907,-1.02,-1.0482,-1.0769,-1.0972,-1.1536,-1.2017,-1.1998,-1.2731,-1.3105,-1.2287,-1.3036,-1.3967,-1.4557,-1.4738,-1.5157,-1.6208,-1.6413,-1.6223,-1.5587,-1.5402,-1.5375,0.0,0.0,0.0,-1.5694,-1.6625,-1.7796,-1.9231,-1.8013,-1.7783,-1.8948,-1.7617,-1.7212,-1.7908,-1.8997,-1.9559,-1.9559,-2.0284,-2.0605,-2.0605,-2.0605,-2.0605,-2.0605,-2.0605,-2.0605,-2.0605,-2.0605,-2.0605,-2.0605,-2.0605,-2.0429,-2.0127,-1.9971,-1.9473,-1.8773,-1.8344,-1.8135,-1.8008,-1.8008,-1.8008,-1.8008,-1.8008,-1.8008,-1.8008,-1.8008,-1.8008,-1.8008,-1.8008,-1.8008,-1.8008,-1.8008,-1.8008,-1.79,-1.7471,-1.7383,-1.7151,-1.6261,-1.6095,-1.5958,-1.5488,-1.541,-1.541,-1.541,-1.541,-1.5254,-1.4834,-1.4813,-1.448,-1.3603,-1.3506,-1.334,-1.2935,-1.2905,-1.2905,-1.2905,-1.2905,-1.2905,-1.2905,-1.2187,-1.1591,-1.1166,-1.1166,-1.1166,-1.1166,-1.1857,-1.2452,-1.2905,-1.2905,-1.2905,-1.0192,-1.0157,-1.0207,-1.0582,-1.1226,-1.1795,-1.1842,-1.2174,-1.2668,-1.3347,-1.3184,-1.2878,-1.2833,0.0,-1.4074,-1.4171,-1.5224,-1.6007,-1.5987,-1.676,-1.702,0.0,0.0,0.0,0.0,0.0,0.0,-1.6698,0.0,-1.7905,-1.926,-1.8713,-1.8569,-1.9067,-1.9045,-1.9045,-1.9076,-2.0079,-2.0605,-2.0605,-2.0605,-2.0605,-2.0605,-2.0605,-2.0605,-2.0605,-2.0605,-2.0605,-2.0605,-2.0605,-2.0605,-2.0605,-2.0605,-2.0605,-2.0556,-2.0098,-1.9678,-1.9258,-1.8783,-1.8344,-1.8008,-1.8008,-1.8008,-1.8008,-1.8008,-1.8008,-1.8008,-1.8008,-1.8008,-1.8008,-1.8008,-1.8008,-1.8008,-1.8008,-1.8008,-1.79,-1.75,-1.7422,-1.7191,-1.633,-1.6124,-1.5958,-1.5488,-1.541,-1.541,-1.541,-1.541,-1.5264,-1.4873,-1.4814,-1.4502,-1.3662,-1.3574,-1.3389,-1.2974,-1.2935,-1.2925,-1.2905,-1.2905,-1.2905,-1.2905,-1.2187,-1.1789,-1.1789,-1.1789,-1.1789,-1.1789,-1.2535,-1.2905,-1.2905,-1.2905,-1.2905,-1.079,-1.0751,-1.0649,-1.1329,-1.1648,-1.1889,-1.2194,-1.2802,-1.3065,-1.228,-1.2526,-1.2693,-1.2044,0.0,0.0,-1.4018,-1.4641,0.0,-1.6834,-1.6904,0.0,-1.7417,0.0,-1.7046,-1.783,-1.7619,0.0,0.0,-1.8718,-1.9041,-1.9699,-1.914,-1.9252,-2.0157,-1.9402,-1.9362,-2.0167,-2.044,-2.0605,-2.0605,-2.0605,-2.0605,-2.0605,-2.0605,-2.0605,-2.0605,-2.0605,-2.0605,-2.0605,-2.0605,-2.0605,-2.0605,-2.0605,-2.0605,-2.0595,-2.0478,-2.0127,-1.9697,-1.9268,-1.8633,-1.8008,-1.8008,-1.8008,-1.8008,-1.8008,-1.8008,-1.8008,-1.8008,-1.8008,-1.8008,-1.8008,-1.8008,-1.8008,-1.8008,-1.8008,-1.7978,-1.7871,-1.7852,-1.7686,-1.7181,-1.6545,-1.5958,-1.5488,-1.541,-1.541,-1.541,-1.541,-1.5371,-1.5264,-1.5254,-1.5049,-1.4512,-1.4463,-1.416,-1.3408,-1.335,-1.3213,-1.2925,-1.2905,-1.2905,-1.2905,-1.2187,-1.1789,-1.1789,-1.1789,-1.1789,-1.1789,-1.2535,-1.2905,-1.2905,-1.2905,-1.2905,-1.1316,-1.133,-1.1226,-1.1679,-1.1943,-1.2164,-1.2517,-1.2966,-1.2965,-1.1838,-1.1996,0.0,-1.1183,0.0,0.0,0.0,0.0,0.0,-1.6879,-1.7011,-1.73,0.0,-1.7623,0.0,-1.8799,-1.8284,-1.8341,0.0,-1.9561,-1.9668,-1.9902,-1.9773,-1.9962,-2.0566,-2.0001,-2.0001,-2.0605,-2.0605,-2.0605,-2.0605,-2.0605,-2.0605,-2.0605,-2.0605,-2.0605,-2.0605,-2.0605,-2.0605,-2.0605,-2.0605,-2.0605,-2.0605,-2.0605,-2.0605,-2.0605,-2.0605,-2.0176,-1.9609,-1.9365,-1.8848,-1.8247,-1.8247,-1.812,-1.8047,-1.8223,-1.812,-1.8008,-1.8008,-1.8008,-1.8008,-1.8008,-1.8008,-1.8008,-1.8008,-1.8008,-1.8008,-1.8008,-1.8008,-1.7881,-1.7461,-1.6701,-1.6016,-1.5732,-1.5537,-1.541,-1.541,-1.541,-1.541,-1.541,-1.541,-1.5254,-1.4834,-1.4813,-1.4512,-1.3812,-1.3588,-1.3408,-1.3174,-1.3013,-1.2905,-1.2905,-1.2501,-1.2286,-1.2286,-1.2286,-1.2286,-1.2286,-1.2691,-1.2905,-1.2905,-1.2905,-1.2905,-1.1844,-1.195,-1.195,-1.195,-1.2258,-1.2596,-1.2784,-1.2819,-1.2553,-1.1636,0.0,-1.1095,-1.0352,-1.1172,-1.2145,-1.2807,0.0,-1.5176,-1.6512,-1.7109,-1.7695,-1.85,-1.7926,-1.7969,-1.9253,-1.8704,-1.8732,-1.9895,-2.0,-2.0,-2.0,-2.04,-2.0605,-2.0605,-2.0605,-2.0605,-2.0605,-2.0605,-2.0605,-2.0605,-2.0605,-2.0605,-2.0605,-2.0605,-2.0605,-2.0605,-2.0605,-2.0605,-2.0605,-2.0605,-2.0605,-2.0605,-2.0605,-2.0605,-2.0595,-2.0537,-2.0048,-1.9355,-1.9238,-1.8955,-1.8588,-1.8539,-1.8315,-1.812,-1.8422,-1.8266,-1.8008,-1.8008,-1.8008,-1.8008,-1.8008,-1.8008,-1.8008,-1.8008,-1.8008,-1.8008,-1.8008,-1.8008,-1.7881,-1.7461,-1.675,-1.6163,-1.6105,-1.5703,-1.541,-1.541,-1.541,-1.541,-1.541,-1.541,-1.5273,-1.4902,-1.4873,-1.4697,-1.4231,-1.386,-1.3633,-1.3516,-1.3164,-1.2964,-1.2905,-1.2905,-1.2905,-1.2905,-1.2905,-1.2905,-1.2905,-1.2905,-1.2905,-1.2905,-1.2905,-1.2905,-1.2588,-1.2795,-1.2795,-1.2795,-1.3093,-1.3212,-1.2556,-1.2348,0.0,0.0,0.0,-0.9903,-0.9757,-1.0225,0.0,-1.2661,0.0,0.0,0.0,0.0,-1.7695,0.0,0.0,0.0,0.0,0.0,0.0,0.0,-2.0488,-2.0488,-2.0488,-2.0566,-2.0605,-2.0605,-2.0605,-2.0605,-2.0605,-2.0605,-2.0605,-2.0605,-2.0605,-2.0605,-2.0605,-2.0605,-2.0605,-2.0605,-2.0605,-2.0605,-2.0605,-2.0605,-2.0605,-2.0605,-2.0605,-2.0605,-2.0556,-2.0156,-1.9932,-1.9697,-1.8958,-1.8666,-1.8549,-1.8198,-1.8266,-1.8442,-1.8169,-1.8066,-1.8008,-1.8008,-1.8008,-1.8008,-1.8008,-1.8008,-1.8008,-1.8008,-1.8008,-1.8008,-1.8008,-1.8008,-1.7881,-1.7461,-1.6963,-1.6494,-1.6153,-1.5703,-1.541,-1.541,-1.541,-1.541,-1.541,-1.541,-1.5381,-1.5312,-1.5303,-1.5127,-1.4707,-1.46,-1.4268,-1.3555,-1.3437,-1.3242,-1.2925,-1.2905,-1.2905,-1.2905,-1.2905,-1.2905,-1.2905,-1.2905,-1.2905,-1.2905,-1.2905,-1.2905,-1.2951,-1.3312,-1.3606,-1.3606,-1.3444,-1.3113,-1.2723,0.0,0.0,0.0,0.0,-0.9153,-0.8688,0.0,0.0,0.0,0.0,0.0,0.0,0.0,0.0,0.0,0.0,0.0,0.0,0.0,-2.0322,-2.0586,-2.0605,-2.0605,-2.0605,-2.0605,-2.0605,-2.0605,-2.0605,-2.0605,-2.0605,-2.0605,-2.0605,-2.0605,-2.0605,-2.0605,-2.0605,-2.0605,-2.0605,-2.0605,-2.0605,-2.0605,-2.0605,-2.0605,-2.0605,-2.0586,-2.0312,-2.0225,-2.0176,-1.9746,-1.9443,-1.9153,-1.8744,-1.8598,-1.8529,-1.8144,-1.8144,-1.8276,-1.8295,-1.8184,-1.8008,-1.8008,-1.8008,-1.8008,-1.8008,-1.8008,-1.8008,-1.8008,-1.8008,-1.8008,-1.8008,-1.8008,-1.7881,-1.7461,-1.7031,-1.656,-1.6173,-1.5703,-1.541,-1.541,-1.541,-1.541,-1.541,-1.541,-1.541,-1.541,-1.541,-1.5332,-1.5127,-1.4912,-1.4512,-1.3851,-1.3633,-1.332,-1.2925,-1.2905,-1.2905,-1.2905,-1.2905,-1.2905,-1.2905,-1.2905,-1.2905,-1.2905,-1.2905,-1.2905,-1.3199,-1.3784,-1.4403,-1.4134,-1.3612,-1.3029,-1.2482,-1.154,0.0,0.0,-0.8799,-0.8538,-0.7963,0.0,0.0,0.0,0.0,0.0,0.0,0.0,0.0,0.0,0.0,0.0,0.0,0.0,0.0,-2.0439,-2.0546,-2.0605,-2.0605,-2.0605,-2.0605,-2.0605,-2.0605,-2.0605,-2.0605,-2.0605,-2.0605,-2.0605,-2.0605,-2.0605,-2.0605,-2.0605,-2.0605,-2.0605,-2.0605,-2.0605,-2.0605,-2.0605,-2.0546,-2.0391,-2.0049,-1.9853,-1.9727,-1.9307,-1.8936,-1.8588,-1.85,-1.8461,-1.8412,-1.8081,-1.8076,-1.8184,-1.8393,-1.8237,-1.8008,-1.8008,-1.8008,-1.8008,-1.8008,-1.8008,-1.8008,-1.8008,-1.8008,-1.8008,-1.8008,-1.8008,-1.7881,-1.7461,-1.7031,-1.656,-1.6173,-1.5703,-1.541,-1.541,-1.541,-1.541,-1.541,-1.541,-1.541,-1.541,-1.541,-1.541,-1.541,-1.5107,-1.4697,-1.4143,-1.3906,-1.3555,-1.3062,-1.3042,-1.3042,-1.3042,-1.2954,-1.2905,-1.2905,-1.2905,-1.2905,-1.2905,-1.2905,-1.2905,-1.3557,-1.4408,-1.5022,-1.3915,-1.383,-1.3406,-1.1143,0.0,0.0,-0.8718,-0.8125,-0.7924,-0.8277,0.0,0.0,0.0,0.0,0.0,0.0,0.0,0.0,0.0,0.0,0.0,0.0,0.0,-1.9932,-1.9971,-2.038,-2.0605,-2.0605,-2.0605,-2.0605,-2.0605,-2.0605,-2.0605,-2.0605,-2.0605,-2.0605,-2.0605,-2.0605,-2.0605,-2.0605,-2.0605,-2.0605,-2.0605,-2.0605,-2.0605,-2.0605,-2.0605,-2.0332,-1.9971,-1.9932,-1.9678,-1.9287,-1.8857,-1.8637,-1.8549,-1.8159,-1.8066,-1.8057,-1.8018,-1.8237,-1.8481,-1.813,-1.8037,-1.8008,-1.8008,-1.8008,-1.8008,-1.8008,-1.8008,-1.8008,-1.8008,-1.8008,-1.8008,-1.8008,-1.8008,-1.7881,-1.7461,-1.7031,-1.656,-1.6173,-1.5703,-1.541,-1.541,-1.541,-1.541,-1.541,-1.541,-1.541,-1.541,-1.541,-1.541,-1.541,-1.5381,-1.4981,-1.4163,-1.4473,-1.4307,-1.3486,-1.3447,-1.3447,-1.3447,-1.3101,-1.2905,-1.2905,-1.2905,-1.2905,-1.2905,-1.2905,-1.2905,-1.3522,-1.411,-1.4575,-1.4354,-1.4015,-1.3268,-1.1524,0.0,-0.9941,-0.8659,-0.8027,-0.7754,-0.7934,-0.8219,-0.8786,0.0,0.0,0.0,0.0,0.0,0.0,0.0,0.0,0.0,0.0,0.0,-1.9212,-1.9512,-1.9697,-1.9832,-1.9832,-2.0321,-2.0488,-2.0185,-2.0468,-2.0478,-2.0176,-2.0478,-2.0605,-2.0595,-2.0303,-2.0312,-2.0586,-2.0067,-2.0116,-2.0576,-2.0057,-1.9941,-2.0156,-1.9902,-1.9697,-1.9512,-1.9212,-1.9007,-1.8848,-1.8383,-1.8227,-1.8208,-1.8066,-1.8008,-1.8008,-1.8008,-1.8125,-1.8223,-1.8057,-1.8008,-1.8008,-1.8008,-1.8008,-1.8008,-1.8008,-1.8008,-1.8008,-1.8008,-1.8008,-1.8008,-1.8008,-1.7812,-1.751,-1.707,-1.6631,-1.6191,-1.5742,-1.5527,-1.541,-1.541,-1.541,-1.541,-1.541,-1.541,-1.541,-1.541,-1.541,-1.541,-1.541,-1.541,-1.5156,-1.4561,-1.4687,-1.4512,-1.388,-1.386,-1.386,-1.386,-1.3477,-1.3379,-1.3633,-1.3379,-1.3262,-1.3262,-1.3516,-1.3496,-1.3263,-1.3739,-1.4153,-1.4355,-1.3857,-1.2949,0.0,0.0,-0.9727,-0.8447,-0.7924,-0.7695,-0.7695,-0.7978,-0.8467,0.0,-0.9515,-1.0215,-1.1937,0.0,0.0,0.0,0.0,0.0,0.0,-1.8383,-1.8783,-1.9248,-1.9287,-1.9287,-1.9287,-1.9891,-2.0049,-1.9736,-2.0029,-2.0077,-1.9736,-2.0029,-2.0224,-2.0224,-1.9873,-1.9893,-2.0204,-1.9597,-1.9619,-2.0194,-1.9588,-1.9453,-1.9707,-1.9404,-1.9209,-1.9062,-1.8724,-1.8529,-1.8383,-1.8081,-1.8008,-1.8008,-1.8008,-1.8008,-1.8008,-1.8008,-1.8008,-1.8008,-1.8008,-1.8008,-1.8008,-1.8008,-1.8008,-1.8008,-1.8008,-1.8008,-1.8008,-1.8008,-1.8008,-1.8008,-1.8008,-1.7676,-1.7256,-1.6785,-1.6367,-1.5958,-1.5488,-1.541,-1.541,-1.541,-1.541,-1.541,-1.541,-1.541,-1.541,-1.541,-1.541,-1.541,-1.541,-1.541,-1.5234,-1.4842,-1.4902,-1.4775,-1.4319,-1.4299,-1.4299,-1.4299,-1.388,-1.3812,-1.4104,-1.3812,-1.3665,-1.3675,-1.3968,-1.4016,-1.2773,-1.348,-1.4007,-1.3623,-1.3203,-1.2455,0.0,-0.9961,-0.9242,-0.7968,-0.7705,-0.7695,-0.7695,-0.7705,-0.7993,-0.8867,-0.9338,-1.0215,-1.1937,0.0,0.0,0.0,0.0,0.0,0.0,-1.7857,-1.8783,-1.9248,-1.9287,-1.9287,-1.9287,-1.9297,-1.9297,-1.9297,-1.9297,-1.9297,-1.9297,-1.9297,-1.9297,-1.9297,-1.9297,-1.9297,-1.9297,-1.9287,-1.9287,-1.9297,-1.9287,-1.9287,-1.9297,-1.9287,-1.9033,-1.8607,-1.8598,-1.8344,-1.8018,-1.8008,-1.8008,-1.8008,-1.8008,-1.8008,-1.8008,-1.8008,-1.8008,-1.8008,-1.8008,-1.8008,-1.8008,-1.8008,-1.8008,-1.8008,-1.8008,-1.8008,-1.8008,-1.8008,-1.8008,-1.8008,-1.8008,-1.7676,-1.7256,-1.6785,-1.6367,-1.5958,-1.5488,-1.541,-1.541,-1.541,-1.541,-1.541,-1.541,-1.541,-1.541,-1.541,-1.541,-1.541,-1.541,-1.541,-1.5234,-1.4842,-1.5176,-1.5215,-1.4795,-1.4775,-1.4775,-1.4775,-1.4319,-1.4104,-1.4104,-1.4104,-1.4104,-1.4104,-1.4104,-1.4338,-1.1416,-1.1728,-1.1872,-1.1736,-1.1631,-1.1162,-0.9736,-0.9503,-0.9233,-0.7958,-0.7695,-0.7695,-0.7695,-0.7695,-0.8075,-0.9231,0.0,0.0,0.0,0.0,0.0,0.0,0.0,0.0,0.0,0.0,-1.8237,-1.8408,-1.8418,-1.8418,-1.8418,-1.8418,-1.8545,-1.8792,-1.9131,-1.915,-1.8812,-1.9141,-1.9287,-1.9287,-1.8984,-1.8994,-1.9268,-1.8682,-1.874,-1.9258,-1.8662,-1.8574,-1.8783,-1.8525,-1.833,-1.8178,-1.8178,-1.8091,-1.8008,-1.8008,-1.8008,-1.8008,-1.8008,-1.8008,-1.8008,-1.8008,-1.8008,-1.8008,-1.8008,-1.8008,-1.8008,-1.8008,-1.8008,-1.8008,-1.8008,-1.8008,-1.8008,-1.8008,-1.8008,-1.8008,-1.8008,-1.7441,-1.6863,-1.6726,-1.6133,-1.5566,-1.5439,-1.541,-1.541,-1.541,-1.541,-1.541,-1.541,-1.541,-1.541,-1.541,-1.541,-1.541,-1.541,-1.541,-1.5352,-1.5225,-1.5342,-1.5352,-1.5215,-1.5215,-1.5215,-1.5215,-1.4795,-1.4717,-1.4981,-1.4717,-1.4727,-1.4972,-1.4717,-1.4805,0.0,-1.043,-1.0674,-1.0674,-1.0527,-1.0157,-0.9219,-0.9065,-0.887,-0.789,-0.7695,-0.7695,-0.7695,-0.7695,-0.8065,-0.9192,0.0,0.0,0.0,0.0,0.0,0.0,0.0,0.0,0.0,-1.792,-1.8008,-1.8008,-1.8008,-1.8008,-1.8008,-1.8008,-1.8091,-1.8354,-1.8662,-1.8672,-1.8373,-1.8672,-1.8809,-1.8799,-1.8525,-1.8545,-1.8789,-1.8252,-1.8301,-1.8779,-1.8242,-1.812,0.0,-1.8081,-1.8008,-1.8008,-1.8008,-1.8008,-1.8008,-1.8008,-1.8008,-1.8008,-1.8008,-1.8008,-1.8008,-1.8008,-1.8008,-1.8008,-1.8008,-1.8008,-1.8008,-1.8008,-1.8008,-1.8008,-1.8008,-1.8008,-1.8008,-1.8008,-1.8008,-1.7969,-1.7812,-1.7227,-1.6648,-1.6514,-1.5898,-1.541,-1.541,-1.541,-1.541,-1.541,-1.541,-1.541,-1.541,-1.541,-1.541,-1.541,-1.541,-1.541,-1.541,-1.541,-1.541,-1.541,-1.541,-1.541,-1.541,-1.541,-1.541,-1.541,-1.5156,-1.5146,-1.541,-1.5146,-1.5156,-1.5371,-1.5146,-1.5156,0.0,-0.9404,-1.0068,-1.0038,-0.9727,-0.9318,-0.8899,-0.8581,0.0,-0.7759,-0.7676,-0.7715,-0.7783,-0.7763,-0.8071,-0.9033,0.0,0.0,0.0,0.0,0.0,0.0,0.0,0.0,-1.7393,-1.7783,-1.8008,-1.8008,-1.8008,-1.8008,-1.8008,-1.8008,-1.8008,-1.8008,-1.8008,-1.8008,-1.8008,-1.8008,-1.8008,-1.8008,-1.8008,-1.8008,-1.8008,-1.8008,-1.8008,-1.8008,-1.8008,-1.8008,-1.8008,-1.8008,-1.8008,-1.8008,-1.8008,-1.8008,-1.8008,-1.8008,-1.8008,-1.8008,-1.8008,-1.8008,-1.8008,-1.8008,-1.8008,-1.8008,-1.8008,-1.8008,-1.8008,-1.8008,-1.8008,-1.8008,-1.8008,-1.8008,-1.8008,-1.8008,-1.7988,-1.7852,-1.7471,-1.7021,-1.6562,-1.6173,-1.5703,-1.541,-1.541,-1.541,-1.541,-1.541,-1.541,-1.541,-1.541,-1.541,-1.541,-1.541,-1.541,-1.541,-1.541,-1.541,-1.541,-1.541,-1.541,-1.541,-1.541,-1.541,-1.541,-1.541,-1.541,-1.541,-1.541,-1.541,-1.541,-1.541,-1.541,-1.541,-0.6467,0.0,-0.7764,-0.7402,-0.751,-0.7564,0.0,-0.7457,0.0,0.0,0.0,-0.7915,-0.8568,-0.8437,-0.8845,0.0,0.0,0.0,0.0,0.0,0.0,0.0,0.0,-1.7754,-1.7852,-1.7949,-1.8008,-1.8008,-1.8008,-1.8008,-1.8008,-1.8008,-1.8008,-1.8008,-1.8008,-1.8008,-1.8008,-1.8008,-1.8008,-1.8008,-1.8008,-1.8008,-1.8008,-1.8008,-1.8008,-1.8008,-1.8008,-1.8008,-1.8008,-1.8008,-1.8008,-1.8008,-1.8008,-1.8008,-1.8008,-1.8008,-1.8008,-1.8008,-1.8008,-1.8008,-1.8008,-1.8008,-1.8008,-1.8008,-1.8008,-1.8008,-1.8008,-1.8008,-1.8008,-1.8008,-1.8008,-1.8008,-1.8008,-1.8008,-1.7764,-1.75,-1.7402,-1.6799,-1.6222,-1.6114,-1.5703,-1.541,-1.541,-1.541,-1.541,-1.541,-1.541,-1.541,-1.541,-1.541,-1.541,-1.541,-1.541,-1.541,-1.541,-1.541,-1.541,-1.541,-1.541,-1.541,-1.541,-1.541,-1.541,-1.541,-1.541,-1.541,-1.541,-1.541,-1.541,-1.541,-1.541,-1.541,-0.5479,-0.6404,-0.731,-0.7057,-0.7353,-0.7627,-0.7373,0.0,0.0,0.0,0.0,0.0,-0.8594,0.0,0.0,0.0,0.0,0.0,0.0,0.0,0.0,0.0,-1.7457,-1.8008,0.0,-1.8008,-1.8008,-1.8008,-1.8008,-1.8008,-1.8008,-1.8008,-1.8008,-1.8008,-1.8008,-1.8008,-1.8008,-1.8008,-1.8008,-1.8008,-1.8008,-1.8008,-1.8008,-1.8008,-1.8008,-1.8008,-1.8008,-1.8008,-1.8008,-1.8008,-1.8008,-1.8008,-1.8008,-1.8008,-1.8008,-1.8008,-1.8008,-1.8008,-1.8008,-1.8008,-1.8008,-1.8008,-1.8008,-1.8008,-1.8008,-1.8008,-1.8008,-1.8008,-1.8008,-1.8008,-1.8008,-1.8008,-1.8008,-1.8008,-1.7686,-1.7334,-1.7129,-1.6543,-1.6036,-1.5831,-1.5566,-1.541,-1.541,-1.541,-1.541,-1.541,-1.541,-1.541,-1.541,-1.541,-1.541,-1.541,-1.541,-1.541,-1.541,-1.541,-1.541,-1.541,-1.541,-1.541,-1.541,-1.541,-1.541,-1.541,-1.541,-1.541,-1.541,-1.541,-1.541,-1.541,-1.541,-1.541,-0.5263,-0.647,-0.7656,-0.7452,-0.7861,-0.8277,0.0,0.0,0.0,0.0,0.0,0.0,0.0,0.0,0.0,0.0,0.0,0.0,0.0,0.0,0.0,0.0,-1.7432,0.0,-1.791,-1.7969,-1.7978,-1.792,-1.7978,-1.8008,-1.8008,-1.8008,-1.8008,-1.8008,-1.8008,-1.8008,-1.8008,-1.8008,-1.8008,-1.8008,-1.8008,-1.8008,-1.8008,-1.8008,-1.8008,-1.8008,-1.8008,-1.8008,-1.8008,-1.8008,-1.8008,-1.8008,-1.8008,-1.8008,-1.8008,-1.8008,-1.8008,-1.8008,-1.8008,-1.8008,-1.8008,-1.8008,-1.8008,-1.8008,-1.8008,-1.8008,-1.8008,-1.8008,-1.8008,-1.8008,-1.8008,-1.8008,-1.8008,-1.8008,-1.7686,-1.7266,-1.6794,-1.6377,-1.5958,-1.5498,-1.541,-1.541,-1.541,-1.541,-1.541,-1.541,-1.541,-1.541,-1.541,-1.541,-1.541,-1.541,-1.541,-1.541,-1.541,-1.541,-1.541,-1.541,-1.541,-1.541,-1.541,-1.541,-1.541,-1.541,-1.541,-1.541,-1.541,-1.541,-1.541,-1.541,-1.541,-1.541,-0.6004,-0.694,-0.7433,-0.6369,-0.6963,-0.772,0.0,0.0,0.0,0.0,0.0,0.0,0.0,0.0,0.0,0.0,0.0,0.0,0.0,0.0,-1.5811,-1.6599,0.0,-1.748,-1.748,-1.7803,-1.7861,-1.751,-1.7812,-1.8008,-1.8008,-1.8008,-1.8008,-1.8008,-1.8008,-1.8008,-1.8008,-1.8008,-1.8008,-1.8008,-1.8008,-1.8008,-1.8008,-1.8008,-1.8008,-1.8008,-1.8008,-1.8008,-1.8008,-1.8008,-1.8008,-1.8008,-1.8008,-1.8008,-1.8008,-1.8008,-1.8008,-1.8008,-1.8008,-1.8008,-1.8008,-1.8008,-1.8008,-1.8008,-1.8008,-1.8008,-1.8008,-1.8008,-1.8008,-1.8008,-1.8008,-1.8008,-1.8008,-1.8008,-1.7686,-1.7266,-1.6794,-1.6377,-1.5958,-1.5498,-1.541,-1.541,-1.541,-1.541,-1.541,-1.541,-1.541,-1.541,-1.541,-1.541,-1.541,-1.541,-1.541,-1.541,-1.541,-1.541,-1.541,-1.541,-1.541,-1.541,-1.541,-1.541,-1.541,-1.541,-1.541,-1.541,-1.541,-1.541,-1.541,-1.541,-1.541,-1.541,-0.5584,-0.6521,-0.7232,-0.6653,-0.7812,-0.9062,0.0,0.0,0.0,0.0,0.0,0.0,0.0,0.0,0.0,0.0,0.0,-1.4551,-1.4784,-1.5352,-1.5918,0.0,0.0,-1.7031,-1.7031,-1.7207,-1.7204,-1.7051,-1.7174,-1.7291,-1.7291,-1.7291,-1.7291,-1.7291,-1.7291,-1.7432,-1.7666,-1.7676,-1.7783,-1.8008,-1.8008,-1.8008,-1.8008,-1.8008,-1.8008,-1.8008,-1.8008,-1.8008,-1.8008,-1.8008,-1.8008,-1.8008,-1.8008,-1.8008,-1.8008,-1.8008,-1.8008,-1.8008,-1.8008,-1.8008,-1.8008,-1.8008,-1.8008,-1.8008,-1.8008,-1.8008,-1.8008,-1.8008,-1.8008,-1.8008,-1.8008,-1.8008,-1.8008,-1.8008,-1.751,-1.6973,-1.6746,-1.6191,-1.5654,-1.5449,-1.541,-1.541,-1.541,-1.541,-1.541,-1.541,-1.541,-1.541,-1.541,-1.541,-1.541,-1.541,-1.541,-1.541,-1.541,-1.541,-1.541,-1.541,-1.541,-1.541,-1.541,-1.541,-1.541,-1.541,-1.541,-1.541,-1.541,-1.541,-1.541,-1.541,-1.541,-1.541,-0.5351,-0.6238,-0.7148,0.0,0.0,0.0,0.0,0.0,0.0,0.0,0.0,0.0,0.0,0.0,0.0,0.0,0.0,-1.4814,-1.4922,-1.5527,-1.5977,-1.6085,-1.6367,-1.6541,-1.6541,-1.6638,-1.6658,-1.6582,-1.6638,-1.6697,-1.6697,-1.6697,-1.6697,-1.6697,-1.6697,-1.6863,-1.7227,-1.7227,-1.7441,-1.7861,-1.7861,-1.7812,-1.7715,-1.7812,-1.7861,-1.7871,-1.7969,-1.8008,-1.8008,-1.8008,-1.8008,-1.8008,-1.8008,-1.8008,-1.8008,-1.8008,-1.8008,-1.8008,-1.8008,-1.8008,-1.8008,-1.8008,-1.8008,-1.8008,-1.8008,-1.8008,-1.8008,-1.8008,-1.7939,-1.7881,-1.7988,-1.7939,-1.7861,-1.7861,-1.7285,-1.6668,-1.657,-1.6045,-1.5537,-1.543,-1.541,-1.541,-1.541,-1.541,-1.541,-1.541,-1.541,-1.541,-1.541,-1.541,-1.541,-1.541,-1.541,-1.541,-1.541,-1.541,-1.541,-1.541,-1.541,-1.541,-1.541,-1.541,-1.541,-1.541,-1.541,-1.541,-1.541,-1.541,-1.541,-1.541,-1.541,-1.541,-0.6092,-0.6699,-0.7295,-0.8101,0.0,0.0,0.0,0.0,0.0,0.0,0.0,0.0,0.0,0.0,0.0,0.0,-1.4473,-1.4922,-1.5312,0.0,-1.5605,-1.6046,-1.6124,-1.6144,-1.6144,-1.6484,-1.6562,-1.6173,-1.6494,-1.6697,-1.6697,-1.6697,-1.6697,-1.6697,-1.6697,-1.6716,-1.6746,-1.6746,-1.697,-1.7432,-1.7432,-1.7217,-1.6804,-1.7246,-1.7432,-1.7451,-1.7842,-1.8008,-1.8008,-1.8008,-1.8008,-1.8008,-1.8008,-1.8008,-1.8008,-1.8008,-1.8008,-1.8008,-1.8008,-1.8008,-1.8008,-1.8008,-1.8008,-1.8008,-1.8008,-1.8008,-1.8008,-1.8008,-1.7734,-1.7519,-1.791,-1.7715,-1.7432,-1.7432,-1.707,-1.659,-1.6232,-1.6095,-1.5928,-1.5488,-1.541,-1.541,-1.541,-1.541,-1.541,-1.541,-1.541,-1.541,-1.541,-1.541,-1.541,-1.541,-1.541,-1.541,-1.541,-1.541,-1.541,-1.541,-1.541,-1.541,-1.541,-1.541,-1.541,-1.541,-1.541,-1.541,-1.541,-1.541,-1.541,-1.541,-1.541,-1.541,-0.5506,-0.6521,-0.7554,-0.7876,0.0,0.0,0.0,0.0,0.0,0.0,0.0,0.0,0.0,0.0,0.0,0.0,-1.4502,-1.4932,-1.5352,-1.541,-1.5469,-1.5635,-1.5654,-1.5654,-1.5654,-1.5811,-1.584,-1.5674,-1.582,-1.5878,-1.5878,-1.5878,-1.5878,-1.5878,-1.5878,-1.6045,-1.6309,-1.6318,-1.6427,-1.6594,-1.6846,-1.6863,-1.6707,-1.6872,-1.695,-1.695,-1.7116,-1.7184,-1.7204,-1.751,-1.7461,-1.7213,-1.7519,-1.7627,-1.7656,-1.791,-1.8008,-1.8008,-1.8008,-1.7842,-1.7627,-1.7627,-1.7627,-1.7568,-1.7262,-1.7402,-1.7568,-1.7262,-1.7067,-1.708,-1.751,-1.7305,-1.695,-1.695,-1.6641,-1.63,-1.6134,-1.588,-1.5605,-1.5439,-1.541,-1.541,-1.541,-1.541,-1.541,-1.541,-1.541,-1.541,-1.541,-1.541,-1.541,-1.541,-1.541,-1.541,-1.541,-1.541,-1.541,-1.541,-1.541,-1.541,-1.541,-1.541,-1.541,-1.541,-1.541,-1.541,-1.541,-1.541,-1.541,-1.541,-1.541,-1.541,-0.5322,-0.6394,-0.7574,0.0,0.0,0.0,0.0,0.0,0.0,0.0,0.0,0.0,0.0,0.0,0.0,0.0,-1.4502,-1.4932,-1.5352,-1.541,-1.541,-1.541,-1.541,-1.541,-1.541,-1.541,-1.541,-1.541,-1.541,-1.541,-1.541,-1.541,-1.541,-1.541,-1.541,-1.5557,-1.5889,-1.5889,-1.5889,-1.5889,-1.6172,-1.6287,-1.6287,-1.6455,-1.6523,-1.6533,-1.6638,-1.6697,-1.6726,-1.7051,-1.7002,-1.6726,-1.7061,-1.7178,-1.7207,-1.75,-1.7574,-1.7574,-1.7574,-1.7422,-1.7178,-1.7178,-1.7178,-1.7119,-1.6794,-1.6911,-1.7119,-1.6785,-1.6599,-1.6592,-1.6917,-1.6748,-1.6523,-1.6523,-1.6182,-1.5889,-1.5889,-1.5625,-1.541,-1.541,-1.541,-1.541,-1.541,-1.541,-1.541,-1.541,-1.541,-1.541,-1.541,-1.541,-1.541,-1.541,-1.541,-1.541,-1.541,-1.541,-1.541,-1.541,-1.541,-1.541,-1.541,-1.541,-1.541,-1.541,-1.541,-1.541,-1.541,-1.541,-1.541,-1.541,-1.541,-1.541,-0.5803,-0.6448,0.0,0.0,0.0,0.0,0.0,0.0,0.0,0.0,0.0,0.0,0.0,0.0,0.0,-1.4046,-1.4502,-1.4932,-1.5352,-1.541,-1.541,-1.541,-1.541,-1.541,-1.541,-1.541,-1.541,-1.541,-1.541,-1.541,-1.541,-1.541,-1.541,-1.541,-1.541,-1.541,-1.541,-1.541,-1.541,-1.541,-1.541,-1.541,-1.543,-1.5889,-1.6085,-1.6114,-1.6523,-1.6687,-1.6687,-1.6687,-1.6687,-1.6697,-1.6697,-1.6697,-1.6697,-1.6697,-1.6697,-1.6697,-1.6697,-1.6697,-1.6697,-1.6697,-1.6697,-1.6697,-1.6687,-1.6687,-1.6697,-1.6687,-1.6396,-1.6085,-1.6085,-1.6085,-1.6085,-1.6085,-1.5723,-1.541,-1.541,-1.541,-1.541,-1.541,-1.541,-1.541,-1.541,-1.541,-1.541,-1.541,-1.541,-1.541,-1.541,-1.541,-1.541,-1.541,-1.541,-1.541,-1.541,-1.541,-1.541,-1.541,-1.541,-1.541,-1.541,-1.541,-1.541,-1.541,-1.541,-1.541,-1.541,-1.541,-1.541,-1.541,-1.541,-1.541,-0.5803,0.0,0.0,0.0,0.0,0.0,0.0,0.0,0.0,0.0,0.0,0.0,0.0,0.0,0.0,-1.4473,-1.4697,-1.4932,-1.5352,-1.541,-1.541,-1.541,-1.541,-1.541,-1.541,-1.541,-1.541,-1.541,-1.541,-1.541,-1.541,-1.541,-1.541,-1.541,-1.541,-1.541,-1.541,-1.541,-1.541,-1.541,-1.541,-1.541,-1.5391,-1.5547,-1.5605,-1.5615,-1.5712,-1.5801,-1.5801,-1.5801,-1.5986,-1.629,-1.629,-1.629,-1.6299,-1.659,-1.6697,-1.6697,-1.6697,-1.6523,-1.629,-1.629,-1.629,-1.6201,-1.5898,-1.6016,-1.6201,-1.5889,-1.5703,-1.5605,-1.5605,-1.5605,-1.5605,-1.5605,-1.5508,-1.541,-1.541,-1.541,-1.541,-1.541,-1.541,-1.541,-1.541,-1.541,-1.541,-1.541,-1.541,-1.541,-1.541,-1.541,-1.541,-1.541,-1.541,-1.541,-1.541,-1.541,-1.541,-1.541,-1.541,-1.541,-1.541,-1.541,-1.541,-1.541,-1.541,-1.541,-1.541,-1.541,-1.541,-1.541,-1.541,-1.541,-0.6455,0.0,0.0,0.0,0.0,0.0,0.0,0.0,0.0,0.0,0.0,0.0,0.0,-1.3506,0.0,-1.4189,-1.4414,-1.4619,-1.4835,-1.4874,-1.4874,-1.4874,-1.5059,-1.5156,-1.5156,-1.5312,-1.541,-1.541,-1.541,-1.541,-1.541,-1.541,-1.541,-1.541,-1.541,-1.541,-1.541,-1.541,-1.541,-1.541,-1.541,-1.541,-1.541,-1.541,-1.541,-1.541,-1.541,-1.541,-1.541,-1.541,-1.5566,-1.5831,-1.5831,-1.5831,-1.584,-1.6073,-1.618,-1.618,-1.618,-1.6025,-1.5831,-1.5831,-1.5831,-1.5782,-1.5488,-1.5596,-1.5752,-1.5488,-1.541,-1.541,-1.541,-1.541,-1.541,-1.541,-1.541,-1.541,-1.541,-1.541,-1.541,-1.541,-1.541,-1.541,-1.541,-1.541,-1.541,-1.541,-1.541,-1.541,-1.541,-1.541,-1.541,-1.541,-1.541,-1.541,-1.541,-1.541,-1.541,-1.541,-1.541,-1.541,-1.541,-1.541,-1.541,-1.541,-1.541,-1.541,-1.541,-1.541,-1.541,-1.541,-1.541,-1.541,0.0,0.0,0.0,0.0,0.0,0.0,0.0,0.0,0.0,0.0,0.0,0.0,-1.3428,-1.3506,-1.3516,-1.3555,-1.386,-1.4104,-1.4104,-1.4104,-1.4104,-1.4104,-1.4482,-1.4727,-1.4727,-1.5078,-1.5322,-1.538,-1.538,-1.5408,-1.5456,-1.5408,-1.5408,-1.5456,-1.5408,-1.538,-1.538,-1.5419,-1.5409,-1.5352,-1.5391,-1.541,-1.541,-1.541,-1.541,-1.541,-1.541,-1.541,-1.541,-1.541,-1.541,-1.541,-1.541,-1.541,-1.541,-1.541,-1.541,-1.541,-1.541,-1.541,-1.541,-1.541,-1.541,-1.541,-1.541,-1.541,-1.541,-1.541,-1.541,-1.541,-1.541,-1.541,-1.541,-1.541,-1.541,-1.541,-1.541,-1.541,-1.541,-1.541,-1.541,-1.541,-1.541,-1.541,-1.541,-1.541,-1.541,-1.541,-1.541,-1.541,-1.541,-1.541,-1.541,-1.541,-1.541,-1.541,-1.541,-1.541,-1.541,-1.541,-1.541,-1.541,-1.541,-1.541,-1.541,-1.541,-1.541,-1.541,-1.541,-1.541,-1.541,-1.541,0.0,0.0,0.0,0.0,0.0,0.0,0.0,0.0,0.0,0.0,0.0,-1.3008,-1.3428,-1.3506,-1.3588,-1.3919,-1.4046,-1.4104,-1.4104,-1.4104,-1.4104,-1.4104,-1.4192,-1.425,-1.425,-1.4328,-1.4594,-1.5106,-1.5159,-1.5362,-1.5857,-1.5415,-1.5389,-1.5857,-1.5415,-1.5159,-1.5159,-1.5482,-1.5406,-1.4922,-1.5254,-1.541,-1.541,-1.541,-1.541,-1.541,-1.541,-1.541,-1.541,-1.541,-1.541,-1.541,-1.541,-1.541,-1.541,-1.541,-1.541,-1.541,-1.541,-1.541,-1.541,-1.541,-1.541,-1.541,-1.541,-1.541,-1.541,-1.541,-1.541,-1.541,-1.541,-1.541,-1.541,-1.541,-1.541,-1.541,-1.541,-1.541,-1.541,-1.541,-1.541,-1.541,-1.541,-1.541,-1.541,-1.541,-1.541,-1.541,-1.541,-1.541,-1.541,-1.541,-1.541,-1.541,-1.541,-1.541,-1.541,-1.541,-1.541,-1.541,-1.541,-1.541,-1.541,-1.541,-1.541,-1.541,-1.541,-1.541,-1.541,-1.541,-1.541,-1.541,0.0,0.0,0.0,0.0,0.0,0.0,0.0,0.0,0.0,0.0,0.0,-1.2949,-1.3164,-1.3203,-1.3372,-1.3872,-1.3952,-1.3952,-1.3952,-1.4204,-1.4279,-1.3978,-1.4389,-1.4665,-1.4665,-1.4624,-1.4835,-1.5474,-1.5252,-1.5356,-1.5963,-1.5694,-1.5669,-1.5989,-1.5694,-1.5526,-1.5526,-1.5736,-1.5696,-1.5388,-1.56,-1.555,-1.526,-1.5368,-1.5584,-1.5921,-1.5555,-1.541,-1.541,-1.541,-1.541,-1.541,-1.541,-1.541,-1.541,-1.541,-1.541,-1.541,-1.541,-1.541,-1.541,-1.541,-1.541,-1.541,-1.541,-1.541,-1.541,-1.541,-1.541,-1.541,-1.541,-1.541,-1.541,-1.541,-1.541,-1.541,-1.541,-1.541,-1.541,-1.541,-1.541,-1.541,-1.541,-1.541,-1.541,-1.541,-1.541,-1.541,-1.541,-1.541,-1.541,-1.541,-1.541,-1.541,-1.541,-1.541,-1.541,-1.541,-1.541,-1.541,-1.541,-1.541,-1.541,-1.541,-1.541,-1.541,-1.541,-1.541,-1.541,-1.541,-1.541,-1.541,0.0,0.0,0.0,0.0,0.0,0.0,0.0,0.0,0.0,0.0,-1.2905,-1.2905,-1.2905,-1.2905,-1.3113,-1.3708,-1.3792,-1.3849,-1.3933,-1.4376,-1.4514,-1.4003,-1.4692,-1.5196,-1.5196,-1.5103,-1.5279,-1.5883,-1.548,-1.5455,-1.6056,-1.5982,-1.5982,-1.6081,-1.5982,-1.5933,-1.5933,-1.5997,-1.5992,-1.5881,-1.597,-1.5745,-1.5284,-1.5338,-1.5654,-1.618,-1.5632,-1.541,-1.541,-1.541,-1.541,-1.541,-1.541,-1.541,-1.541,-1.541,-1.541,-1.541,-1.541,-1.541,-1.541,-1.541,-1.541,-1.541,-1.541,-1.541,-1.541,-1.541,-1.541,-1.541,-1.541,-1.541,-1.541,-1.541,-1.541,-1.541,-1.541,-1.541,-1.541,-1.541,-1.541,-1.541,-1.541,-1.541,-1.541,-1.541,-1.541,-1.541,-1.541,-1.541,-1.541,-1.541,-1.541,-1.541,-1.541,-1.541,-1.541,-1.541,-1.541,-1.541,-1.541,-1.541,-1.541,-1.541,-1.541,-1.541,-1.541,-1.541,-1.541,-1.541,-1.5526,-1.5584,0.0,0.0,0.0,0.0,0.0,0.0,0.0,0.0,0.0,0.0,-1.2905,-1.2905,-1.2905,-1.2905,-1.3113,-1.3708,-1.3792,-1.398,-1.4514,-1.4652,-1.4675,-1.4583,-1.4685,-1.4776,-1.4776,-1.4762,-1.5004,-1.561,-1.5576,-1.5802,-1.6394,-1.5948,-1.5891,-1.6416,-1.5926,-1.5655,-1.5655,-1.6068,-1.5982,-1.5395,-1.5803,-1.6025,-1.6036,-1.5405,-1.5111,-1.5051,-1.5283,-1.541,-1.541,-1.541,-1.541,-1.541,-1.541,-1.541,-1.541,-1.541,-1.541,-1.541,-1.541,-1.541,-1.541,-1.541,-1.541,-1.541,-1.541,-1.541,-1.541,-1.541,-1.541,-1.541,-1.541,-1.541,-1.541,-1.541,-1.541,-1.541,-1.541,-1.541,-1.541,-1.541,-1.541,-1.541,-1.541,-1.541,-1.541,-1.541,-1.541,-1.541,-1.541,-1.541,-1.541,-1.541,-1.541,-1.541,-1.541,-1.541,-1.541,-1.541,-1.541,-1.541,-1.541,-1.541,-1.541,-1.541,-1.541,-1.541,-1.541,-1.541,-1.541,-1.541,-1.6065,-1.634,0.0,0.0,0.0,0.0,0.0,0.0,0.0,0.0,0.0,-1.3396,-1.3671,-1.3705,-1.3017,-1.2905,-1.32,-1.4154,-1.4306,-1.4514,-1.5118,-1.5488,-1.5589,-1.5231,-1.5488,-1.57,-1.57,-1.5399,-1.5454,-1.6051,-1.5798,-1.5864,-1.6466,-1.6238,-1.6238,-1.65,-1.6238,-1.6095,-1.6095,-1.6308,-1.6262,-1.5967,-1.6182,-1.6127,-1.5869,-1.5796,-1.5488,-1.5036,-1.5059,-1.5304,-1.5698,-1.5924,-1.6255,-1.6574,-1.6169,-1.6007,-1.5979,-1.5555,-1.541,-1.541,-1.541,-1.541,-1.541,-1.541,-1.541,-1.541,-1.541,-1.541,-1.541,-1.541,-1.541,-1.541,-1.541,-1.5719,-1.6007,-1.6007,-1.633,-1.6631,-1.6631,-1.5997,-1.541,-1.541,-1.541,-1.541,-1.541,-1.541,-1.541,-1.541,-1.5748,-1.6007,-1.6007,-1.6397,-1.6472,-1.6065,-1.6007,-1.5864,-1.5439,-1.541,-1.5584,-1.5979,-1.6007,-1.6197,-1.6602,-1.6631,-1.6631,-1.6631,-1.5825,-1.541,-1.541,-1.5806,-1.6007,-1.6036,-1.6782,-1.7118,0.0,0.0,0.0,0.0,0.0,0.0,0.0,0.0,0.0,0.0,-1.4288,-1.4433,-1.3525,-1.3368,-1.3705,-1.4766,-1.4926,-1.5141,-1.5754,-1.6216,-1.6324,-1.5886,-1.6238,-1.65,-1.65,-1.6095,-1.603,-1.6466,-1.6073,-1.603,-1.6479,-1.65,-1.65,-1.65,-1.65,-1.65,-1.65,-1.65,-1.65,-1.65,-1.65,-1.6194,-1.5622,-1.5947,-1.5736,-1.5071,-1.5108,-1.5328,-1.5726,-1.6116,-1.6528,-1.6834,-1.6412,-1.6208,-1.6151,-1.5613,-1.541,-1.5439,-1.5604,-1.5555,-1.5439,-1.5613,-1.569,-1.5633,-1.5468,-1.5661,-1.5911,-1.5719,-1.5796,-1.5968,-1.5968,-1.6368,-1.6793,-1.6793,-1.7191,-1.7605,-1.7605,-1.6743,-1.5911,-1.5729,-1.569,-1.5613,-1.5439,-1.541,-1.5468,-1.5642,-1.6151,-1.6567,-1.6765,-1.7246,-1.7385,-1.6838,-1.6793,-1.6567,-1.5997,-1.5968,-1.6197,-1.6736,-1.6793,-1.7034,-1.7578,-1.7605,-1.7605,-1.7605,-1.6528,-1.5968,-1.5968,-1.651,-1.6793,-1.6782,-1.755,-1.7879,0.0,0.0,0.0,0.0,0.0,0.0,0.0,0.0,0.0,-1.3784,-1.4328,-1.4675,-1.4617,-1.4617,-1.4812,-1.5454,-1.5543,-1.5764,-1.638,-1.6466,-1.65,-1.6457,-1.6466,-1.65,-1.65,-1.6466,-1.6466,-1.65,-1.6466,-1.6466,-1.65,-1.65,-1.65,-1.65,-1.65,-1.65,-1.65,-1.65,-1.65,-1.65,-1.65,-1.6194,-1.561,-1.5634,-1.5311,-1.4763,-1.5587,-1.5635,-1.518,-1.5575,-1.5443,-1.4994,-1.5311,-1.5468,-1.5439,-1.541,-1.541,-1.5497,-1.6208,-1.5979,-1.5526,-1.6208,-1.6436,-1.6322,-1.5613,-1.6386,-1.733,-1.6652,-1.695,-1.7495,-1.7495,-1.7523,-1.755,-1.755,-1.7578,-1.7605,-1.7605,-1.755,-1.7274,-1.6567,-1.6436,-1.6208,-1.5526,-1.541,-1.5642,-1.635,-1.6492,-1.6765,-1.744,-1.7578,-1.7578,-1.755,-1.755,-1.7523,-1.7495,-1.7495,-1.7495,-1.755,-1.755,-1.755,-1.7605,-1.7605,-1.7605,-1.7605,-1.7523,-1.7495,-1.7495,-1.7523,-1.755,-1.755,-1.8313,-1.8635,0.0,0.0,0.0,0.0,0.0,0.0,0.0,0.0,-1.3361,-1.4296,-1.495,-1.5336,-1.5284,-1.4971,-1.4903,-1.5499,-1.561,-1.582,-1.6423,-1.65,-1.65,-1.65,-1.65,-1.65,-1.65,-1.65,-1.65,-1.65,-1.65,-1.65,-1.65,-1.65,-1.65,-1.65,-1.65,-1.65,-1.65,-1.65,-1.65,-1.65,-1.65,-1.638,-1.6194,-1.6194,-1.6064,-1.5856,-1.6185,-1.5951,-1.5381,-1.5836,-1.6114,-1.6219,-1.6271,-1.6505,-1.6743,-1.6283,-1.6415,-1.6856,-1.7107,-1.7024,-1.6856,-1.7107,-1.7202,-1.7174,-1.6884,-1.7191,-1.755,-1.7274,-1.7385,-1.7605,-1.7605,-1.795,-1.8421,-1.89,-1.9006,-1.9006,-1.9006,-1.8274,-1.7523,-1.7246,-1.681,-1.6436,-1.6151,-1.6122,-1.6208,-1.6464,-1.7302,-1.8004,-1.8274,-1.8715,-1.8821,-1.8367,-1.8313,-1.8124,-1.7633,-1.7605,-1.7786,-1.8286,-1.8313,-1.8528,-1.8992,-1.9006,-1.9006,-1.9006,-1.9006,-1.8555,-1.7605,-1.8085,-1.8313,-1.8328,-1.9071,-1.9397,0.0,0.0,0.0,0.0,0.0,0.0,0.0,0.0,-1.294,-1.4045,-1.4896,-1.5416,-1.5377,-1.5033,-1.5022,-1.5794,-1.5908,-1.603,-1.6445,-1.65,-1.65,-1.65,-1.65,-1.65,-1.65,-1.65,-1.65,-1.65,-1.65,-1.65,-1.65,-1.65,-1.65,-1.65,-1.65,-1.65,-1.65,-1.65,-1.65,-1.65,-1.65,-1.65,-1.65,-1.65,-1.65,-1.65,-1.6281,-1.5958,-1.5578,-1.6045,-1.6296,-1.6434,-1.6513,-1.6744,-1.7006,-1.6504,-1.6629,-1.7109,-1.7534,-1.7537,-1.7409,-1.7823,-1.7977,-1.7934,-1.7688,-1.7961,-1.8286,-1.8031,-1.814,-1.8328,-1.8328,-1.8688,-1.9202,-1.9683,-1.9798,-1.9798,-1.9798,-1.9044,-1.8259,-1.8015,-1.7578,-1.7174,-1.6922,-1.6866,-1.695,-1.7191,-1.807,-1.8794,-1.9044,-1.9501,-1.9618,-1.9123,-1.9071,-1.8874,-1.8382,-1.8328,-1.8555,-1.9044,-1.9071,-1.9281,-1.9773,-1.9798,-1.9798,-1.9798,-1.9798,-1.9307,-1.8328,-1.8821,-1.9071,-1.9097,-1.9553,-1.9798,0.0,0.0,0.0,0.0,0.0,0.0,0.0,0.0,-1.1912,-1.2937,-1.4048,-1.4833,-1.4878,-1.4884,-1.5248,-1.6274,-1.6463,-1.6475,-1.65,-1.65,-1.65,-1.65,-1.65,-1.65,-1.65,-1.65,-1.65,-1.65,-1.65,-1.65,-1.65,-1.65,-1.65,-1.65,-1.65,-1.65,-1.65,-1.65,-1.65,-1.65,-1.65,-1.65,-1.65,-1.65,-1.65,-1.6466,-1.5886,-1.5632,-1.5645,-1.6113,-1.5891,-1.535,-1.5828,-1.6028,-1.6039,-1.6039,-1.6039,-1.6233,-1.7475,-1.7444,-1.7066,-1.8289,-1.8694,-1.8561,-1.7845,-1.8638,-1.9619,-1.8927,-1.9254,-1.9798,-1.9798,-1.9798,-1.9798,-1.9798,-1.9798,-1.9798,-1.9798,-1.9798,-1.9579,-1.8874,-1.8715,-1.8474,-1.777,-1.7633,-1.7879,-1.8581,-1.8715,-1.8992,-1.9721,-1.9798,-1.9798,-1.9798,-1.9798,-1.9798,-1.9798,-1.9798,-1.9798,-1.9798,-1.9798,-1.9798,-1.9798,-1.9798,-1.9798,-1.9798,-1.9798,-1.9798,-1.9798,-1.9798,-1.9798,-1.9798,-1.9798,-1.9798,-0.6236,0.0,0.0,0.0,0.0,0.0,0.0,0.0,-1.0247,-1.1748,-1.2605,-1.335,-1.4173,-1.4639,-1.4997,-1.5299,-1.5668,-1.607,-1.6437,-1.65,-1.65,-1.65,-1.65,-1.65,-1.65,-1.65,-1.65,-1.65,-1.65,-1.65,-1.65,-1.65,-1.65,-1.65,-1.65,-1.65,-1.65,-1.65,-1.65,-1.65,-1.65,-1.65,-1.65,-1.65,-1.65,-1.65,-1.6315,-1.6238,-1.6228,-1.5922,-1.5591,-1.5365,-1.598,-1.6451,-1.6814,-1.6814,-1.712,-1.7642,-1.7982,-1.7983,-1.7861,-1.8216,-1.8339,-1.8363,-1.8569,-1.8894,-1.9271,-1.9454,-1.9631,-1.9798,-1.9798,-1.9798,-1.9798,-1.9798,-1.9798,-1.9798,-1.9798,-1.9798,-1.9747,-1.9527,-1.9059,-1.8635,-1.8421,-1.8394,-1.8463,-1.8661,-1.915,-1.9553,-1.9773,-1.9798,-1.9798,-1.9798,-1.9798,-1.9798,-1.9798,-1.9798,-1.9798,-1.9798,-1.9798,-1.9798,-1.9798,-1.9798,-1.9798,-1.9798,-1.9798,-1.9798,-1.9798,-1.9798,-1.9798,-1.9798,-1.9798,-1.9798,0.0,0.0,0.0,0.0,0.0,0.0,-0.8162,-0.8537,-0.9177,0.0,-1.1324,-1.1977,-1.2889,-1.33,-1.3677,-1.4111,-1.4444,-1.494,-1.5718,-1.6032,-1.617,-1.617,-1.635,-1.65,-1.65,-1.65,-1.65,-1.65,-1.65,-1.65,-1.65,-1.65,-1.65,-1.65,-1.65,-1.65,-1.65,-1.65,-1.65,-1.65,-1.65,-1.65,-1.65,-1.65,-1.65,-1.65,-1.65,-1.65,-1.6466,-1.6117,-1.5912,-1.5845,-1.6235,-1.6564,-1.6842,-1.6842,-1.712,-1.7539,-1.7777,-1.7865,-1.7903,-1.8129,-1.8204,-1.8267,-1.8556,-1.8657,-1.8719,-1.9045,-1.9133,-1.9183,-1.9422,-1.9472,-1.9509,-1.9748,-1.9798,-1.9798,-1.9798,-1.9798,-1.9798,-1.9798,-1.9449,-1.915,-1.915,-1.915,-1.915,-1.915,-1.9527,-1.9798,-1.9798,-1.9798,-1.9798,-1.9798,-1.9798,-1.9798,-1.9798,-1.9798,-1.9798,-1.9798,-1.9798,-1.9798,-1.9798,-1.9798,-1.9798,-1.9798,-1.9798,-1.9798,-1.9798,-1.9798,-1.9798,-1.9798,-1.9798,-1.9798,0.0,0.0,0.0,0.0,-0.7939,0.0,-0.8049,-0.8211,-0.8562,0.0,-1.0056,-1.062,-1.1213,-1.1427,-1.1814,-1.276,-1.3023,-1.3529,-1.4733,-1.5311,-1.5605,-1.5605,-1.6032,-1.6312,-1.6312,-1.6312,-1.6312,-1.6312,-1.6375,-1.6437,-1.65,-1.65,-1.65,-1.65,-1.65,-1.65,-1.65,-1.65,-1.65,-1.65,-1.65,-1.65,-1.65,-1.65,-1.65,-1.65,-1.65,-1.65,-1.65,-1.65,-1.65,-1.65,-1.65,-1.65,-1.65,-1.65,-1.65,-1.6575,-1.7099,-1.731,-1.7363,-1.7852,-1.8016,-1.8028,-1.8091,-1.8116,-1.8129,-1.8191,-1.8204,-1.8317,-1.8782,-1.8907,-1.9045,-1.9585,-1.971,-1.9736,-1.9798,-1.9798,-1.9798,-1.9798,-1.9798,-1.9798,-1.9798,-1.9798,-1.9798,-1.9798,-1.9798,-1.9798,-1.9798,-1.9798,-1.9798,-1.9798,-1.9798,-1.9798,-1.9798,-1.9798,-1.9798,-1.9798,-1.9798,-1.9798,-1.9798,-1.9798,-1.9798,-1.9798,-1.9798,-1.9798,-1.9798,-1.9798,-1.9798,-1.9798,-1.9798,-1.9798,-0.8238,-0.8437,-0.8575,-0.7766,-0.8502,0.0,-0.731,-0.7636,-0.8225,0.0,-0.8352,-0.8939,-0.9478,-1.0295,-1.0946,-1.1144,-1.1961,-1.309,-1.467,-1.4984,-1.506,-1.506,-1.5148,-1.5211,-1.5211,-1.5211,-1.5211,-1.5211,-1.5605,-1.6045,-1.6475,-1.65,-1.65,-1.65,-1.65,-1.65,-1.65,-1.65,-1.65,-1.65,-1.65,-1.65,-1.65,-1.65,-1.65,-1.65,-1.65,-1.65,-1.65,-1.65,-1.65,-1.65,-1.65,-1.65,-1.65,-1.65,-1.65,-1.6513,-1.6626,-1.6685,-1.6688,-1.6789,-1.6826,-1.6914,-1.74,-1.7574,-1.7662,-1.8078,-1.8204,-1.8229,-1.8342,-1.8367,-1.8481,-1.902,-1.9158,-1.9271,-1.971,-1.9798,-1.9798,-1.9798,-1.9798,-1.9798,-1.9798,-1.9798,-1.9798,-1.9798,-1.9798,-1.9798,-1.9798,-1.9798,-1.9798,-1.9798,-1.9798,-1.9798,-1.9798,-1.9798,-1.9798,-1.9798,-1.9798,-1.9798,-1.9798,-1.9798,-1.9798,-1.9798,-1.9798,-1.9798,-1.9798,-1.9798,-1.9798,-1.9798,-1.9798,-1.9798,-0.885,-0.8888,-0.9026,-0.8727,-0.9065,0.0,0.0,-0.7849,-0.8001,-0.854,-0.8227,-0.8187,-0.9302,-0.973,-0.9993,-1.0256,-1.1008,-1.1848,-1.2693,-1.3534,-1.4149,-1.4475,-1.45,-1.4614,-1.4859,-1.4896,-1.4896,-1.4896,-1.5148,-1.5424,-1.568,-1.5957,-1.6107,-1.6107,-1.635,-1.65,-1.65,-1.65,-1.65,-1.65,-1.65,-1.65,-1.65,-1.65,-1.65,-1.65,-1.65,-1.65,-1.65,-1.65,-1.65,-1.65,-1.65,-1.65,-1.65,-1.65,-1.65,-1.65,-1.65,-1.65,-1.65,-1.65,-1.65,-1.655,-1.6861,-1.6948,-1.7011,-1.7287,-1.734,-1.7426,-1.7714,-1.779,-1.794,-1.8456,-1.8594,-1.8657,-1.8945,-1.9007,-1.9007,-1.9007,-1.9007,-1.9171,-1.971,-1.9798,-1.9798,-1.9798,-1.9798,-1.9798,-1.9798,-1.9798,-1.9798,-1.9798,-1.9798,-1.9798,-1.9798,-1.9798,-1.9798,-1.9798,-1.9798,-1.9798,-1.9798,-1.9798,-1.9798,-1.9798,-1.9547,-1.9384,-1.9384,-1.9145,-1.9284,-1.9798,-1.9798,-1.9798,-0.973,-0.9667,-0.9767,-0.9868,-0.9818,-0.9591,0.0,0.0,0.0,-0.9366,-0.8515,0.0,0.0,0.0,0.0,-0.9529,0.0,0.0,0.0,-1.1648,-1.2776,-1.338,-1.3544,-1.3821,-1.4368,-1.4337,-1.4412,-1.4727,-1.4532,-1.4557,-1.4871,-1.5311,-1.558,-1.5693,-1.6132,-1.6387,-1.65,-1.65,-1.65,-1.65,-1.65,-1.65,-1.65,-1.65,-1.65,-1.65,-1.65,-1.65,-1.65,-1.65,-1.65,-1.65,-1.65,-1.65,-1.65,-1.65,-1.65,-1.65,-1.65,-1.65,-1.65,-1.65,-1.65,-1.65,-1.65,-1.65,-1.65,-1.65,-1.65,-1.66,-1.7099,-1.7234,-1.7363,-1.7915,-1.8053,-1.8078,-1.8179,-1.8204,-1.8204,-1.8204,-1.8204,-1.8518,-1.9484,-1.966,-1.9685,-1.9786,-1.9798,-1.9798,-1.9798,-1.9798,-1.9798,-1.9798,-1.9798,-1.9798,-1.9798,-1.9798,-1.9761,-1.966,-1.9748,-1.971,-1.9497,-1.9497,-1.9547,-1.9648,-1.9108,-1.8845,-1.8845,-1.8417,-1.8706,-1.966,-1.966,-1.971,0.0,-1.1663,-1.1673,-1.0257,-1.0973,-1.1387,-0.8951,0.0,-0.9403,-0.8637,0.0,0.0,0.0,0.0,0.0,0.0,0.0,0.0,-0.934,-0.9855,-1.0483,-1.1021,-1.1563,-1.2093,-1.263,-1.2241,-1.2583,-1.4091,-1.3262,-1.3333,-1.4808,-1.4947,-1.5211,-1.568,-1.5756,-1.6019,-1.6488,-1.65,-1.65,-1.65,-1.65,-1.65,-1.65,-1.65,-1.65,-1.65,-1.65,-1.65,-1.65,-1.65,-1.65,-1.65,-1.65,-1.65,-1.65,-1.65,-1.65,-1.65,-1.65,-1.65,-1.65,-1.65,-1.65,-1.65,-1.65,-1.65,-1.65,-1.65,-1.65,-1.6513,-1.6575,-1.6588,-1.676,-1.736,-1.7498,-1.7614,-1.8103,-1.8204,-1.8204,-1.8204,-1.8204,-1.8392,-1.8983,-1.9096,-1.9246,-1.9736,-1.9798,-1.9798,-1.9798,-1.9798,-1.9798,-1.9798,-1.9798,-1.9798,-1.9798,-1.9798,-1.961,-1.9121,-1.9547,-1.9371,-1.843,-1.8392,-1.8618,-1.9083,-1.8556,-1.8292,-1.8292,-1.8242,-1.8518,-1.9096,-1.9096,-1.9334,-1.1754,-1.1933,-1.2056,-1.112,-1.1363,-1.1451,-1.002,-0.9554,-0.9491,-0.9654,0.0,0.0,0.0,0.0,0.0,0.0,-0.8688,0.0,0.0,0.0,-0.9278,-1.0131,-1.0169,-1.047,-1.1334,-1.1209,-1.1512,-1.2574,-1.1876,-1.2011,-1.337,-1.3747,-1.4174,-1.4765,-1.5387,-1.5806,-1.6032,-1.6337,-1.65,-1.65,-1.65,-1.65,-1.65,-1.65,-1.65,-1.65,-1.65,-1.65,-1.65,-1.65,-1.65,-1.65,-1.65,-1.65,-1.65,-1.65,-1.65,-1.65,-1.65,-1.65,-1.65,-1.65,-1.65,-1.65,-1.65,-1.65,-1.65,-1.65,-1.65,-1.65,-1.65,-1.65,-1.655,-1.6823,-1.6886,-1.6948,-1.7152,-1.7202,-1.7202,-1.7202,-1.7202,-1.74,-1.7978,-1.8581,-1.9083,-1.9296,-1.961,-1.9698,-1.9397,-1.9334,-1.9233,-1.8907,-1.8882,-1.8882,-1.8882,-1.9171,-1.9096,-1.8556,-1.8756,-1.8681,-1.8229,-1.8204,-1.8317,-1.8519,-1.8003,-1.7727,-1.7727,-1.7388,-1.7513,-1.8078,-1.8405,-1.8807,-1.2344,-1.2446,-1.2491,-1.1784,-1.1535,-1.129,-1.0639,-0.9993,-0.9717,-1.0344,-0.9667,0.0,0.0,0.0,0.0,0.0,0.0,-0.8037,0.0,-0.7688,0.0,0.0,-0.9151,-0.9403,-1.0181,-1.0131,-1.0407,-1.1286,-1.0684,-1.0883,-1.2312,-1.2776,-1.3333,-1.4091,-1.4865,-1.5412,-1.5693,-1.6095,-1.635,-1.65,-1.65,-1.65,-1.65,-1.65,-1.65,-1.65,-1.65,-1.65,-1.65,-1.65,-1.65,-1.65,-1.65,-1.65,-1.65,-1.65,-1.65,-1.65,-1.65,-1.65,-1.65,-1.65,-1.65,-1.65,-1.65,-1.65,-1.65,-1.65,-1.65,-1.65,-1.65,-1.65,-1.65,-1.65,-1.65,-1.65,-1.65,-1.65,-1.65,-1.65,-1.65,-1.6647,-1.7074,-1.794,-1.8607,-1.8757,-1.9096,-1.9233,-1.882,-1.8782,-1.8619,-1.8242,-1.8204,-1.8204,-1.8204,-1.8556,-1.8607,-1.8229,-1.7915,-1.7877,-1.8191,-1.7903,-1.7815,-1.7978,-1.7438,-1.7149,-1.7137,-1.6701,-1.6735,-1.7162,-1.7714,-1.8279,-1.3832,-1.3848,-1.3474,-1.1989,-1.1605,-1.1303,-1.0182,-1.0294,-1.0519,-1.0031,-1.0294,-1.0468,-0.9993,0.0,0.0,0.0,0.0,0.0,0.0,0.0,0.0,0.0,0.0,0.0,-0.9151,-0.8675,-0.9027,-1.0606,-0.9742,-1.0107,-1.2275,-1.2413,-1.2931,-1.4065,-1.4141,-1.4651,-1.568,-1.5718,-1.5994,-1.65,-1.65,-1.65,-1.65,-1.65,-1.65,-1.65,-1.65,-1.65,-1.65,-1.65,-1.65,-1.65,-1.65,-1.65,-1.65,-1.65,-1.65,-1.65,-1.65,-1.65,-1.65,-1.65,-1.65,-1.65,-1.65,-1.65,-1.65,-1.65,-1.65,-1.65,-1.65,-1.65,-1.65,-1.65,-1.65,-1.65,-1.65,-1.65,-1.65,-1.65,-1.65,-1.65,-1.6525,-1.7036,-1.7637,-1.8154,-1.8242,-1.8254,-1.8229,-1.8229,-1.8229,-1.8204,-1.8204,-1.8204,-1.8204,-1.8229,-1.8229,-1.8204,-1.7152,-1.7039,-1.8154,-1.7127,-1.6835,-1.7423,-1.6835,-1.6525,-1.6525,-1.65,-1.65,-1.6538,-1.7137,-1.7702,-1.4294,-1.4485,-1.4417,-1.3284,-1.2696,-1.214,-1.1123,-1.0801,-1.0557,-1.0018,-1.0331,-1.0545,-1.0006,0.0,0.0,0.0,0.0,0.0,0.0,0.0,0.0,0.0,0.0,0.0,0.0,-0.7814,-0.8239,-0.9554,-0.8976,-0.9366,-1.1184,-1.1648,-1.2203,-1.296,-1.3707,-1.4261,-1.4639,-1.5349,-1.5781,-1.5969,-1.6325,-1.65,-1.65,-1.65,-1.65,-1.65,-1.65,-1.65,-1.65,-1.65,-1.65,-1.65,-1.65,-1.65,-1.65,-1.65,-1.65,-1.65,-1.65,-1.65,-1.65,-1.65,-1.65,-1.65,-1.65,-1.65,-1.65,-1.65,-1.65,-1.65,-1.65,-1.65,-1.65,-1.65,-1.65,-1.65,-1.65,-1.65,-1.65,-1.65,-1.65,-1.65,-1.65,-1.6663,-1.7011,-1.7576,-1.7978,-1.8078,-1.7714,-1.7664,-1.7513,-1.7124,-1.7064,-1.7064,-1.7064,-1.7064,-1.725,-1.7662,-1.6914,-1.6663,-1.7052,-1.6701,-1.6588,-1.681,-1.66,-1.65,-1.65,-1.65,-1.65,-1.65,-1.6722,-1.7124,-1.4705,-1.4891,-1.4871,-1.3934,-1.3415,-1.2817,-1.167,-1.1304,-1.1084,-1.0546,-1.0592,-1.0754,-1.0899,0.0,0.0,0.0,0.0,0.0,0.0,-0.6599,0.0,0.0,0.0,0.0,0.0,0.0,-0.7501,-0.8424,-0.8374,-0.8926,-1.0344,-1.1173,-1.1839,-1.2375,-1.3312,-1.3883,-1.4103,-1.479,-1.5236,-1.5424,-1.5957,-1.622,-1.6233,-1.64,-1.65,-1.65,-1.65,-1.65,-1.65,-1.65,-1.65,-1.65,-1.65,-1.65,-1.65,-1.65,-1.65,-1.65,-1.65,-1.65,-1.65,-1.65,-1.65,-1.65,-1.65,-1.65,-1.65,-1.65,-1.65,-1.65,-1.65,-1.65,-1.65,-1.65,-1.65,-1.65,-1.65,-1.65,-1.65,-1.65,-1.65,-1.65,-1.65,-1.65,-1.6626,-1.7024,-1.7375,-1.7476,-1.7124,-1.7074,-1.6936,-1.6538,-1.65,-1.65,-1.65,-1.65,-1.6672,-1.7049,-1.6722,-1.65,-1.65,-1.65,-1.65,-1.65,-1.65,-1.65,-1.65,-1.65,-1.65,-1.65,-1.65,-1.6722]},{"header":{"parameterUnit":"m.s-1","parameterCategory":1,"la1":30.6,"la2":29.2853,"lo1":-89.7004,"lo2":-87.6739,"dy":0.0162,"dx":0.0183,"nx":112,"ny":82,"refTime":"2024-07-13T00:00:00:Z","depth":0,"parameterNumber":3,"parameterNumberName":"V-component_of_WINDS"},"data":[0.0,0.0,0.0,0.0,0.0,0.0,0.0,0.0,0.0,0.0,0.0,0.0,0.0,0.0,0.0,0.0,0.0,0.0,0.0,0.0,0.0,0.0,0.0,0.0,0.0,0.0,0.0,0.0,0.0,0.0,0.0,0.0,0.0,0.0,0.0,0.0,0.0,0.0,0.0,0.0,0.0,0.0,0.0,0.0,0.0,0.0,0.0,0.0,0.0,0.0,0.0,0.0,0.0,0.0,0.0,0.0,0.0,0.0,0.0,0.0,0.0,0.0,0.0,0.0,0.0,0.0,0.0,0.0,0.0,0.0,0.0,0.0,0.0,0.0,0.0,0.0,0.0,0.0,0.0,0.0,0.0,0.0,0.0,0.0,0.0,0.0,0.0,0.0,0.0,0.0,-1.5576,-1.8372,-2.1987,-2.3914,-2.3244,-2.2951,-2.0886,-1.6359,0.0,0.0,0.0,0.0,0.0,0.0,0.0,0.0,0.0,0.0,0.0,0.0,0.0,0.0,0.0,0.0,0.0,0.0,0.0,0.0,0.0,0.0,0.0,0.0,0.0,0.0,0.0,0.0,0.0,0.0,0.0,0.0,0.0,0.0,0.0,0.0,0.0,0.0,0.0,0.0,0.0,0.0,0.0,0.0,0.0,0.0,0.0,0.0,0.0,0.0,0.0,0.0,0.0,0.0,0.0,0.0,0.0,0.0,0.0,0.0,0.0,0.0,0.0,0.0,0.0,0.0,0.0,0.0,0.0,0.0,0.0,0.0,0.0,0.0,0.0,0.0,0.0,0.0,0.0,0.0,0.0,0.0,0.0,0.0,0.0,0.0,0.0,0.0,0.0,0.0,0.0,0.0,0.0,0.0,0.0,0.0,0.0,0.0,0.0,0.0,0.0,0.0,0.0,0.0,-1.6224,-2.0766,-2.3024,-2.4153,-2.4025,-2.2767,-2.0766,-1.7913,0.0,0.0,0.0,0.0,0.0,0.0,0.0,0.0,0.0,0.0,0.0,0.0,0.0,0.0,0.0,0.0,0.0,0.0,0.0,0.0,0.0,0.0,0.0,0.0,0.0,0.0,0.0,0.0,0.0,0.0,0.0,0.0,0.0,0.0,0.0,0.0,0.0,0.0,0.0,0.0,0.0,0.0,0.0,0.0,0.0,0.0,0.0,0.0,0.0,0.0,0.0,0.0,0.0,0.0,0.0,0.0,0.0,0.0,0.0,0.0,0.0,0.0,0.0,0.0,0.0,0.0,0.0,0.0,0.0,0.0,0.0,0.0,0.0,0.0,0.0,0.0,0.0,0.0,0.0,0.0,0.0,0.0,0.0,0.0,0.0,0.0,0.0,0.0,0.0,0.0,0.0,0.0,0.0,0.0,0.0,0.0,0.0,0.0,0.0,0.0,0.0,0.0,0.0,-1.5502,-1.7839,-2.1427,-2.3245,-2.419,-2.419,-2.273,-2.0564,-1.7631,-1.5943,0.0,0.0,0.0,0.0,0.0,0.0,0.0,0.0,0.0,0.0,0.0,0.0,0.0,0.0,0.0,0.0,0.0,0.0,0.0,0.0,0.0,0.0,0.0,0.0,0.0,0.0,0.0,0.0,0.0,0.0,0.0,0.0,0.0,0.0,0.0,0.0,0.0,0.0,0.0,0.0,0.0,0.0,0.0,0.0,0.0,0.0,0.0,0.0,0.0,0.0,0.0,0.0,0.0,0.0,0.0,0.0,0.0,0.0,0.0,0.0,0.0,0.0,0.0,0.0,0.0,0.0,0.0,0.0,0.0,0.0,0.0,0.0,0.0,0.0,0.0,0.0,0.0,0.0,0.0,0.0,0.0,0.0,0.0,0.0,0.0,0.0,0.0,0.0,0.0,0.0,0.0,0.0,0.0,0.0,0.0,0.0,0.0,0.0,0.0,0.0,0.0,0.0,-1.7704,-1.9473,-2.1574,-2.3245,-2.419,-2.419,-2.2363,-1.9968,-1.7073,-1.5019,0.0,0.0,0.0,0.0,0.0,0.0,0.0,0.0,0.0,0.0,0.0,0.0,0.0,0.0,0.0,0.0,0.0,0.0,0.0,0.0,0.0,0.0,0.0,0.0,0.0,0.0,0.0,0.0,0.0,0.0,0.0,0.0,0.0,0.0,0.0,0.0,0.0,0.0,0.0,0.0,0.0,0.0,0.0,0.0,0.0,0.0,0.0,0.0,0.0,0.0,0.0,0.0,0.0,0.0,0.0,0.0,0.0,0.0,0.0,0.0,0.0,0.0,0.0,0.0,0.0,0.0,0.0,0.0,0.0,0.0,0.0,0.0,0.0,0.0,0.0,0.0,0.0,0.0,0.0,0.0,0.0,0.0,0.0,0.0,0.0,0.0,0.0,0.0,0.0,0.0,0.0,0.0,0.0,0.0,0.0,0.0,0.0,0.0,0.0,0.0,0.0,0.0,-1.7979,-2.0713,-2.1684,-2.3245,-2.419,-2.419,-2.1298,-1.8739,-1.7018,-1.3998,0.0,0.0,0.0,0.0,0.0,0.0,0.0,0.0,0.0,0.0,0.0,0.0,0.0,0.0,0.0,0.0,0.0,0.0,0.0,0.0,0.0,0.0,0.0,0.0,0.0,0.0,0.0,0.0,0.0,0.0,0.0,0.0,0.0,0.0,0.0,0.0,0.0,0.0,0.0,0.0,0.0,0.0,0.0,0.0,0.0,0.0,0.0,0.0,0.0,0.0,0.0,0.0,0.0,0.0,0.0,0.0,0.0,0.0,0.0,0.0,0.0,0.0,0.0,0.0,0.0,0.0,0.0,0.0,0.0,0.0,0.0,0.0,0.0,0.0,0.0,0.0,0.0,0.0,0.0,0.0,0.0,0.0,0.0,0.0,0.0,0.0,0.0,0.0,0.0,0.0,0.0,0.0,0.0,0.0,0.0,0.0,0.0,0.0,0.0,0.0,0.0,0.0,-1.7564,-2.028,-2.1647,-2.3245,-2.419,-2.419,-2.2143,-1.973,-1.7073,0.0,0.0,0.0,0.0,0.0,0.0,0.0,0.0,0.0,0.0,0.0,0.0,0.0,0.0,0.0,0.0,0.0,0.0,0.0,0.0,0.0,0.0,0.0,0.0,0.0,0.0,0.0,0.0,0.0,0.0,0.0,0.0,0.0,0.0,0.0,0.0,0.0,0.0,0.0,0.0,0.0,0.0,0.0,0.0,0.0,0.0,0.0,0.0,0.0,0.0,0.0,0.0,0.0,0.0,0.0,0.0,0.0,0.0,0.0,0.0,0.0,0.0,0.0,0.0,0.0,0.0,0.0,0.0,0.0,0.0,0.0,0.0,0.0,0.0,0.0,0.0,0.0,0.0,0.0,0.0,0.0,0.0,0.0,0.0,0.0,0.0,0.0,0.0,0.0,0.0,0.0,0.0,0.0,0.0,0.0,0.0,0.0,0.0,0.0,0.0,0.0,0.0,-1.4365,-1.7766,-2.0527,-2.1684,-2.3245,-2.4098,-2.3841,-2.2088,-1.9719,-1.6713,0.0,0.0,0.0,0.0,0.0,0.0,0.0,0.0,0.0,0.0,0.0,0.0,0.0,0.0,0.0,0.0,0.0,0.0,0.0,0.0,0.0,0.0,0.0,0.0,0.0,0.0,0.0,0.0,0.0,0.0,0.0,0.0,0.0,0.0,0.0,0.0,0.0,0.0,0.0,0.0,0.0,0.0,0.0,0.0,0.0,0.0,0.0,0.0,0.0,0.0,0.0,0.0,0.0,0.0,0.0,0.0,0.0,0.0,0.0,0.0,0.0,0.0,0.0,0.0,0.0,0.0,0.0,0.0,0.0,0.0,0.0,0.0,0.0,0.0,0.0,0.0,0.0,0.0,0.0,0.0,0.0,0.0,0.0,0.0,0.0,0.0,0.0,0.0,0.0,0.0,0.0,0.0,0.0,0.0,0.0,0.0,0.0,0.0,0.0,0.0,0.0,0.0,-1.4512,-1.8775,-2.1794,-2.1812,-2.3245,-2.3878,-2.3061,-2.0739,-1.8287,0.0,0.0,0.0,0.0,0.0,0.0,0.0,0.0,0.0,0.0,0.0,0.0,0.0,0.0,0.0,0.0,0.0,0.0,0.0,0.0,0.0,0.0,0.0,0.0,0.0,0.0,0.0,0.0,0.0,0.0,0.0,0.0,0.0,0.0,0.0,0.0,0.0,0.0,0.0,0.0,0.0,0.0,0.0,0.0,0.0,0.0,0.0,0.0,0.0,0.0,0.0,0.0,0.0,0.0,0.0,0.0,0.0,0.0,0.0,0.0,0.0,0.0,0.0,0.0,0.0,0.0,0.0,0.0,0.0,0.0,0.0,0.0,0.0,0.0,0.0,0.0,0.0,0.0,0.0,0.0,0.0,0.0,0.0,0.0,0.0,0.0,0.0,0.0,0.0,0.0,0.0,0.0,0.0,0.0,0.0,0.0,0.0,0.0,0.0,0.0,0.0,0.0,0.0,-1.527,-1.9113,-2.2014,-2.2593,-2.3584,-2.3878,-2.3061,-2.1804,-1.9536,-1.5937,0.0,0.0,0.0,0.0,0.0,0.0,0.0,0.0,0.0,0.0,0.0,0.0,0.0,0.0,0.0,0.0,0.0,0.0,0.0,0.0,0.0,0.0,0.0,0.0,0.0,0.0,0.0,0.0,0.0,0.0,0.0,0.0,0.0,0.0,0.0,0.0,0.0,0.0,0.0,0.0,0.0,0.0,0.0,0.0,0.0,0.0,0.0,0.0,0.0,0.0,0.0,0.0,0.0,0.0,0.0,0.0,0.0,0.0,0.0,0.0,0.0,0.0,0.0,0.0,0.0,0.0,0.0,0.0,0.0,0.0,0.0,0.0,0.0,0.0,0.0,0.0,0.0,0.0,0.0,0.0,0.0,0.0,0.0,0.0,0.0,0.0,0.0,0.0,0.0,0.0,0.0,0.0,0.0,0.0,0.0,0.0,0.0,0.0,0.0,0.0,0.0,0.0,-1.5607,-1.926,-2.2106,-2.2914,-2.3731,-2.3731,-2.263,-2.2088,-2.005,-1.5955,0.0,0.0,0.0,0.0,0.0,0.0,0.0,0.0,0.0,0.0,0.0,0.0,0.0,0.0,0.0,0.0,0.0,0.0,0.0,0.0,0.0,0.0,0.0,0.0,0.0,0.0,0.0,0.0,0.0,0.0,0.0,0.0,0.0,0.0,0.0,0.0,0.0,0.0,0.0,0.0,0.0,0.0,0.0,0.0,0.0,0.0,0.0,0.0,0.0,0.0,0.0,0.0,0.0,0.0,0.0,0.0,0.0,0.0,0.0,0.0,0.0,0.0,0.0,0.0,0.0,0.0,0.0,0.0,0.0,0.0,0.0,0.0,0.0,0.0,0.0,0.0,0.0,0.0,0.0,0.0,0.0,0.0,0.0,0.0,0.0,0.0,0.0,0.0,0.0,0.0,0.0,0.0,0.0,0.0,0.0,0.0,0.0,0.0,0.0,0.0,0.0,0.0,-1.5692,-1.9315,-2.2143,-2.3024,-2.3768,-2.3584,-2.2033,-2.1831,-2.0123,-1.6176,0.0,0.0,0.0,0.0,0.0,0.0,0.0,0.0,0.0,0.0,0.0,0.0,0.0,0.0,0.0,0.0,0.0,0.0,0.0,0.0,0.0,0.0,0.0,0.0,0.0,0.0,0.0,0.0,0.0,0.0,0.0,0.0,0.0,0.0,0.0,0.0,0.0,0.0,0.0,0.0,0.0,0.0,0.0,0.0,0.0,0.0,0.0,0.0,0.0,0.0,0.0,0.0,0.0,0.0,0.0,0.0,0.0,0.0,0.0,0.0,-1.4229,-1.2894,0.0,0.0,0.0,0.0,0.0,0.0,0.0,0.0,0.0,0.0,0.0,0.0,0.0,0.0,0.0,0.0,0.0,0.0,0.0,0.0,0.0,0.0,0.0,0.0,0.0,0.0,0.0,0.0,0.0,0.0,0.0,0.0,0.0,0.0,0.0,0.0,0.0,0.0,0.0,0.0,-1.645,-1.9656,-2.2345,-2.3786,-2.4098,-2.3804,-2.2832,-2.2152,-2.0582,-1.7766,-1.5649,0.0,0.0,0.0,0.0,0.0,0.0,0.0,0.0,0.0,0.0,0.0,0.0,0.0,0.0,0.0,0.0,0.0,0.0,0.0,0.0,0.0,0.0,0.0,0.0,0.0,0.0,0.0,0.0,0.0,0.0,0.0,0.0,0.0,0.0,0.0,0.0,0.0,0.0,0.0,0.0,0.0,0.0,0.0,0.0,0.0,0.0,0.0,0.0,0.0,0.0,0.0,0.0,0.0,0.0,0.0,0.0,0.0,0.0,0.0,-1.6848,-1.5827,0.0,0.0,0.0,0.0,0.0,0.0,0.0,0.0,0.0,0.0,0.0,0.0,0.0,0.0,0.0,0.0,0.0,0.0,0.0,0.0,0.0,0.0,0.0,0.0,0.0,0.0,0.0,0.0,0.0,0.0,0.0,0.0,0.0,0.0,0.0,0.0,0.0,0.0,0.0,0.0,-1.7264,-2.0335,-2.2832,-2.4061,-2.419,-2.3878,-2.3061,-2.2263,-2.0913,-1.8812,-1.6408,0.0,0.0,0.0,0.0,0.0,0.0,0.0,0.0,0.0,0.0,0.0,0.0,0.0,0.0,0.0,0.0,0.0,0.0,0.0,0.0,0.0,0.0,0.0,0.0,0.0,0.0,0.0,0.0,0.0,0.0,0.0,0.0,0.0,0.0,0.0,0.0,0.0,0.0,0.0,0.0,0.0,0.0,0.0,0.0,0.0,0.0,0.0,0.0,0.0,0.0,0.0,0.0,0.0,-1.951,-1.9932,-2.0564,-2.0564,-2.0941,-2.1502,-2.0162,-1.9546,-1.9399,-1.8089,0.0,0.0,0.0,0.0,0.0,0.0,0.0,0.0,0.0,0.0,0.0,0.0,0.0,0.0,0.0,0.0,0.0,0.0,0.0,0.0,0.0,0.0,-1.9308,-1.9822,-2.0556,-2.0382,-1.7582,0.0,0.0,0.0,0.0,0.0,0.0,0.0,0.0,0.0,0.0,0.0,-1.8096,-2.1043,-2.3299,-2.4116,-2.419,-2.3933,-2.3263,-2.2464,-2.1353,-1.9829,-1.7461,-1.5728,0.0,0.0,0.0,0.0,0.0,0.0,0.0,0.0,0.0,0.0,0.0,0.0,0.0,0.0,0.0,0.0,0.0,0.0,0.0,0.0,0.0,0.0,0.0,0.0,0.0,0.0,0.0,0.0,0.0,0.0,0.0,0.0,-1.1971,-1.2876,0.0,0.0,0.0,0.0,0.0,0.0,0.0,0.0,0.0,0.0,0.0,0.0,0.0,-1.8867,-2.1133,-2.1859,-2.296,-2.4456,-2.5144,-2.5548,-2.564,-2.564,-2.5713,-2.5776,-2.5574,0.0,-2.0327,-2.0099,0.0,0.0,0.0,0.0,0.0,0.0,0.0,0.0,0.0,0.0,0.0,0.0,0.0,0.0,0.0,0.0,0.0,0.0,0.0,0.0,0.0,0.0,-2.3254,-2.2639,-2.3125,-2.34,-2.2272,-1.9887,-1.7429,-1.5717,-1.5386,-1.4872,0.0,0.0,0.0,0.0,0.0,0.0,-1.893,-2.14,-2.3299,-2.4116,-2.419,-2.4153,-2.4043,-2.3309,-2.2446,-2.1537,-1.9143,-1.7315,-1.6287,-1.415,0.0,0.0,0.0,0.0,0.0,0.0,0.0,0.0,0.0,0.0,0.0,0.0,0.0,0.0,0.0,0.0,0.0,0.0,0.0,0.0,0.0,0.0,0.0,0.0,0.0,0.0,0.0,0.0,0.0,-1.1985,-1.3747,-1.4542,-1.505,-1.5013,0.0,0.0,0.0,0.0,0.0,0.0,0.0,0.0,0.0,-2.0804,-2.173,-2.2951,-2.4483,-2.485,-2.5383,-2.608,-2.6429,-2.6602,-2.6602,-2.6602,-2.6602,-2.6602,-2.6602,-2.5574,-2.385,-2.2951,-2.1905,-2.0768,0.0,0.0,0.0,0.0,-1.9337,-1.9127,-2.0511,-2.0713,-2.0254,-1.9803,0.0,0.0,0.0,0.0,0.0,0.0,0.0,-2.0189,-2.1125,-2.2776,-2.4226,-2.4318,-2.4622,-2.4658,-2.3859,-2.2538,-2.0904,-1.8805,-1.8401,-1.7601,-1.5074,-1.5013,0.0,0.0,0.0,-1.9355,-2.0546,-2.2446,-2.3804,-2.4153,-2.419,-2.419,-2.419,-2.3294,-2.238,-2.1616,-1.9533,-1.7971,-1.7211,-1.5408,-1.3835,0.0,0.0,0.0,0.0,0.0,0.0,0.0,0.0,0.0,0.0,0.0,0.0,0.0,0.0,0.0,0.0,0.0,0.0,0.0,0.0,0.0,0.0,0.0,0.0,0.0,0.0,0.0,0.0,-1.3961,-1.5411,-1.6224,-1.7209,-1.7422,0.0,0.0,0.0,0.0,0.0,0.0,-1.9282,-2.0878,-2.2419,-2.3887,-2.5071,-2.608,-2.6906,-2.6906,-2.7016,-2.7226,-2.7409,-2.753,-2.753,-2.753,-2.764,-2.7805,-2.7391,-2.7317,-2.7383,-2.5566,-2.4465,-2.3795,-2.2547,-2.1623,-2.1178,-2.241,-2.2409,-2.2051,-2.3896,-2.4133,-2.3551,-2.3039,-2.2365,-2.152,-2.0335,0.0,0.0,0.0,0.0,-2.2089,-2.3538,-2.4373,-2.4961,-2.5558,-2.5705,-2.5485,-2.4677,-2.4511,-2.3841,-2.1575,-2.1135,-2.0236,-1.7417,-1.7429,0.0,-1.7014,-1.9161,-2.1143,-2.1996,-2.3327,-2.417,-2.4084,-2.4074,-2.4044,-2.3947,-2.3169,-2.2291,-2.1324,-1.9915,-1.8736,-1.7852,-1.6554,-1.5389,-1.4419,0.0,0.0,0.0,0.0,0.0,0.0,0.0,0.0,0.0,0.0,0.0,0.0,0.0,0.0,0.0,0.0,0.0,0.0,0.0,0.0,0.0,0.0,0.0,0.0,0.0,0.0,0.0,0.0,0.0,-1.7869,-1.9355,0.0,0.0,0.0,0.0,-1.8041,-2.016,-2.1867,-2.2712,-2.4291,-2.554,-2.6382,-2.6502,-2.6924,-2.7732,-2.7732,-2.8117,-2.8895,-2.9659,-3.0026,-3.0026,-3.0026,-3.043,-3.1072,-2.9537,-2.9317,-2.9843,-2.7457,-2.6465,-2.64,-2.6327,-2.6034,-2.5672,-2.5762,-2.5559,-2.5256,-2.5393,-2.5411,-2.5427,-2.5691,-2.5507,-2.5136,-2.5062,-2.4493,0.0,0.0,-2.5081,-2.5356,-2.6209,-2.6437,-2.6492,-2.6539,-2.6539,-2.6319,-2.5503,-2.5338,-2.4842,-2.3189,-2.2878,-2.2327,-2.0566,0.0,-2.0309,-2.0264,-2.1106,-2.2033,-2.2841,-2.3676,-2.4084,-2.3764,-2.3742,-2.3606,-2.3288,-2.3206,-2.2515,-2.1018,-2.0838,-1.9988,-1.8249,-1.7617,-1.6561,-1.498,-1.3543,0.0,0.0,0.0,0.0,0.0,0.0,0.0,0.0,0.0,0.0,0.0,0.0,0.0,0.0,0.0,0.0,0.0,0.0,0.0,0.0,0.0,0.0,0.0,0.0,0.0,0.0,0.0,0.0,-2.0325,-2.1428,0.0,-2.0601,-2.1216,-2.1785,-2.2006,-2.3318,-2.4475,-2.5262,-2.6355,-2.731,-2.8124,-2.8638,-2.931,-3.0111,-3.013,-3.0265,-3.0558,-3.0834,-3.0962,-3.0962,-3.0962,-3.114,-3.1378,-3.0797,-3.0705,-3.0919,-3.0044,-2.876,-2.731,-2.6796,-2.6501,-2.6385,-2.6385,-2.6318,-2.6215,-2.6215,-2.6215,-2.6238,-2.6351,-2.6278,-2.6172,-2.6172,-2.5797,-2.5422,-2.5705,-2.5796,-2.5978,-2.6787,-2.7173,-2.7365,-2.7365,-2.7365,-2.7145,-2.6355,-2.6172,-2.6007,-2.5428,-2.4483,-2.3179,-2.1325,-2.1878,-2.2204,-2.117,-2.1984,-2.2872,-2.3402,-2.3501,-2.3511,-2.3392,-2.338,-2.3335,-2.32,-2.3009,-2.2239,-2.073,-2.0448,-1.9762,-1.852,-1.8108,-1.7281,-1.593,-1.4931,-1.3254,0.0,0.0,0.0,0.0,0.0,0.0,0.0,0.0,0.0,0.0,0.0,0.0,0.0,0.0,0.0,0.0,0.0,0.0,0.0,0.0,0.0,0.0,0.0,0.0,0.0,0.0,-2.0656,-2.2051,-2.3144,-2.3602,-2.3061,-2.3749,-2.4437,-2.4979,-2.576,-2.6568,-2.7372,-2.8172,-2.898,-2.9776,-3.0338,-3.0852,-3.1397,-3.1397,-3.1397,-3.1397,-3.169,-3.1806,-3.1806,-3.1806,-3.1953,-3.2186,-3.1635,-3.1562,-3.177,-3.1513,-3.046,-2.8962,-2.8273,-2.7834,-2.7574,-2.7574,-2.751,-2.7406,-2.7406,-2.7323,-2.7203,-2.7203,-2.72,-2.7216,-2.7216,-2.7129,-2.7,-2.7,-2.7,-2.7139,-2.7677,-2.8012,-2.8209,-2.8209,-2.8209,-2.7989,-2.7181,-2.6998,-2.6924,-2.6638,-2.5511,-2.4196,-2.2907,-2.3349,-2.3513,-2.2432,-2.3004,-2.3628,-2.3837,-2.3671,-2.3448,-2.3224,-2.32,-2.3123,-2.2908,-2.2449,-2.1781,-2.0801,-2.0033,-1.9395,-1.8861,-1.8158,-1.7365,-1.6441,-1.5508,-1.4068,-1.2103,0.0,0.0,0.0,0.0,0.0,0.0,0.0,0.0,0.0,0.0,0.0,0.0,0.0,0.0,0.0,0.0,0.0,0.0,0.0,0.0,0.0,0.0,0.0,-1.9315,-2.0839,-2.218,-2.3006,-2.4483,-2.5429,-2.5429,-2.6172,-2.6638,-2.6657,-2.742,-2.8227,-2.9023,-2.9812,-3.0613,-3.1415,-3.1452,-3.1452,-3.147,-3.147,-3.147,-3.1488,-3.2284,-3.2638,-3.2638,-3.2638,-3.3073,-3.3715,-3.2149,-3.1916,-3.2583,-3.1788,-3.1476,-3.142,-3.0998,-3.0308,-2.9555,-2.9555,-2.9351,-2.9066,-2.9066,-2.8819,-2.8497,-2.8497,-2.8494,-2.8492,-2.8492,-2.8743,-2.9025,-2.9007,-2.8989,-2.8989,-2.8959,-2.8952,-2.8982,-2.897,-2.897,-2.875,-2.7967,-2.7801,-2.7581,-2.6782,-2.5986,-2.5428,-2.5383,-2.473,-2.4207,-2.417,-2.4151,0.0,-2.417,-2.4161,-2.3907,-2.3247,-2.3177,-2.294,-2.2349,-2.1647,-2.1207,-2.1156,-1.9769,-1.9035,-1.9284,-1.7828,-1.6877,-1.6525,-1.5193,-1.4139,-1.3367,0.0,0.0,0.0,0.0,0.0,0.0,0.0,0.0,0.0,0.0,0.0,0.0,0.0,0.0,0.0,0.0,0.0,0.0,0.0,0.0,0.0,-2.0189,-2.1722,-2.1942,-2.2887,-2.4061,-2.5446,-2.6007,-2.6264,-2.6264,-2.6998,-2.7714,-2.829,-2.909,-2.9898,-3.0687,-3.0944,-3.1439,-3.2247,-3.2284,-3.2559,-3.3128,-3.3128,-3.3128,-3.3128,-3.3366,-3.3476,-3.3476,-3.3476,-3.3587,-3.377,-3.333,-3.3275,-3.3458,-3.322,-3.2962,-3.2613,-3.1618,-3.1078,-3.088,-3.088,-3.0812,-3.0742,-3.0742,-3.0667,-3.0586,-3.0586,-3.0592,-3.0581,-3.0581,-3.0247,-2.9762,-2.9217,-2.9042,-2.8816,-2.7975,-2.8152,-2.8502,-2.8255,-2.8201,-2.8148,-2.7915,-2.7879,-2.7808,-2.7598,-2.6892,-2.6073,-2.519,-2.4658,-2.4151,-2.356,-2.311,-2.2975,-2.3432,-2.3259,-2.3045,-2.286,-2.2835,-2.2691,-2.2321,-2.2124,-2.1532,-2.0403,-1.993,-1.9573,-1.9318,-1.8378,-1.7633,-1.716,-1.5635,-1.4827,0.0,0.0,0.0,0.0,0.0,0.0,0.0,0.0,0.0,0.0,0.0,0.0,0.0,0.0,0.0,0.0,0.0,0.0,0.0,0.0,0.0,0.0,-2.2336,-2.3859,-2.4869,-2.5126,-2.5676,-2.6943,-2.7108,-2.7365,-2.8044,-2.8539,-2.9145,-2.9953,-3.0448,-3.1054,-3.1861,-3.1898,-3.2265,-3.3091,-3.3096,-3.333,-3.3807,-3.3807,-3.3807,-3.3807,-3.3807,-3.3807,-3.3807,-3.3807,-3.3807,-3.3807,-3.3807,-3.3807,-3.3807,-3.3807,-3.3666,-3.336,0.0,0.0,0.0,0.0,-3.1326,-3.1326,-3.1326,-3.1113,-3.0861,-3.0861,-3.0734,-3.0611,-3.0611,-3.041,-3.0064,-2.9635,-2.9263,-2.885,-2.8185,-2.8095,-2.8143,-2.7954,-2.7897,-2.794,-2.8075,-2.8102,-2.8156,-2.8321,-2.7975,0.0,-2.6284,-2.541,-2.4592,-2.3784,-2.3371,-2.315,-2.3194,-2.3033,-2.286,-2.2721,-2.2708,-2.2586,-2.2307,-2.2023,0.0,0.0,0.0,-1.9634,-1.8825,-1.8598,0.0,0.0,0.0,0.0,0.0,0.0,0.0,0.0,-1.5142,-1.5227,0.0,0.0,0.0,0.0,0.0,0.0,0.0,0.0,0.0,0.0,0.0,0.0,0.0,0.0,0.0,0.0,-2.3969,-2.5346,-2.7504,-2.7255,-2.7145,-2.7842,-2.8018,-2.8631,-3.0063,-3.0283,-3.0668,-3.1458,-3.1544,-3.188,-3.2693,-3.2729,0.0,0.0,0.0,-3.3807,-3.3807,-3.3899,-3.3899,-3.3807,-3.3899,-3.3899,-3.3807,-3.3807,-3.3807,-3.3807,-3.3807,-3.3807,-3.3807,-3.3807,-3.3734,-3.3592,-3.2919,-3.24,-3.1986,-3.1621,-3.1487,-3.1487,-3.1487,0.0,0.0,-3.0455,-3.0159,-2.9849,-2.9849,-3.0065,-3.0274,-3.0201,-2.9689,-2.9155,-2.91,-2.8544,-2.8021,-2.8035,-2.7982,-2.7982,-2.8219,-2.8272,-2.8381,-2.8737,-2.8761,-2.853,-2.7866,-2.6602,-2.5388,-2.4448,-2.4287,-2.3992,-2.3247,-2.3141,-2.3033,-2.2733,-2.2708,0.0,-2.2307,-2.1701,-2.158,-2.2127,-2.0893,-1.9605,-1.842,-1.89,-1.9183,-1.9165,-1.9372,-2.0079,-2.126,-2.1598,-2.1306,-2.0363,-1.7647,-1.7362,0.0,0.0,0.0,0.0,0.0,0.0,0.0,0.0,0.0,0.0,0.0,0.0,0.0,0.0,0.0,-2.3768,-2.5731,-2.7284,-2.7732,-2.8216,-2.8601,-2.8748,-2.9347,-2.9861,-3.0173,-3.0797,-3.1494,-3.2307,-3.2375,-3.2711,-3.3532,-3.3568,-3.3642,-3.3807,-3.3807,-3.3807,-3.3807,-3.4435,-3.4435,-3.3807,-3.4454,0.0,-3.3807,-3.3807,-3.3807,-3.3807,-3.3807,-3.3807,-3.3807,-3.3807,-3.339,-3.2809,-3.3328,-3.349,-3.34,-3.3328,-3.3299,-3.3299,-3.3299,-3.2997,-3.2594,-3.2594,-3.2296,-3.1909,-3.1909,-3.1706,0.0,-3.075,-3.0438,-3.0161,-2.9619,-2.9141,-2.8803,-2.8862,-2.8369,-2.784,-2.7574,-2.7497,-2.7545,-2.7601,-2.7378,-2.7203,-2.7364,-2.7157,-2.6374,-2.4649,-2.419,-2.3759,-2.2914,-2.2797,-2.2772,-2.2708,-2.2708,-2.2586,-2.2307,-2.2161,-2.1887,-2.1444,-2.114,-2.0662,-1.9987,-2.0628,-2.0732,-2.0135,-2.0427,-2.0721,-2.0982,-2.1309,-2.1816,-2.2401,-2.12,-2.0476,0.0,0.0,0.0,0.0,0.0,0.0,0.0,0.0,0.0,0.0,0.0,-2.0317,-2.1537,0.0,-2.4366,-2.5766,-2.6841,-2.7855,-2.8847,-2.9347,-2.9592,-2.9592,-2.9971,-3.0522,-3.1317,-3.1584,-3.2123,-3.3133,-3.3008,-3.3159,-3.3757,-3.3807,-3.399,-3.438,-3.4399,-3.4614,-3.5055,-3.5459,-3.5459,-3.5055,-3.5459,-3.544,-3.5055,-3.5055,-3.4816,-3.4399,-3.4199,-3.399,-3.3775,-3.3578,-3.3087,-3.255,-3.2981,-3.287,-3.25,-3.25,-3.25,-3.25,-3.25,-3.2384,-3.2214,-3.2214,-3.2039,-3.186,-3.186,-3.1694,-3.1422,-3.1045,-3.0798,-3.056,-3.0248,-2.9738,-2.9322,-2.9337,-2.8587,-2.7859,-2.7859,-2.7547,-2.7348,-2.756,-2.7439,-2.7363,-2.7577,-2.7599,-2.6868,-2.4767,-2.4353,-2.383,-2.2654,-2.25,-2.25,-2.25,-2.25,-2.2453,-2.231,-2.2296,-2.2127,-2.1769,-2.189,-2.1653,-2.103,-2.1475,-2.1587,-2.1254,-2.1554,-2.1818,-2.2049,-2.256,-2.2992,-2.3337,-2.3106,-2.2583,0.0,0.0,0.0,0.0,0.0,0.0,0.0,0.0,-1.9381,-2.049,-2.1794,-2.3098,-2.4331,-2.5012,-2.5901,-2.7437,-2.7736,-2.8312,-2.9874,-3.0143,-3.0198,-3.019,-3.041,-3.1051,-3.2349,-3.2327,-3.2647,-3.3611,-3.3465,-3.3419,-3.368,-3.3913,-3.428,-3.4855,-3.5109,-3.5591,-3.6285,-3.645,-3.645,-3.6303,-3.645,-3.645,-3.6303,-3.6303,-3.5856,-3.5064,-3.4638,-3.4259,-3.3945,-3.3617,-3.3207,-3.279,-3.2649,-3.2104,-3.1433,-3.144,-3.1447,-3.1447,-3.1447,-3.1389,-3.1329,-3.1329,-3.1252,-3.119,-3.119,-3.119,-3.119,-3.119,-3.1005,-3.0819,-3.0889,-3.0352,-2.9831,-2.9897,-2.9075,-2.8271,-2.8384,-2.793,-2.757,-2.7742,-2.7725,-2.7678,-2.7783,-2.7725,-2.7031,-2.5113,-2.4817,-2.426,-2.2699,-2.2499,-2.2448,-2.2313,-2.2296,-2.2296,-2.2296,-2.2296,-2.2296,-2.2296,-2.25,-2.2371,-2.1841,-2.2025,-2.2188,-2.232,-2.2536,-2.2811,-2.32,-2.3735,-2.3876,-2.3599,-2.3816,-2.3692,-1.6346,-1.6633,-1.7117,-1.8544,-1.8427,-1.9087,0.0,0.0,-2.3079,-2.5318,-2.5933,-2.6015,-2.5825,-2.6704,-2.7426,-2.7278,-2.8731,-2.9813,-2.9682,-2.9964,-3.0206,-3.0196,-3.1149,-3.1873,-3.2054,-3.2672,-3.3123,-3.3258,-3.355,-3.3592,-3.3288,-3.4286,-3.4753,-3.4485,-3.5561,-3.6193,-3.6303,-3.7015,-3.7015,-3.6303,-3.7015,-3.6997,-3.6303,-3.6303,-3.6002,-3.5419,-3.4903,-3.4641,-3.4605,-3.4553,-3.4302,-3.3854,-3.3198,-3.2616,-3.219,-3.2318,-3.235,-3.235,-3.235,-3.2092,-3.1734,-3.1734,-3.1488,-3.119,-3.119,-3.119,-3.119,-3.119,-3.1162,-3.1232,-3.1577,-3.1096,-3.0595,-3.1014,-3.0466,-2.9569,-2.8601,-2.8329,-2.8102,-2.7487,-2.7083,-2.6955,-2.7319,-2.7067,-2.6649,-2.6087,-2.6011,-2.5358,-2.3519,-2.3274,-2.3038,-2.2364,-2.2296,-2.2296,-2.2296,-2.2296,-2.2296,-2.2296,-2.2321,-2.2416,-2.2574,-2.2612,-2.2775,-2.3076,-2.31,-2.3153,-2.32,-2.3288,-2.3282,-2.3247,-2.2996,-2.3141,-1.9979,-2.0456,0.0,0.0,-2.2253,-2.2877,-2.4934,-2.5236,-2.5373,-2.6382,-2.679,-2.6979,-2.7036,-2.7483,-2.8018,0.0,-2.9112,-2.9854,-3.085,-3.0534,-3.0478,-3.1228,-3.0889,-3.0995,-3.196,-3.2486,-3.2921,-3.3184,-3.3105,-3.3163,-3.3419,-3.4207,-3.4978,-3.5728,-3.6553,-3.7221,-3.7698,-3.7724,-3.756,-3.7235,-3.7297,-3.716,-3.6819,-3.6819,-3.6309,-3.5364,-3.4888,-3.4401,-3.3955,-3.4246,-3.409,-3.3649,-3.3362,-3.2849,-3.2249,-3.1876,-3.1732,-3.1732,-3.1732,-3.162,-3.1468,-3.1468,-3.1332,-3.119,-3.119,-3.119,-3.119,-3.119,-3.137,-3.1584,-3.1752,-3.1546,-3.1358,-3.1533,-3.082,-2.985,-2.8938,-2.8374,-2.7827,-2.7092,-2.6825,-2.6758,-2.6923,-2.6808,-2.6656,-2.6513,-2.6135,-2.5406,-2.4201,-2.3678,-2.3122,-2.2381,-2.2296,-2.2296,-2.2296,-2.2296,-2.2296,-2.2296,-2.2453,-2.2573,-2.2695,-2.2708,-2.286,-2.3189,-2.32,-2.32,-2.32,-2.3392,-2.3392,-2.3189,-2.3057,-2.3033,-2.2493,0.0,0.0,-2.4401,-2.5136,-2.5797,-2.6017,-2.6502,-2.6947,-2.7061,-2.732,-2.7591,-2.7791,-2.7878,-2.823,-2.9271,-2.9372,-2.9902,-3.1575,-3.0879,-3.0503,-3.1318,-3.0136,-2.9883,-3.1451,-3.1963,-3.2417,-3.2965,-3.2809,-3.2904,-3.3407,-3.4267,-3.5265,-3.6464,-3.7219,-3.7896,-3.8481,-3.7964,-3.7702,-3.7702,-3.736,-3.7209,-3.7192,-3.7057,-3.6468,-3.557,-3.5157,-3.4596,-3.4037,-3.4381,-3.4298,-3.3977,-3.3795,-3.3372,-3.2801,-3.1853,-3.136,-3.119,-3.119,-3.119,-3.119,-3.119,-3.119,-3.119,-3.119,-3.119,-3.119,-3.119,-3.1411,-3.1623,-3.1623,-3.1623,-3.1623,-3.1623,-3.1001,-3.0159,-2.9213,-2.8535,-2.7858,-2.6877,-2.6691,-2.6691,-2.6691,-2.6691,-2.6691,-2.6691,-2.6251,-2.5642,-2.4897,-2.3968,-2.3122,-2.2381,-2.2296,-2.2296,-2.2296,-2.2296,-2.2296,-2.2296,-2.2473,-2.2621,-2.2695,-2.2797,-2.2996,-2.3335,-2.3253,-2.32,-2.32,-2.3283,-2.3189,-2.2958,-2.2958,-2.2865,0.0,0.0,-2.5319,-2.5356,-2.597,-2.6778,-2.7559,-2.7761,-2.7874,-2.8249,-2.8366,-2.8267,-2.7942,-2.7894,-2.8145,-2.8891,-2.9652,-3.0431,-3.1209,-3.0661,-3.0076,-2.9723,-2.8948,-2.8953,-3.0224,-3.102,-3.1735,-3.2464,-3.2937,-3.3134,-3.3007,-3.4634,-3.5707,-3.6006,-3.7236,-3.7892,-3.7911,-3.7451,-3.721,-3.721,-3.7209,-3.7209,-3.7173,-3.6664,-3.6399,-3.634,-3.5803,-3.5554,-3.5532,-3.5554,-3.5554,-3.5464,-3.4742,-3.4438,-3.4252,-3.2801,-3.1819,-3.119,-3.119,-3.119,-3.119,-3.119,-3.119,-3.119,-3.119,-3.119,-3.119,-3.119,-3.121,-3.121,-3.121,-3.121,-3.121,-3.121,-3.1193,-3.0768,-2.9314,-2.8976,-2.8519,-2.6979,-2.6691,-2.6691,-2.6691,-2.6691,-2.6691,-2.6691,-2.6674,-2.6404,-2.5659,-2.4306,-2.3122,-2.2381,-2.2296,-2.2296,-2.2296,-2.2296,-2.2296,-2.2296,-2.231,-2.2426,-2.2682,-2.3009,-2.3346,-2.3682,-2.3369,-2.32,-2.32,-2.2624,-2.2338,-2.2338,-2.2338,-2.2463,0.0,0.0,-2.6319,-2.6862,-2.721,-2.7603,-2.84,-2.8396,-2.8106,-2.7742,-2.7273,-2.6817,-2.645,-2.6599,-2.7168,-2.8396,-2.9503,-3.0549,-3.1498,-3.0992,-3.0296,-2.9674,-2.9363,0.0,-2.9784,-3.0501,0.0,-3.2431,-3.2843,-3.3119,-3.3273,-3.4918,-3.5988,-3.6265,-3.7327,-3.7755,-3.7433,-3.6941,-3.6664,-3.6664,-3.6312,-3.6143,-3.6122,-3.5963,-3.5876,-3.5854,-3.5672,-3.56,-3.56,-3.56,-3.56,-3.5566,-3.5329,-3.4928,-3.4438,-3.3952,-3.2987,-3.187,-3.136,-3.119,-3.119,-3.119,-3.119,-3.119,-3.119,-3.119,-3.119,-3.119,-3.119,-3.119,-3.119,-3.119,-3.119,-3.119,-3.119,-3.092,-2.9939,-2.9736,-2.9279,-2.774,-2.7418,-2.7266,-2.6776,-2.6691,-2.6691,-2.6691,-2.6691,-2.642,-2.5693,-2.5169,-2.4391,-2.3156,-2.3038,-2.2835,-2.233,-2.2296,-2.2296,-2.2296,-2.2296,-2.2335,-2.244,-2.2699,-2.3033,-2.3357,-2.3265,-2.32,-2.32,-2.2764,-2.2477,-2.2296,-2.2296,-2.2349,0.0,-2.6641,-2.7218,-2.8026,-2.813,-2.8147,-2.8676,-2.8285,-2.7637,-2.7027,-2.6321,-2.5721,-2.5473,-2.5515,-2.613,-2.7741,-2.8769,-2.9827,-3.1219,-3.0869,-3.035,-3.0023,-2.9745,-2.9693,0.0,0.0,0.0,-3.2177,-3.2717,-3.3119,-3.3393,-3.4881,-3.5961,-3.6399,-3.7039,-3.7229,-3.6921,-3.6395,-3.6118,-3.6118,-3.5761,-3.56,-3.56,-3.56,-3.56,-3.56,-3.56,-3.56,-3.56,-3.56,-3.56,-3.56,-3.56,-3.5295,-3.4861,-3.459,-3.3728,-3.2598,-3.1853,-3.141,-3.119,-3.119,-3.119,-3.119,-3.119,-3.119,-3.119,-3.119,-3.119,-3.119,-3.119,-3.119,-3.119,-3.119,-3.119,-3.1004,-3.026,-3.0108,-2.9632,-2.8094,-2.7807,-2.757,-2.6826,-2.6691,-2.6691,-2.6691,-2.6691,-2.642,-2.5693,-2.5592,-2.5018,-2.3562,-2.3393,-2.3105,-2.2347,-2.2296,-2.2296,-2.2296,-2.2296,-2.2296,-2.2296,-2.2563,-2.281,-2.3021,-2.3021,-2.3021,-2.3021,-2.2717,-2.2463,-2.2296,-2.2296,-2.2296,-2.7259,-2.7813,-2.8044,-2.878,-2.8682,-2.8389,-2.8327,-2.7504,-2.6633,-2.6124,-2.5461,-2.4937,-2.4851,0.0,-2.5002,-2.6863,-2.7536,-2.8509,-3.0387,-3.0392,-3.0314,0.0,0.0,0.0,0.0,0.0,0.0,-3.1822,0.0,-3.3149,-3.3444,-3.4644,-3.5671,-3.6336,-3.6392,-3.6392,-3.6354,-3.5854,-3.56,-3.56,-3.56,-3.56,-3.56,-3.56,-3.56,-3.56,-3.56,-3.56,-3.56,-3.56,-3.56,-3.56,-3.56,-3.56,-3.5515,-3.481,-3.4083,-3.3355,-3.2615,-3.1853,-3.119,-3.119,-3.119,-3.119,-3.119,-3.119,-3.119,-3.119,-3.119,-3.119,-3.119,-3.119,-3.119,-3.119,-3.119,-3.1004,-3.0311,-3.0176,-2.97,-2.8213,-2.7858,-2.757,-2.6826,-2.6691,-2.6691,-2.6691,-2.6691,-2.6437,-2.5761,-2.5659,-2.5118,-2.3663,-2.3511,-2.319,-2.2415,-2.2347,-2.233,-2.2296,-2.2296,-2.2296,-2.2296,-2.2563,-2.2708,-2.2708,-2.2708,-2.2708,-2.2708,-2.244,-2.2296,-2.2296,-2.2296,-2.2296,-2.7132,-2.8007,-2.8672,-2.8578,-2.8471,-2.818,-2.7388,-2.6764,-2.5851,-2.4037,-2.3313,-2.2664,-2.1506,0.0,0.0,-2.4967,-2.6965,0.0,-3.006,-3.0892,0.0,-3.11,0.0,-3.2059,-3.192,-3.2704,0.0,0.0,-3.3169,-3.3569,-3.4206,-3.5435,-3.6017,-3.581,-3.6203,-3.6224,-3.5827,-3.5672,-3.56,-3.56,-3.56,-3.56,-3.56,-3.56,-3.56,-3.56,-3.56,-3.56,-3.56,-3.56,-3.56,-3.56,-3.56,-3.56,-3.5583,-3.538,-3.4861,-3.4117,-3.3372,-3.2273,-3.119,-3.119,-3.119,-3.119,-3.119,-3.119,-3.119,-3.119,-3.119,-3.119,-3.119,-3.119,-3.119,-3.119,-3.119,-3.114,-3.0954,-3.092,-3.0632,-2.9683,-2.8584,-2.757,-2.6826,-2.6691,-2.6691,-2.6691,-2.6691,-2.6623,-2.6437,-2.642,-2.6065,-2.5135,-2.505,-2.4526,-2.3224,-2.3122,-2.2885,-2.233,-2.2296,-2.2296,-2.2296,-2.2563,-2.2708,-2.2708,-2.2708,-2.2708,-2.2708,-2.244,-2.2296,-2.2296,-2.2296,-2.2296,-2.7573,-2.8221,-2.8682,-2.8458,-2.8052,-2.7402,-2.6316,-2.5243,-2.3941,-2.1975,-2.142,0.0,-1.9321,0.0,0.0,0.0,0.0,0.0,-2.9384,-3.0454,-3.121,0.0,-3.2458,0.0,-3.2808,-3.3588,-3.4046,0.0,-3.388,-3.4066,-3.4472,-3.5488,-3.592,-3.5622,-3.5898,-3.5898,-3.56,-3.56,-3.56,-3.56,-3.56,-3.56,-3.56,-3.56,-3.56,-3.56,-3.56,-3.56,-3.56,-3.56,-3.56,-3.56,-3.56,-3.56,-3.56,-3.56,-3.4945,-3.3964,-3.3541,-3.2645,-3.1684,-3.1684,-3.1464,-3.1258,-3.1562,-3.1464,-3.119,-3.119,-3.119,-3.119,-3.119,-3.119,-3.119,-3.119,-3.119,-3.119,-3.119,-3.119,-3.097,-3.0243,-2.8855,-2.7672,-2.7249,-2.6911,-2.6691,-2.6691,-2.6691,-2.6691,-2.6691,-2.6691,-2.642,-2.5693,-2.5592,-2.5135,-2.3983,-2.3594,-2.3224,-2.2818,-2.2482,-2.2296,-2.2296,-2.2436,-2.251,-2.251,-2.251,-2.251,-2.251,-2.2374,-2.2296,-2.2296,-2.2296,-2.2296,-2.8157,-2.8324,-2.8324,-2.8324,-2.7531,-2.6408,-2.5227,-2.3487,-2.1688,-2.0052,0.0,-1.9169,-1.7884,-1.935,-2.1089,-2.2127,0.0,-2.6285,-2.8671,-2.9634,-3.0649,-3.2124,-3.276,-3.3181,-3.3516,-3.4004,-3.4411,-3.4634,-3.4641,-3.4641,-3.4641,-3.5245,-3.56,-3.56,-3.56,-3.56,-3.56,-3.56,-3.56,-3.56,-3.56,-3.56,-3.56,-3.56,-3.56,-3.56,-3.56,-3.56,-3.56,-3.56,-3.56,-3.56,-3.56,-3.56,-3.5583,-3.5481,-3.4636,-3.3525,-3.3322,-3.2831,-3.2276,-3.2192,-3.1802,-3.1464,-3.1989,-3.1718,-3.119,-3.119,-3.119,-3.119,-3.119,-3.119,-3.119,-3.119,-3.119,-3.119,-3.119,-3.119,-3.097,-3.0243,-2.8939,-2.7925,-2.7824,-2.7199,-2.6691,-2.6691,-2.6691,-2.6691,-2.6691,-2.6691,-2.6454,-2.5812,-2.5761,-2.5456,-2.4711,-2.4068,-2.3613,-2.341,-2.2801,-2.2398,-2.2296,-2.2296,-2.2296,-2.2296,-2.2296,-2.2296,-2.2296,-2.2296,-2.2296,-2.2296,-2.2296,-2.2296,-2.8025,-2.7996,-2.7996,-2.7996,-2.7144,-2.593,-2.451,-2.2743,0.0,0.0,0.0,-1.7196,-1.6942,-1.771,0.0,-2.1874,0.0,0.0,0.0,0.0,-3.0649,0.0,0.0,0.0,0.0,0.0,0.0,0.0,-3.5397,-3.5397,-3.5397,-3.5532,-3.56,-3.56,-3.56,-3.56,-3.56,-3.56,-3.56,-3.56,-3.56,-3.56,-3.56,-3.56,-3.56,-3.56,-3.56,-3.56,-3.56,-3.56,-3.56,-3.56,-3.56,-3.56,-3.5515,-3.4912,-3.4523,-3.4117,-3.2919,-3.2412,-3.2209,-3.1599,-3.1718,-3.2022,-3.1549,-3.1292,-3.119,-3.119,-3.119,-3.119,-3.119,-3.119,-3.119,-3.119,-3.119,-3.119,-3.119,-3.119,-3.097,-3.0243,-2.9381,-2.8569,-2.7908,-2.7199,-2.6691,-2.6691,-2.6691,-2.6691,-2.6691,-2.6691,-2.664,-2.6522,-2.6505,-2.6201,-2.5473,-2.5287,-2.4712,-2.3477,-2.3274,-2.2936,-2.233,-2.2296,-2.2296,-2.2296,-2.2296,-2.2296,-2.2296,-2.2296,-2.2296,-2.2296,-2.2296,-2.2296,-2.7773,-2.7754,-2.7589,-2.7589,-2.66,-2.519,-2.3495,0.0,0.0,0.0,0.0,-1.5893,-1.5124,0.0,0.0,0.0,0.0,0.0,0.0,0.0,0.0,0.0,0.0,0.0,0.0,0.0,-3.5199,-3.5566,-3.56,-3.56,-3.56,-3.56,-3.56,-3.56,-3.56,-3.56,-3.56,-3.56,-3.56,-3.56,-3.56,-3.56,-3.56,-3.56,-3.56,-3.56,-3.56,-3.56,-3.56,-3.56,-3.56,-3.5566,-3.5182,-3.503,-3.4945,-3.4201,-3.3677,-3.3258,-3.2547,-3.2293,-3.2175,-3.1427,-3.1427,-3.1735,-3.1769,-3.1495,-3.119,-3.119,-3.119,-3.119,-3.119,-3.119,-3.119,-3.119,-3.119,-3.119,-3.119,-3.119,-3.097,-3.0243,-2.9499,-2.8756,-2.7942,-2.7199,-2.6691,-2.6691,-2.6691,-2.6691,-2.6691,-2.6691,-2.6691,-2.6691,-2.6691,-2.6556,-2.6201,-2.5828,-2.5135,-2.4051,-2.3613,-2.3071,-2.233,-2.2296,-2.2296,-2.2296,-2.2296,-2.2296,-2.2296,-2.2296,-2.2296,-2.2296,-2.2296,-2.2296,-2.7288,-2.7347,-2.7159,-2.708,-2.6009,-2.4439,-2.2402,-2.0242,0.0,0.0,-1.524,-1.4826,-1.3828,0.0,0.0,0.0,0.0,0.0,0.0,0.0,0.0,0.0,0.0,0.0,0.0,0.0,0.0,-3.5312,-3.5498,-3.56,-3.56,-3.56,-3.56,-3.56,-3.56,-3.56,-3.56,-3.56,-3.56,-3.56,-3.56,-3.56,-3.56,-3.56,-3.56,-3.56,-3.56,-3.56,-3.56,-3.56,-3.5498,-3.5318,-3.4726,-3.4387,-3.4167,-3.344,-3.2797,-3.2276,-3.2124,-3.2056,-3.1972,-3.1396,-3.1309,-3.1495,-3.1938,-3.1667,-3.119,-3.119,-3.119,-3.119,-3.119,-3.119,-3.119,-3.119,-3.119,-3.119,-3.119,-3.119,-3.097,-3.0243,-2.9499,-2.8756,-2.7942,-2.7199,-2.6691,-2.6691,-2.6691,-2.6691,-2.6691,-2.6691,-2.6691,-2.6691,-2.6691,-2.6691,-2.6691,-2.6167,-2.5456,-2.4558,-2.4086,-2.3477,-2.2567,-2.2533,-2.2533,-2.2533,-2.2381,-2.2296,-2.2296,-2.2296,-2.2296,-2.2296,-2.2296,-2.2296,-2.6323,-2.6536,-2.6687,-2.6379,-2.5405,-2.3877,-2.1349,0.0,0.0,-1.5061,-1.4073,-1.376,-1.4301,0.0,0.0,0.0,0.0,0.0,0.0,0.0,0.0,0.0,0.0,0.0,0.0,0.0,-3.4523,-3.459,-3.5211,-3.56,-3.56,-3.56,-3.56,-3.56,-3.56,-3.56,-3.56,-3.56,-3.56,-3.56,-3.56,-3.56,-3.56,-3.56,-3.56,-3.56,-3.56,-3.56,-3.56,-3.56,-3.5216,-3.459,-3.4523,-3.4083,-3.3406,-3.2662,-3.2361,-3.2209,-3.1532,-3.1292,-3.1275,-3.1207,-3.1667,-3.209,-3.1481,-3.1241,-3.119,-3.119,-3.119,-3.119,-3.119,-3.119,-3.119,-3.119,-3.119,-3.119,-3.119,-3.119,-3.097,-3.0243,-2.9499,-2.8756,-2.7942,-2.7199,-2.6691,-2.6691,-2.6691,-2.6691,-2.6691,-2.6691,-2.6691,-2.6691,-2.6691,-2.6691,-2.6691,-2.664,-2.6014,-2.4592,-2.5067,-2.478,-2.3359,-2.3291,-2.3291,-2.3291,-2.2634,-2.2296,-2.2296,-2.2296,-2.2296,-2.2296,-2.2296,-2.2296,-2.5769,-2.5786,-2.5437,-2.5763,-2.4834,-2.3214,-2.0789,0.0,-1.7174,-1.496,-1.3904,-1.3498,-1.3777,-1.4199,-1.518,0.0,0.0,0.0,0.0,0.0,0.0,0.0,0.0,0.0,0.0,0.0,-3.3359,-3.3795,-3.4117,-3.4264,-3.4264,-3.5109,-3.5397,-3.4962,-3.5363,-3.538,-3.4945,-3.538,-3.56,-3.5583,-3.5165,-3.5182,-3.5566,-3.467,-3.4754,-3.5549,-3.4653,-3.4539,-3.4912,-3.4472,-3.4117,-3.3795,-3.3359,-3.3004,-3.2645,-3.1921,-3.165,-3.1616,-3.1292,-3.119,-3.119,-3.119,-3.1393,-3.1562,-3.1275,-3.119,-3.119,-3.119,-3.119,-3.119,-3.119,-3.119,-3.119,-3.119,-3.119,-3.119,-3.119,-3.0852,-3.0328,-2.9567,-2.8805,-2.8044,-2.7266,-2.6894,-2.6691,-2.6691,-2.6691,-2.6691,-2.6691,-2.6691,-2.6691,-2.6691,-2.6691,-2.6691,-2.6691,-2.6691,-2.6251,-2.522,-2.5439,-2.5135,-2.4101,-2.4068,-2.4068,-2.4068,-2.3342,-2.3173,-2.3613,-2.3173,-2.297,-2.297,-2.341,-2.3376,-2.4491,-2.4787,-2.4575,-2.4864,-2.4002,-2.2429,0.0,0.0,-1.6847,-1.4631,-1.376,-1.3396,-1.3396,-1.3819,-1.4665,0.0,-1.6563,-1.7738,-2.078,0.0,0.0,0.0,0.0,0.0,0.0,-3.1921,-3.2615,-3.3339,-3.3406,-3.3406,-3.3406,-3.4366,-3.4726,-3.4184,-3.4692,-3.4687,-3.4184,-3.4692,-3.494,-3.494,-3.4421,-3.4455,-3.4906,-3.3858,-3.3981,-3.489,-3.3842,-3.3694,-3.4134,-3.3609,-3.3271,-3.3017,-3.2513,-3.2175,-3.1921,-3.1396,-3.119,-3.119,-3.119,-3.119,-3.119,-3.119,-3.119,-3.119,-3.119,-3.119,-3.119,-3.119,-3.119,-3.119,-3.119,-3.119,-3.119,-3.119,-3.119,-3.119,-3.119,-3.0615,-2.9888,-2.9145,-2.8349,-2.757,-2.6826,-2.6691,-2.6691,-2.6691,-2.6691,-2.6691,-2.6691,-2.6691,-2.6691,-2.6691,-2.6691,-2.6691,-2.6691,-2.6691,-2.6387,-2.5643,-2.5812,-2.5592,-2.4863,-2.4829,-2.4829,-2.4829,-2.4101,-2.3983,-2.4491,-2.3983,-2.3729,-2.3746,-2.4254,-2.4338,-2.2124,-2.3408,-2.4321,-2.3596,-2.2868,-2.1519,0.0,-1.7253,-1.6089,-1.387,-1.3413,-1.3396,-1.3396,-1.3413,-1.3879,-1.5358,-1.6214,-1.7738,-2.078,0.0,0.0,0.0,0.0,0.0,0.0,-3.1007,-3.2615,-3.3339,-3.3406,-3.3406,-3.3406,-3.3423,-3.3423,-3.3423,-3.3423,-3.3423,-3.3423,-3.3423,-3.3423,-3.3423,-3.3423,-3.3423,-3.3423,-3.3406,-3.3406,-3.3423,-3.3406,-3.3406,-3.3423,-3.3406,-3.2966,-3.231,-3.2293,-3.1853,-3.1207,-3.119,-3.119,-3.119,-3.119,-3.119,-3.119,-3.119,-3.119,-3.119,-3.119,-3.119,-3.119,-3.119,-3.119,-3.119,-3.119,-3.119,-3.119,-3.119,-3.119,-3.119,-3.119,-3.0615,-2.9888,-2.9145,-2.8349,-2.757,-2.6826,-2.6691,-2.6691,-2.6691,-2.6691,-2.6691,-2.6691,-2.6691,-2.6691,-2.6691,-2.6691,-2.6691,-2.6691,-2.6691,-2.6387,-2.5643,-2.6285,-2.6353,-2.5625,-2.5592,-2.5592,-2.5592,-2.4863,-2.4491,-2.4491,-2.4491,-2.4491,-2.4491,-2.4491,-2.4897,-1.9773,-2.0314,-2.0615,-2.0378,-2.0145,-1.9333,-1.6864,-1.6502,-1.6072,-1.3853,-1.3396,-1.3396,-1.3396,-1.3396,-1.4057,-1.6028,0.0,0.0,0.0,0.0,0.0,0.0,0.0,0.0,0.0,0.0,-3.1667,-3.1884,-3.1901,-3.1901,-3.1901,-3.1901,-3.2121,-3.2632,-3.3136,-3.3169,-3.2666,-3.3152,-3.3406,-3.3406,-3.2882,-3.2899,-3.3372,-3.2357,-3.2459,-3.3355,-3.2324,-3.2171,-3.2615,-3.2087,-3.1749,-3.1565,-3.1565,-3.1413,-3.119,-3.119,-3.119,-3.119,-3.119,-3.119,-3.119,-3.119,-3.119,-3.119,-3.119,-3.119,-3.119,-3.119,-3.119,-3.119,-3.119,-3.119,-3.119,-3.119,-3.119,-3.119,-3.119,-3.0209,-2.9281,-2.9044,-2.7943,-2.6962,-2.6742,-2.6691,-2.6691,-2.6691,-2.6691,-2.6691,-2.6691,-2.6691,-2.6691,-2.6691,-2.6691,-2.6691,-2.6691,-2.6691,-2.659,-2.637,-2.6573,-2.659,-2.6353,-2.6353,-2.6353,-2.6353,-2.5625,-2.549,-2.6014,-2.549,-2.5507,-2.5997,-2.549,-2.5642,0.0,-1.8065,-1.8488,-1.8488,-1.8279,-1.7636,-1.5967,-1.574,-1.5402,-1.3735,-1.3396,-1.3396,-1.3396,-1.3396,-1.404,-1.596,0.0,0.0,0.0,0.0,0.0,0.0,0.0,0.0,0.0,-3.1038,-3.119,-3.119,-3.119,-3.119,-3.119,-3.119,-3.1413,-3.187,-3.2324,-3.2341,-3.1904,-3.2341,-3.2577,-3.256,-3.2087,-3.2121,-3.2544,-3.1613,-3.1698,-3.2527,-3.1596,-3.1464,0.0,-3.1396,-3.119,-3.119,-3.119,-3.119,-3.119,-3.119,-3.119,-3.119,-3.119,-3.119,-3.119,-3.119,-3.119,-3.119,-3.119,-3.119,-3.119,-3.119,-3.119,-3.119,-3.119,-3.119,-3.119,-3.119,-3.119,-3.1123,-3.0852,-2.9837,-2.8908,-2.8602,-2.7537,-2.6691,-2.6691,-2.6691,-2.6691,-2.6691,-2.6691,-2.6691,-2.6691,-2.6691,-2.6691,-2.6691,-2.6691,-2.6691,-2.6691,-2.6691,-2.6691,-2.6691,-2.6691,-2.6691,-2.6691,-2.6691,-2.6691,-2.6691,-2.6251,-2.6234,-2.6691,-2.6234,-2.6251,-2.6691,-2.6234,-2.6251,0.0,-1.6289,-1.7394,-1.7343,-1.6847,-1.618,-1.5453,-1.4825,0.0,-1.3472,-1.3362,-1.343,-1.3549,-1.3515,-1.4014,-1.5646,0.0,0.0,0.0,0.0,0.0,0.0,0.0,0.0,-3.0125,-3.0801,-3.119,-3.119,-3.119,-3.119,-3.119,-3.119,-3.119,-3.119,-3.119,-3.119,-3.119,-3.119,-3.119,-3.119,-3.119,-3.119,-3.119,-3.119,-3.119,-3.119,-3.119,-3.119,-3.119,-3.119,-3.119,-3.119,-3.119,-3.119,-3.119,-3.119,-3.119,-3.119,-3.119,-3.119,-3.119,-3.119,-3.119,-3.119,-3.119,-3.119,-3.119,-3.119,-3.119,-3.119,-3.119,-3.119,-3.119,-3.119,-3.1157,-3.092,-3.026,-2.9482,-2.8687,-2.7942,-2.7199,-2.6691,-2.6691,-2.6691,-2.6691,-2.6691,-2.6691,-2.6691,-2.6691,-2.6691,-2.6691,-2.6691,-2.6691,-2.6691,-2.6691,-2.6691,-2.6691,-2.6691,-2.6691,-2.6691,-2.6691,-2.6691,-2.6691,-2.6691,-2.6691,-2.6691,-2.6691,-2.6691,-2.6691,-2.6691,-2.6691,-2.6691,-1.1173,0.0,-1.3447,-1.2821,-1.3007,-1.3134,0.0,-1.2948,0.0,0.0,0.0,-1.3743,-1.4877,-1.4614,-1.5281,0.0,0.0,0.0,0.0,0.0,0.0,0.0,0.0,-3.0751,-3.092,-3.1089,-3.119,-3.119,-3.119,-3.119,-3.119,-3.119,-3.119,-3.119,-3.119,-3.119,-3.119,-3.119,-3.119,-3.119,-3.119,-3.119,-3.119,-3.119,-3.119,-3.119,-3.119,-3.119,-3.119,-3.119,-3.119,-3.119,-3.119,-3.119,-3.119,-3.119,-3.119,-3.119,-3.119,-3.119,-3.119,-3.119,-3.119,-3.119,-3.119,-3.119,-3.119,-3.119,-3.119,-3.119,-3.119,-3.119,-3.119,-3.119,-3.0768,-3.0311,-3.0142,-2.9024,-2.8027,-2.7841,-2.7199,-2.6691,-2.6691,-2.6691,-2.6691,-2.6691,-2.6691,-2.6691,-2.6691,-2.6691,-2.6691,-2.6691,-2.6691,-2.6691,-2.6691,-2.6691,-2.6691,-2.6691,-2.6691,-2.6691,-2.6691,-2.6691,-2.6691,-2.6691,-2.6691,-2.6691,-2.6691,-2.6691,-2.6691,-2.6691,-2.6691,-2.6691,-0.9489,-1.112,-1.2694,-1.2254,-1.2737,-1.321,-1.277,0.0,0.0,0.0,0.0,0.0,-1.4885,0.0,0.0,0.0,0.0,0.0,0.0,0.0,0.0,0.0,-3.0313,-3.119,0.0,-3.119,-3.119,-3.119,-3.119,-3.119,-3.119,-3.119,-3.119,-3.119,-3.119,-3.119,-3.119,-3.119,-3.119,-3.119,-3.119,-3.119,-3.119,-3.119,-3.119,-3.119,-3.119,-3.119,-3.119,-3.119,-3.119,-3.119,-3.119,-3.119,-3.119,-3.119,-3.119,-3.119,-3.119,-3.119,-3.119,-3.119,-3.119,-3.119,-3.119,-3.119,-3.119,-3.119,-3.119,-3.119,-3.119,-3.119,-3.119,-3.119,-3.0632,-3.0023,-2.9668,-2.8653,-2.7705,-2.735,-2.6962,-2.6691,-2.6691,-2.6691,-2.6691,-2.6691,-2.6691,-2.6691,-2.6691,-2.6691,-2.6691,-2.6691,-2.6691,-2.6691,-2.6691,-2.6691,-2.6691,-2.6691,-2.6691,-2.6691,-2.6691,-2.6691,-2.6691,-2.6691,-2.6691,-2.6691,-2.6691,-2.6691,-2.6691,-2.6691,-2.6691,-2.6691,-0.9185,-1.1262,-1.3328,-1.2973,-1.3616,-1.4301,0.0,0.0,0.0,0.0,0.0,0.0,0.0,0.0,0.0,0.0,0.0,0.0,0.0,0.0,0.0,0.0,-3.0192,0.0,-3.1021,-3.1123,-3.114,-3.1038,-3.114,-3.119,-3.119,-3.119,-3.119,-3.119,-3.119,-3.119,-3.119,-3.119,-3.119,-3.119,-3.119,-3.119,-3.119,-3.119,-3.119,-3.119,-3.119,-3.119,-3.119,-3.119,-3.119,-3.119,-3.119,-3.119,-3.119,-3.119,-3.119,-3.119,-3.119,-3.119,-3.119,-3.119,-3.119,-3.119,-3.119,-3.119,-3.119,-3.119,-3.119,-3.119,-3.119,-3.119,-3.119,-3.119,-3.0632,-2.9905,-2.9162,-2.8366,-2.757,-2.6843,-2.6691,-2.6691,-2.6691,-2.6691,-2.6691,-2.6691,-2.6691,-2.6691,-2.6691,-2.6691,-2.6691,-2.6691,-2.6691,-2.6691,-2.6691,-2.6691,-2.6691,-2.6691,-2.6691,-2.6691,-2.6691,-2.6691,-2.6691,-2.6691,-2.6691,-2.6691,-2.6691,-2.6691,-2.6691,-2.6691,-2.6691,-2.6691,-1.0426,-1.2051,-1.2939,-1.1004,-1.206,-1.3405,0.0,0.0,0.0,0.0,0.0,0.0,0.0,0.0,0.0,0.0,0.0,0.0,0.0,0.0,-2.7385,-2.8824,0.0,-3.0277,-3.0277,-3.0835,-3.0937,-3.0328,-3.0852,-3.119,-3.119,-3.119,-3.119,-3.119,-3.119,-3.119,-3.119,-3.119,-3.119,-3.119,-3.119,-3.119,-3.119,-3.119,-3.119,-3.119,-3.119,-3.119,-3.119,-3.119,-3.119,-3.119,-3.119,-3.119,-3.119,-3.119,-3.119,-3.119,-3.119,-3.119,-3.119,-3.119,-3.119,-3.119,-3.119,-3.119,-3.119,-3.119,-3.119,-3.119,-3.119,-3.119,-3.119,-3.119,-3.0632,-2.9905,-2.9162,-2.8366,-2.757,-2.6843,-2.6691,-2.6691,-2.6691,-2.6691,-2.6691,-2.6691,-2.6691,-2.6691,-2.6691,-2.6691,-2.6691,-2.6691,-2.6691,-2.6691,-2.6691,-2.6691,-2.6691,-2.6691,-2.6691,-2.6691,-2.6691,-2.6691,-2.6691,-2.6691,-2.6691,-2.6691,-2.6691,-2.6691,-2.6691,-2.6691,-2.6691,-2.6691,-0.9721,-1.1323,-1.2558,-1.1495,-1.3532,-1.5697,0.0,0.0,0.0,0.0,0.0,0.0,0.0,0.0,0.0,0.0,0.0,-2.5203,-2.5542,-2.659,-2.7571,0.0,0.0,-2.9499,-2.9499,-2.9803,-2.9873,-2.9533,-2.9822,-3.0025,-3.0025,-3.0025,-3.0025,-3.0025,-3.0025,-3.0192,-3.0598,-3.0615,-3.0801,-3.119,-3.119,-3.119,-3.119,-3.119,-3.119,-3.119,-3.119,-3.119,-3.119,-3.119,-3.119,-3.119,-3.119,-3.119,-3.119,-3.119,-3.119,-3.119,-3.119,-3.119,-3.119,-3.119,-3.119,-3.119,-3.119,-3.119,-3.119,-3.119,-3.119,-3.119,-3.119,-3.119,-3.119,-3.119,-3.0328,-2.9397,-2.9077,-2.8044,-2.7114,-2.6759,-2.6691,-2.6691,-2.6691,-2.6691,-2.6691,-2.6691,-2.6691,-2.6691,-2.6691,-2.6691,-2.6691,-2.6691,-2.6691,-2.6691,-2.6691,-2.6691,-2.6691,-2.6691,-2.6691,-2.6691,-2.6691,-2.6691,-2.6691,-2.6691,-2.6691,-2.6691,-2.6691,-2.6691,-2.6691,-2.6691,-2.6691,-2.6691,-0.9315,-1.0832,-1.2381,0.0,0.0,0.0,0.0,0.0,0.0,0.0,0.0,0.0,0.0,0.0,0.0,0.0,0.0,-2.5659,-2.5845,-2.6826,-2.7604,-2.779,-2.8349,-2.8722,-2.8722,-2.8891,-2.8925,-2.8721,-2.8891,-2.8993,-2.8993,-2.8993,-2.8993,-2.8993,-2.8993,-2.9281,-2.9837,-2.9837,-3.0209,-3.0937,-3.0937,-3.0852,-3.0683,-3.0852,-3.0937,-3.0954,-3.1123,-3.119,-3.119,-3.119,-3.119,-3.119,-3.119,-3.119,-3.119,-3.119,-3.119,-3.119,-3.119,-3.119,-3.119,-3.119,-3.119,-3.119,-3.119,-3.119,-3.119,-3.119,-3.1072,-3.097,-3.1157,-3.1072,-3.0937,-3.0937,-2.9939,-2.8942,-2.8773,-2.7791,-2.6911,-2.6725,-2.6691,-2.6691,-2.6691,-2.6691,-2.6691,-2.6691,-2.6691,-2.6691,-2.6691,-2.6691,-2.6691,-2.6691,-2.6691,-2.6691,-2.6691,-2.6691,-2.6691,-2.6691,-2.6691,-2.6691,-2.6691,-2.6691,-2.6691,-2.6691,-2.6691,-2.6691,-2.6691,-2.6691,-2.6691,-2.6691,-2.6691,-2.6691,-1.0578,-1.1603,-1.2635,-1.3996,0.0,0.0,0.0,0.0,0.0,0.0,0.0,0.0,0.0,0.0,0.0,0.0,-2.5067,-2.5845,-2.6522,0.0,-2.7029,-2.7722,-2.7858,-2.7891,-2.7891,-2.8552,-2.8687,-2.7942,-2.8569,-2.8993,-2.8993,-2.8993,-2.8993,-2.8993,-2.8993,-2.9027,-2.9077,-2.9077,-2.9467,-3.0192,-3.0192,-2.982,-2.9179,-2.9871,-3.0192,-3.0226,-3.0903,-3.119,-3.119,-3.119,-3.119,-3.119,-3.119,-3.119,-3.119,-3.119,-3.119,-3.119,-3.119,-3.119,-3.119,-3.119,-3.119,-3.119,-3.119,-3.119,-3.119,-3.119,-3.0717,-3.0345,-3.1021,-3.0683,-3.0192,-3.0192,-2.9567,-2.8807,-2.8043,-2.7807,-2.7519,-2.6826,-2.6691,-2.6691,-2.6691,-2.6691,-2.6691,-2.6691,-2.6691,-2.6691,-2.6691,-2.6691,-2.6691,-2.6691,-2.6691,-2.6691,-2.6691,-2.6691,-2.6691,-2.6691,-2.6691,-2.6691,-2.6691,-2.6691,-2.6691,-2.6691,-2.6691,-2.6691,-2.6691,-2.6691,-2.6691,-2.6691,-2.6691,-2.6691,-0.9586,-1.1323,-1.3117,-1.3676,0.0,0.0,0.0,0.0,0.0,0.0,0.0,0.0,0.0,0.0,0.0,0.0,-2.5118,-2.5862,-2.659,-2.6691,-2.6793,-2.708,-2.7114,-2.7114,-2.7114,-2.7385,-2.7435,-2.7148,-2.7402,-2.7571,-2.7571,-2.7571,-2.7571,-2.7571,-2.7571,-2.7791,-2.8247,-2.8264,-2.8382,-2.8669,-2.9178,-2.9281,-2.901,-2.9297,-2.9433,-2.9433,-2.9721,-2.9839,-2.9873,-3.0328,-3.0243,-2.989,-3.0345,-3.0531,-3.0581,-3.1021,-3.119,-3.119,-3.119,-3.0903,-3.0531,-3.0531,-3.0531,-3.0429,-2.9974,-3.0142,-3.0429,-2.9974,-2.9636,-2.9583,-3.0328,-2.9973,-2.9433,-2.9433,-2.8822,-2.8162,-2.7874,-2.7435,-2.7029,-2.6742,-2.6691,-2.6691,-2.6691,-2.6691,-2.6691,-2.6691,-2.6691,-2.6691,-2.6691,-2.6691,-2.6691,-2.6691,-2.6691,-2.6691,-2.6691,-2.6691,-2.6691,-2.6691,-2.6691,-2.6691,-2.6691,-2.6691,-2.6691,-2.6691,-2.6691,-2.6691,-2.6691,-2.6691,-2.6691,-2.6691,-2.6691,-2.6691,-0.9241,-1.1103,-1.3151,0.0,0.0,0.0,0.0,0.0,0.0,0.0,0.0,0.0,0.0,0.0,0.0,0.0,-2.5118,-2.5862,-2.659,-2.6691,-2.6691,-2.6691,-2.6691,-2.6691,-2.6691,-2.6691,-2.6691,-2.6691,-2.6691,-2.6691,-2.6691,-2.6691,-2.6691,-2.6691,-2.6691,-2.6945,-2.7452,-2.7452,-2.7452,-2.7452,-2.801,-2.8282,-2.8282,-2.8501,-2.8619,-2.8636,-2.8891,-2.8993,-2.9044,-2.9533,-2.9448,-2.9044,-2.955,-2.9753,-2.9803,-3.0311,-3.0516,-3.0516,-3.0516,-3.0176,-2.9753,-2.9753,-2.9753,-2.9651,-2.9162,-2.9365,-2.9651,-2.9145,-2.8824,-2.8738,-2.9227,-2.9008,-2.8619,-2.8619,-2.8027,-2.7452,-2.7452,-2.7063,-2.6691,-2.6691,-2.6691,-2.6691,-2.6691,-2.6691,-2.6691,-2.6691,-2.6691,-2.6691,-2.6691,-2.6691,-2.6691,-2.6691,-2.6691,-2.6691,-2.6691,-2.6691,-2.6691,-2.6691,-2.6691,-2.6691,-2.6691,-2.6691,-2.6691,-2.6691,-2.6691,-2.6691,-2.6691,-2.6691,-2.6691,-2.6691,-2.6691,-2.6691,-1.0001,-1.114,0.0,0.0,0.0,0.0,0.0,0.0,0.0,0.0,0.0,0.0,0.0,0.0,0.0,-2.4389,-2.5118,-2.5862,-2.659,-2.6691,-2.6691,-2.6691,-2.6691,-2.6691,-2.6691,-2.6691,-2.6691,-2.6691,-2.6691,-2.6691,-2.6691,-2.6691,-2.6691,-2.6691,-2.6691,-2.6691,-2.6691,-2.6691,-2.6691,-2.6691,-2.6691,-2.6691,-2.6725,-2.7452,-2.779,-2.7841,-2.8619,-2.8976,-2.8976,-2.8976,-2.8976,-2.8993,-2.8993,-2.8993,-2.8993,-2.8993,-2.8993,-2.8993,-2.8993,-2.8993,-2.8993,-2.8993,-2.8993,-2.8993,-2.8976,-2.8976,-2.8993,-2.8976,-2.8399,-2.779,-2.779,-2.779,-2.779,-2.779,-2.7232,-2.6691,-2.6691,-2.6691,-2.6691,-2.6691,-2.6691,-2.6691,-2.6691,-2.6691,-2.6691,-2.6691,-2.6691,-2.6691,-2.6691,-2.6691,-2.6691,-2.6691,-2.6691,-2.6691,-2.6691,-2.6691,-2.6691,-2.6691,-2.6691,-2.6691,-2.6691,-2.6691,-2.6691,-2.6691,-2.6691,-2.6691,-2.6691,-2.6691,-2.6691,-2.6691,-2.6691,-2.6691,-1.0001,0.0,0.0,0.0,0.0,0.0,0.0,0.0,0.0,0.0,0.0,0.0,0.0,0.0,0.0,-2.5067,-2.5456,-2.5862,-2.659,-2.6691,-2.6691,-2.6691,-2.6691,-2.6691,-2.6691,-2.6691,-2.6691,-2.6691,-2.6691,-2.6691,-2.6691,-2.6691,-2.6691,-2.6691,-2.6691,-2.6691,-2.6691,-2.6691,-2.6691,-2.6691,-2.6691,-2.6691,-2.6725,-2.6928,-2.7029,-2.7046,-2.7283,-2.7368,-2.7368,-2.7368,-2.7689,-2.8145,-2.8145,-2.8145,-2.823,-2.8807,-2.8993,-2.8993,-2.8993,-2.8619,-2.8145,-2.8145,-2.8145,-2.8061,-2.7537,-2.774,-2.8061,-2.752,-2.7199,-2.7029,-2.7029,-2.7029,-2.7029,-2.7029,-2.686,-2.6691,-2.6691,-2.6691,-2.6691,-2.6691,-2.6691,-2.6691,-2.6691,-2.6691,-2.6691,-2.6691,-2.6691,-2.6691,-2.6691,-2.6691,-2.6691,-2.6691,-2.6691,-2.6691,-2.6691,-2.6691,-2.6691,-2.6691,-2.6691,-2.6691,-2.6691,-2.6691,-2.6691,-2.6691,-2.6691,-2.6691,-2.6691,-2.6691,-2.6691,-2.6691,-2.6691,-2.6691,-1.118,0.0,0.0,0.0,0.0,0.0,0.0,0.0,0.0,0.0,0.0,0.0,0.0,-2.3393,0.0,-2.4577,-2.4966,-2.5321,-2.576,-2.5828,-2.5828,-2.5828,-2.6082,-2.6251,-2.6251,-2.6522,-2.6691,-2.6691,-2.6691,-2.6691,-2.6691,-2.6691,-2.6691,-2.6691,-2.6691,-2.6691,-2.6691,-2.6691,-2.6691,-2.6691,-2.6691,-2.6691,-2.6691,-2.6691,-2.6691,-2.6691,-2.6691,-2.6691,-2.6691,-2.6691,-2.6962,-2.735,-2.735,-2.735,-2.7435,-2.791,-2.8096,-2.8096,-2.8096,-2.7757,-2.735,-2.735,-2.735,-2.7266,-2.6826,-2.7012,-2.7283,-2.6826,-2.6691,-2.6691,-2.6691,-2.6691,-2.6691,-2.6691,-2.6691,-2.6691,-2.6691,-2.6691,-2.6691,-2.6691,-2.6691,-2.6691,-2.6691,-2.6691,-2.6691,-2.6691,-2.6691,-2.6691,-2.6691,-2.6691,-2.6691,-2.6691,-2.6691,-2.6691,-2.6691,-2.6691,-2.6691,-2.6691,-2.6691,-2.6691,-2.6691,-2.6691,-2.6691,-2.6691,-2.6691,-2.6691,-2.6691,-2.6691,-2.6691,-2.6691,-2.6691,-2.6691,0.0,0.0,0.0,0.0,0.0,0.0,0.0,0.0,0.0,0.0,0.0,0.0,-2.3257,-2.3393,-2.341,-2.3477,-2.4068,-2.4491,-2.4491,-2.4491,-2.4491,-2.4491,-2.5084,-2.5507,-2.5507,-2.6116,-2.6471,-2.6438,-2.6438,-2.6421,-2.6371,-2.6421,-2.6421,-2.6371,-2.6421,-2.6438,-2.6438,-2.6505,-2.6556,-2.659,-2.6657,-2.6691,-2.6691,-2.6691,-2.6691,-2.6691,-2.6691,-2.6691,-2.6691,-2.6691,-2.6691,-2.6691,-2.6691,-2.6691,-2.6691,-2.6691,-2.6691,-2.6691,-2.6691,-2.6691,-2.6691,-2.6691,-2.6691,-2.6691,-2.6691,-2.6691,-2.6691,-2.6691,-2.6691,-2.6691,-2.6691,-2.6691,-2.6691,-2.6691,-2.6691,-2.6691,-2.6691,-2.6691,-2.6691,-2.6691,-2.6691,-2.6691,-2.6691,-2.6691,-2.6691,-2.6691,-2.6691,-2.6691,-2.6691,-2.6691,-2.6691,-2.6691,-2.6691,-2.6691,-2.6691,-2.6691,-2.6691,-2.6691,-2.6691,-2.6691,-2.6691,-2.6691,-2.6691,-2.6691,-2.6691,-2.6691,-2.6691,-2.6691,-2.6691,-2.6691,-2.6691,-2.6691,0.0,0.0,0.0,0.0,0.0,0.0,0.0,0.0,0.0,0.0,0.0,-2.253,-2.3257,-2.3393,-2.3594,-2.4169,-2.4389,-2.4491,-2.4491,-2.4491,-2.4491,-2.4491,-2.4643,-2.4745,-2.4745,-2.488,-2.4838,-2.453,-2.4497,-2.4348,-2.3958,-2.4314,-2.4331,-2.3958,-2.4314,-2.4497,-2.4497,-2.5079,-2.5514,-2.5845,-2.642,-2.6691,-2.6691,-2.6691,-2.6691,-2.6691,-2.6691,-2.6691,-2.6691,-2.6691,-2.6691,-2.6691,-2.6691,-2.6691,-2.6691,-2.6691,-2.6691,-2.6691,-2.6691,-2.6691,-2.6691,-2.6691,-2.6691,-2.6691,-2.6691,-2.6691,-2.6691,-2.6691,-2.6691,-2.6691,-2.6691,-2.6691,-2.6691,-2.6691,-2.6691,-2.6691,-2.6691,-2.6691,-2.6691,-2.6691,-2.6691,-2.6691,-2.6691,-2.6691,-2.6691,-2.6691,-2.6691,-2.6691,-2.6691,-2.6691,-2.6691,-2.6691,-2.6691,-2.6691,-2.6691,-2.6691,-2.6691,-2.6691,-2.6691,-2.6691,-2.6691,-2.6691,-2.6691,-2.6691,-2.6691,-2.6691,-2.6691,-2.6691,-2.6691,-2.6691,-2.6691,-2.6691,0.0,0.0,0.0,0.0,0.0,0.0,0.0,0.0,0.0,0.0,0.0,-2.2429,-2.2801,-2.2868,-2.2929,-2.3087,-2.3106,-2.3106,-2.3106,-2.2953,-2.2906,-2.3091,-2.3252,-2.3356,-2.3356,-2.3864,-2.4032,-2.3602,-2.3769,-2.3703,-2.3227,-2.3433,-2.345,-2.3209,-2.3433,-2.3568,-2.3568,-2.3944,-2.4227,-2.4447,-2.4844,-2.5129,-2.5397,-2.6286,-2.659,-2.6367,-2.6607,-2.6691,-2.6691,-2.6691,-2.6691,-2.6691,-2.6691,-2.6691,-2.6691,-2.6691,-2.6691,-2.6691,-2.6691,-2.6691,-2.6691,-2.6691,-2.6691,-2.6691,-2.6691,-2.6691,-2.6691,-2.6691,-2.6691,-2.6691,-2.6691,-2.6691,-2.6691,-2.6691,-2.6691,-2.6691,-2.6691,-2.6691,-2.6691,-2.6691,-2.6691,-2.6691,-2.6691,-2.6691,-2.6691,-2.6691,-2.6691,-2.6691,-2.6691,-2.6691,-2.6691,-2.6691,-2.6691,-2.6691,-2.6691,-2.6691,-2.6691,-2.6691,-2.6691,-2.6691,-2.6691,-2.6691,-2.6691,-2.6691,-2.6691,-2.6691,-2.6691,-2.6691,-2.6691,-2.6691,-2.6691,-2.6691,0.0,0.0,0.0,0.0,0.0,0.0,0.0,0.0,0.0,0.0,-2.2296,-2.2296,-2.2296,-2.2296,-2.2152,-2.1673,-2.1597,-2.1583,-2.1506,-2.1213,-2.1118,-2.146,-2.173,-2.1905,-2.1905,-2.2818,-2.3193,-2.2736,-2.3059,-2.3076,-2.2614,-2.2666,-2.2666,-2.2596,-2.2666,-2.2701,-2.2701,-2.2847,-2.2946,-2.2999,-2.3128,-2.3399,-2.3819,-2.5464,-2.6117,-2.5956,-2.6471,-2.6691,-2.6691,-2.6691,-2.6691,-2.6691,-2.6691,-2.6691,-2.6691,-2.6691,-2.6691,-2.6691,-2.6691,-2.6691,-2.6691,-2.6691,-2.6691,-2.6691,-2.6691,-2.6691,-2.6691,-2.6691,-2.6691,-2.6691,-2.6691,-2.6691,-2.6691,-2.6691,-2.6691,-2.6691,-2.6691,-2.6691,-2.6691,-2.6691,-2.6691,-2.6691,-2.6691,-2.6691,-2.6691,-2.6691,-2.6691,-2.6691,-2.6691,-2.6691,-2.6691,-2.6691,-2.6691,-2.6691,-2.6691,-2.6691,-2.6691,-2.6691,-2.6691,-2.6691,-2.6691,-2.6691,-2.6691,-2.6691,-2.6691,-2.6691,-2.6691,-2.6691,-2.6691,-2.6691,-2.6624,-2.659,0.0,0.0,0.0,0.0,0.0,0.0,0.0,0.0,0.0,0.0,-2.2296,-2.2296,-2.2296,-2.2296,-2.2152,-2.1673,-2.1597,-2.1476,-2.1118,-2.1023,-2.1007,-2.1071,-2.1119,-2.1151,-2.1151,-2.1279,-2.1181,-2.0715,-2.0764,-2.0593,-2.02,-2.0505,-2.0524,-2.0182,-2.0522,-2.068,-2.068,-2.1372,-2.1897,-2.2243,-2.2887,-2.3208,-2.3224,-2.395,-2.478,-2.568,-2.6404,-2.6691,-2.6691,-2.6691,-2.6691,-2.6691,-2.6691,-2.6691,-2.6691,-2.6691,-2.6691,-2.6691,-2.6691,-2.6691,-2.6691,-2.6691,-2.6691,-2.6691,-2.6691,-2.6691,-2.6691,-2.6691,-2.6691,-2.6691,-2.6691,-2.6691,-2.6691,-2.6691,-2.6691,-2.6691,-2.6691,-2.6691,-2.6691,-2.6691,-2.6691,-2.6691,-2.6691,-2.6691,-2.6691,-2.6691,-2.6691,-2.6691,-2.6691,-2.6691,-2.6691,-2.6691,-2.6691,-2.6691,-2.6691,-2.6691,-2.6691,-2.6691,-2.6691,-2.6691,-2.6691,-2.6691,-2.6691,-2.6691,-2.6691,-2.6691,-2.6691,-2.6691,-2.6691,-2.6691,-2.6279,-2.6086,0.0,0.0,0.0,0.0,0.0,0.0,0.0,0.0,0.0,-2.1913,-2.172,-2.1721,-2.2209,-2.2296,-2.2077,-2.1385,-2.126,-2.1118,-2.0666,-2.0414,-2.0362,-2.0583,-2.0414,-2.0277,-2.0277,-2.0482,-2.0416,-2.0,-2.0176,-2.0124,-1.9711,-1.9874,-1.9874,-1.9708,-1.9874,-1.9965,-1.9965,-2.032,-2.0581,-2.0762,-2.1089,-2.1352,-2.1544,-2.2248,-2.3289,-2.4596,-2.563,-2.5916,-2.568,-2.6114,-2.6139,-2.5892,-2.6192,-2.6314,-2.6332,-2.6607,-2.6691,-2.6691,-2.6691,-2.6691,-2.6691,-2.6691,-2.6691,-2.6691,-2.6691,-2.6691,-2.6691,-2.6691,-2.6691,-2.6691,-2.6691,-2.6487,-2.6314,-2.6314,-2.607,-2.5855,-2.5855,-2.6298,-2.6691,-2.6691,-2.6691,-2.6691,-2.6691,-2.6691,-2.6691,-2.6691,-2.647,-2.6314,-2.6314,-2.605,-2.598,-2.6279,-2.6314,-2.6401,-2.6674,-2.6691,-2.659,-2.6332,-2.6314,-2.6175,-2.5873,-2.5855,-2.5855,-2.5855,-2.6402,-2.6691,-2.6691,-2.6436,-2.6314,-2.6297,-2.5781,-2.5559,0.0,0.0,0.0,0.0,0.0,0.0,0.0,0.0,0.0,0.0,-2.1083,-2.1197,-2.1857,-2.1976,-2.1721,-2.0943,-2.0829,-2.0649,-2.021,-1.9892,-1.9803,-2.0106,-1.9874,-1.9708,-1.9708,-1.9965,-2.0017,-1.9711,-1.9982,-2.0017,-1.9726,-1.9708,-1.9708,-1.9708,-1.9708,-1.9708,-1.9708,-1.9708,-1.9708,-1.9708,-1.9708,-1.9909,-2.0313,-2.0924,-2.1859,-2.3096,-2.4414,-2.483,-2.4626,-2.5419,-2.5573,-2.5373,-2.5949,-2.6191,-2.6227,-2.6573,-2.6691,-2.6674,-2.6556,-2.6607,-2.6674,-2.6573,-2.6505,-2.6539,-2.6657,-2.6522,-2.635,-2.6487,-2.6419,-2.6315,-2.6315,-2.6068,-2.5797,-2.5797,-2.5486,-2.5202,-2.5202,-2.5783,-2.635,-2.6504,-2.6505,-2.6573,-2.6674,-2.6691,-2.6657,-2.6556,-2.6227,-2.5943,-2.5815,-2.5449,-2.5354,-2.5744,-2.5797,-2.5943,-2.6298,-2.6315,-2.6175,-2.5834,-2.5797,-2.5615,-2.5221,-2.5202,-2.5202,-2.5202,-2.5944,-2.6315,-2.6315,-2.5979,-2.5797,-2.5781,-2.524,-2.5008,0.0,0.0,0.0,0.0,0.0,0.0,0.0,0.0,0.0,-2.015,-2.0558,-2.1007,-2.1071,-2.1071,-2.091,-2.0416,-2.0348,-2.0177,-1.9782,-1.9711,-1.9708,-1.9744,-1.9711,-1.9708,-1.9708,-1.9711,-1.9711,-1.9708,-1.9711,-1.9711,-1.9708,-1.9708,-1.9708,-1.9708,-1.9708,-1.9708,-1.9708,-1.9708,-1.9708,-1.9708,-1.9708,-1.9909,-2.0297,-2.0328,-2.0645,-2.1231,-2.268,-2.3566,-2.4001,-2.4745,-2.5263,-2.5646,-2.6387,-2.6657,-2.6674,-2.6691,-2.6691,-2.6641,-2.6191,-2.6332,-2.6624,-2.6191,-2.6049,-2.612,-2.6573,-2.6034,-2.5392,-2.5888,-2.567,-2.5278,-2.5278,-2.5259,-2.524,-2.524,-2.5221,-2.5202,-2.5202,-2.524,-2.543,-2.5943,-2.6049,-2.6191,-2.6624,-2.6691,-2.6556,-2.6103,-2.6013,-2.5815,-2.5316,-2.5221,-2.5221,-2.524,-2.524,-2.5259,-2.5278,-2.5278,-2.5278,-2.524,-2.524,-2.524,-2.5202,-2.5202,-2.5202,-2.5202,-2.5259,-2.5278,-2.5278,-2.5259,-2.524,-2.524,-2.4692,-2.445,0.0,0.0,0.0,0.0,0.0,0.0,0.0,0.0,-1.8731,-1.9452,-1.9572,-1.9718,-2.0422,-2.0797,-2.0845,-2.0382,-2.0297,-2.0158,-1.9747,-1.9708,-1.9708,-1.9708,-1.9708,-1.9708,-1.9708,-1.9708,-1.9708,-1.9708,-1.9708,-1.9708,-1.9708,-1.9708,-1.9708,-1.9708,-1.9708,-1.9708,-1.9708,-1.9708,-1.9708,-1.9708,-1.9708,-1.9782,-1.9909,-1.9909,-2.0015,-2.0204,-2.0716,-2.1605,-2.2749,-2.3479,-2.4116,-2.4679,-2.4995,-2.5355,-2.5783,-2.6122,-2.6016,-2.5709,-2.5542,-2.5598,-2.5709,-2.5542,-2.5503,-2.5521,-2.5691,-2.5486,-2.524,-2.543,-2.5354,-2.5202,-2.5202,-2.4934,-2.4612,-2.4246,-2.4163,-2.4163,-2.4163,-2.4697,-2.5259,-2.5449,-2.5762,-2.6049,-2.6227,-2.6244,-2.6191,-2.6031,-2.5411,-2.4894,-2.4697,-2.4389,-2.4307,-2.4652,-2.4692,-2.4831,-2.5182,-2.5202,-2.5051,-2.4712,-2.4692,-2.4532,-2.4199,-2.4163,-2.4163,-2.4163,-2.4163,-2.4511,-2.5202,-2.4835,-2.4692,-2.4657,-2.4137,-2.39,0.0,0.0,0.0,0.0,0.0,0.0,0.0,0.0,-1.6979,-1.7976,-1.8272,-1.8577,-1.9289,-1.9681,-1.9935,-2.008,-2.0089,-2.0017,-1.9729,-1.9708,-1.9708,-1.9708,-1.9708,-1.9708,-1.9708,-1.9708,-1.9708,-1.9708,-1.9708,-1.9708,-1.9708,-1.9708,-1.9708,-1.9708,-1.9708,-1.9708,-1.9708,-1.9708,-1.9708,-1.9708,-1.9708,-1.9708,-1.9708,-1.9708,-1.9708,-1.9708,-1.9839,-2.0472,-2.1491,-2.2237,-2.2899,-2.3471,-2.3749,-2.4136,-2.4572,-2.4935,-2.4828,-2.4548,-2.4582,-2.47,-2.4862,-2.4929,-2.4914,-2.4969,-2.5144,-2.495,-2.4712,-2.4875,-2.4796,-2.4657,-2.4657,-2.441,-2.4032,-2.3666,-2.3595,-2.3595,-2.3595,-2.4158,-2.4732,-2.491,-2.5221,-2.5521,-2.5689,-2.5726,-2.567,-2.5486,-2.4871,-2.4328,-2.4158,-2.3815,-2.3745,-2.4095,-2.4137,-2.4266,-2.4617,-2.4657,-2.4511,-2.4158,-2.4137,-2.397,-2.3616,-2.3595,-2.3595,-2.3595,-2.3595,-2.3948,-2.4657,-2.4307,-2.4137,-2.4116,-2.3773,-2.3595,0.0,0.0,0.0,0.0,0.0,0.0,0.0,0.0,-1.5281,-1.5659,-1.6742,-1.7639,-1.7652,-1.7699,-1.8132,-1.9438,-1.9663,-1.9678,-1.9708,-1.9708,-1.9708,-1.9708,-1.9708,-1.9708,-1.9708,-1.9708,-1.9708,-1.9708,-1.9708,-1.9708,-1.9708,-1.9708,-1.9708,-1.9708,-1.9708,-1.9708,-1.9708,-1.9708,-1.9708,-1.9708,-1.9708,-1.9708,-1.9708,-1.9708,-1.9708,-1.9711,-2.0106,-2.028,-2.0344,-2.1142,-2.1722,-2.2179,-2.2869,-2.3158,-2.3174,-2.3174,-2.3174,-2.3183,-2.3295,-2.3683,-2.4148,-2.4271,-2.4307,-2.4409,-2.496,-2.4399,-2.3694,-2.4225,-2.3991,-2.3595,-2.3595,-2.3595,-2.3595,-2.3595,-2.3595,-2.3595,-2.3595,-2.3595,-2.3752,-2.4266,-2.4389,-2.4572,-2.5086,-2.5182,-2.5008,-2.4491,-2.4389,-2.4199,-2.3659,-2.3595,-2.3595,-2.3595,-2.3595,-2.3595,-2.3595,-2.3595,-2.3595,-2.3595,-2.3595,-2.3595,-2.3595,-2.3595,-2.3595,-2.3595,-2.3595,-2.3595,-2.3595,-2.3595,-2.3595,-2.3595,-2.3595,-2.3595,-0.809,0.0,0.0,0.0,0.0,0.0,0.0,0.0,-1.2486,-1.4032,-1.5022,-1.5875,-1.6816,-1.7369,-1.7833,-1.8192,-1.8672,-1.9151,-1.9633,-1.9708,-1.9708,-1.9708,-1.9708,-1.9708,-1.9708,-1.9708,-1.9708,-1.9708,-1.9708,-1.9708,-1.9708,-1.9708,-1.9708,-1.9708,-1.9708,-1.9708,-1.9708,-1.9708,-1.9708,-1.9708,-1.9708,-1.9708,-1.9708,-1.9708,-1.9708,-1.9708,-1.9836,-1.9874,-1.9907,-2.0426,-2.1215,-2.2097,-2.1995,-2.2232,-2.2619,-2.2619,-2.2412,-2.2129,-2.2156,-2.2256,-2.2404,-2.2444,-2.2445,-2.2576,-2.3188,-2.3177,-2.3068,-2.3652,-2.3709,-2.3595,-2.3595,-2.3595,-2.3595,-2.3595,-2.3595,-2.3595,-2.3595,-2.3595,-2.3638,-2.3794,-2.4122,-2.445,-2.4612,-2.4632,-2.4556,-2.443,-2.4074,-2.3773,-2.3616,-2.3595,-2.3595,-2.3595,-2.3595,-2.3595,-2.3595,-2.3595,-2.3595,-2.3595,-2.3595,-2.3595,-2.3595,-2.3595,-2.3595,-2.3595,-2.3595,-2.3595,-2.3595,-2.3595,-2.3595,-2.3595,-2.3595,-2.3595,0.0,0.0,0.0,0.0,0.0,0.0,-0.9749,-1.0174,-1.0912,0.0,-1.3496,-1.4274,-1.5293,-1.5815,-1.6263,-1.6817,-1.7252,-1.7805,-1.8732,-1.9106,-1.9271,-1.9271,-1.9528,-1.9708,-1.9708,-1.9708,-1.9708,-1.9708,-1.9708,-1.9708,-1.9708,-1.9708,-1.9708,-1.9708,-1.9708,-1.9708,-1.9708,-1.9708,-1.9708,-1.9708,-1.9708,-1.9708,-1.9708,-1.9708,-1.9708,-1.9708,-1.9708,-1.9708,-1.9711,-1.9947,-2.0458,-2.1075,-2.0826,-2.0965,-2.1268,-2.1268,-2.1095,-2.0902,-2.1186,-2.1291,-2.1335,-2.1605,-2.1695,-2.1769,-2.2164,-2.2283,-2.2358,-2.2697,-2.2802,-2.2862,-2.3146,-2.3206,-2.3302,-2.3535,-2.3595,-2.3595,-2.3595,-2.3595,-2.3595,-2.3595,-2.3858,-2.4074,-2.4074,-2.4074,-2.4074,-2.4074,-2.3794,-2.3595,-2.3595,-2.3595,-2.3595,-2.3595,-2.3595,-2.3595,-2.3595,-2.3595,-2.3595,-2.3595,-2.3595,-2.3595,-2.3595,-2.3595,-2.3595,-2.3595,-2.3595,-2.3595,-2.3595,-2.3595,-2.3595,-2.3595,-2.3595,-2.3595,0.0,0.0,0.0,0.0,-0.9503,0.0,-0.9614,-0.9785,-1.0204,0.0,-1.201,-1.2684,-1.3334,-1.3588,-1.4079,-1.5274,-1.5589,-1.6159,-1.7519,-1.8207,-1.8597,-1.8597,-1.9106,-1.9483,-1.9483,-1.9483,-1.9483,-1.9483,-1.9558,-1.9633,-1.9708,-1.9708,-1.9708,-1.9708,-1.9708,-1.9708,-1.9708,-1.9708,-1.9708,-1.9708,-1.9708,-1.9708,-1.9708,-1.9708,-1.9708,-1.9708,-1.9708,-1.9708,-1.9708,-1.9708,-1.9708,-1.9708,-1.9708,-1.9708,-1.9708,-1.9708,-1.9708,-1.9798,-2.0378,-2.0583,-2.0692,-2.1276,-2.147,-2.1485,-2.156,-2.159,-2.1605,-2.168,-2.1695,-2.1829,-2.2433,-2.2583,-2.2748,-2.334,-2.349,-2.352,-2.3595,-2.3595,-2.3595,-2.3595,-2.3595,-2.3595,-2.3595,-2.3595,-2.3595,-2.3595,-2.3595,-2.3595,-2.3595,-2.3595,-2.3595,-2.3595,-2.3595,-2.3595,-2.3595,-2.3595,-2.3595,-2.3595,-2.3595,-2.3595,-2.3595,-2.3595,-2.3595,-2.3595,-2.3595,-2.3595,-2.3595,-2.3595,-2.3595,-2.3595,-2.3595,-2.3595,-0.9839,-1.0054,-1.0219,-0.9317,-1.0178,0.0,-0.8731,-0.912,-0.9824,0.0,-0.9998,-1.0653,-1.1271,-1.2269,-1.3074,-1.334,-1.4287,-1.5634,-1.7444,-1.7818,-1.7908,-1.7908,-1.8012,-1.8087,-1.8087,-1.8087,-1.8087,-1.8087,-1.8597,-1.9121,-1.9678,-1.9708,-1.9708,-1.9708,-1.9708,-1.9708,-1.9708,-1.9708,-1.9708,-1.9708,-1.9708,-1.9708,-1.9708,-1.9708,-1.9708,-1.9708,-1.9708,-1.9708,-1.9708,-1.9708,-1.9708,-1.9708,-1.9708,-1.9708,-1.9708,-1.9708,-1.9708,-1.9723,-1.9857,-1.9884,-1.9932,-2.0052,-2.0097,-2.0202,-2.0737,-2.0897,-2.1002,-2.1545,-2.1695,-2.1724,-2.1859,-2.1889,-2.2074,-2.2718,-2.2882,-2.3017,-2.349,-2.3595,-2.3595,-2.3595,-2.3595,-2.3595,-2.3595,-2.3595,-2.3595,-2.3595,-2.3595,-2.3595,-2.3595,-2.3595,-2.3595,-2.3595,-2.3595,-2.3595,-2.3595,-2.3595,-2.3595,-2.3595,-2.3595,-2.3595,-2.3595,-2.3595,-2.3595,-2.3595,-2.3595,-2.3595,-2.3595,-2.3595,-2.3595,-2.3595,-2.3595,-2.3595,-1.0523,-1.0568,-1.0733,-1.0423,-1.0827,0.0,0.0,-0.9375,-0.9578,-1.0223,-0.9848,-0.9779,-1.1062,-1.157,-1.191,-1.225,-1.3148,-1.4152,-1.5126,-1.6129,-1.6862,-1.7174,-1.7204,-1.7339,-1.7669,-1.7713,-1.7713,-1.7713,-1.8012,-1.8341,-1.8687,-1.9016,-1.9196,-1.9196,-1.9528,-1.9708,-1.9708,-1.9708,-1.9708,-1.9708,-1.9708,-1.9708,-1.9708,-1.9708,-1.9708,-1.9708,-1.9708,-1.9708,-1.9708,-1.9708,-1.9708,-1.9708,-1.9708,-1.9708,-1.9708,-1.9708,-1.9708,-1.9708,-1.9708,-1.9708,-1.9708,-1.9708,-1.9708,-1.9768,-2.0094,-2.0198,-2.0273,-2.0602,-2.0711,-2.0767,-2.1111,-2.1201,-2.138,-2.2044,-2.2209,-2.2283,-2.2577,-2.2652,-2.2652,-2.2652,-2.2652,-2.2847,-2.349,-2.3595,-2.3595,-2.3595,-2.3595,-2.3595,-2.3595,-2.3595,-2.3595,-2.3595,-2.3595,-2.3595,-2.3595,-2.3595,-2.3595,-2.3595,-2.3595,-2.3595,-2.3595,-2.3595,-2.3595,-2.3595,-2.3295,-2.3152,-2.3152,-2.2817,-2.2981,-2.3595,-2.3595,-2.3595,-1.157,-1.147,-1.1615,-1.176,-1.1674,-1.1405,0.0,0.0,0.0,-1.1161,-1.0193,0.0,0.0,0.0,0.0,-1.1356,0.0,0.0,0.0,-1.3912,-1.526,-1.5875,-1.6069,-1.6398,-1.7086,-1.701,-1.71,-1.7473,-1.728,-1.731,-1.7684,-1.8207,-1.8568,-1.8702,-1.9226,-1.9573,-1.9708,-1.9708,-1.9708,-1.9708,-1.9708,-1.9708,-1.9708,-1.9708,-1.9708,-1.9708,-1.9708,-1.9708,-1.9708,-1.9708,-1.9708,-1.9708,-1.9708,-1.9708,-1.9708,-1.9708,-1.9708,-1.9708,-1.9708,-1.9708,-1.9708,-1.9708,-1.9708,-1.9708,-1.9708,-1.9708,-1.9708,-1.9708,-1.9708,-1.9828,-2.0378,-2.0494,-2.0692,-2.135,-2.1515,-2.1545,-2.1665,-2.1695,-2.1695,-2.1695,-2.1695,-2.2069,-2.3221,-2.343,-2.346,-2.358,-2.3595,-2.3595,-2.3595,-2.3595,-2.3595,-2.3595,-2.3595,-2.3595,-2.3595,-2.3595,-2.355,-2.343,-2.3535,-2.349,-2.3236,-2.3236,-2.3295,-2.3415,-2.2823,-2.2508,-2.2508,-2.1949,-2.2293,-2.343,-2.343,-2.349,0.0,-1.3899,-1.3942,-1.2224,-1.3077,-1.357,-1.0668,0.0,-1.1206,-1.0294,0.0,0.0,0.0,0.0,0.0,0.0,0.0,0.0,-1.1106,-1.1745,-1.2493,-1.3163,-1.378,-1.438,-1.5052,-1.4588,-1.4963,-1.6681,-1.577,-1.5889,-1.7609,-1.7773,-1.8087,-1.8687,-1.8777,-1.9091,-1.9693,-1.9708,-1.9708,-1.9708,-1.9708,-1.9708,-1.9708,-1.9708,-1.9708,-1.9708,-1.9708,-1.9708,-1.9708,-1.9708,-1.9708,-1.9708,-1.9708,-1.9708,-1.9708,-1.9708,-1.9708,-1.9708,-1.9708,-1.9708,-1.9708,-1.9708,-1.9708,-1.9708,-1.9708,-1.9708,-1.9708,-1.9708,-1.9708,-1.9723,-1.9798,-1.9813,-1.9974,-2.0643,-2.0808,-2.0991,-2.1575,-2.1695,-2.1695,-2.1695,-2.1695,-2.1919,-2.2673,-2.2808,-2.2987,-2.352,-2.3595,-2.3595,-2.3595,-2.3595,-2.3595,-2.3595,-2.3595,-2.3595,-2.3595,-2.3595,-2.337,-2.2838,-2.3295,-2.3086,-2.1964,-2.1919,-2.2188,-2.2793,-2.2164,-2.1799,-2.1799,-2.1739,-2.2069,-2.2808,-2.2808,-2.3092,-1.3976,-1.3849,-1.3717,-1.3106,-1.3129,-1.3,-1.1836,-1.1386,-1.1286,-1.1531,0.0,0.0,0.0,0.0,0.0,0.0,-1.0354,0.0,0.0,0.0,-1.1082,-1.21,-1.2119,-1.2478,-1.3538,-1.3388,-1.372,-1.4919,-1.4154,-1.4346,-1.5934,-1.6383,-1.6892,-1.7518,-1.8296,-1.8837,-1.9106,-1.9513,-1.9708,-1.9708,-1.9708,-1.9708,-1.9708,-1.9708,-1.9708,-1.9708,-1.9708,-1.9708,-1.9708,-1.9708,-1.9708,-1.9708,-1.9708,-1.9708,-1.9708,-1.9708,-1.9708,-1.9708,-1.9708,-1.9708,-1.9708,-1.9708,-1.9708,-1.9708,-1.9708,-1.9708,-1.9708,-1.9708,-1.9708,-1.9708,-1.9708,-1.9708,-1.9768,-2.0049,-2.0124,-2.0198,-2.0486,-2.0546,-2.0546,-2.0546,-2.0546,-2.0737,-2.1425,-2.2194,-2.2793,-2.3047,-2.337,-2.3475,-2.3116,-2.3092,-2.2921,-2.2532,-2.2503,-2.2503,-2.2503,-2.2847,-2.2808,-2.2164,-2.2353,-2.2263,-2.1724,-2.1695,-2.1829,-2.2119,-2.1455,-2.1126,-2.1126,-2.0722,-2.0872,-2.1545,-2.1934,-2.2463,-1.4294,-1.3945,-1.3721,-1.3797,-1.3212,-1.2621,-1.254,-1.191,-1.158,-1.2355,-1.1546,0.0,0.0,0.0,0.0,0.0,0.0,-0.9599,0.0,-0.9203,0.0,0.0,-1.0882,-1.1181,-1.216,-1.21,-1.243,-1.3451,-1.2732,-1.2999,-1.4706,-1.526,-1.5889,-1.6681,-1.7637,-1.8326,-1.8702,-1.9181,-1.9528,-1.9708,-1.9708,-1.9708,-1.9708,-1.9708,-1.9708,-1.9708,-1.9708,-1.9708,-1.9708,-1.9708,-1.9708,-1.9708,-1.9708,-1.9708,-1.9708,-1.9708,-1.9708,-1.9708,-1.9708,-1.9708,-1.9708,-1.9708,-1.9708,-1.9708,-1.9708,-1.9708,-1.9708,-1.9708,-1.9708,-1.9708,-1.9708,-1.9708,-1.9708,-1.9708,-1.9708,-1.9708,-1.9708,-1.9708,-1.9708,-1.9708,-1.9708,-1.9839,-2.0348,-2.138,-2.2224,-2.2403,-2.2808,-2.2921,-2.2478,-2.2433,-2.2239,-2.1739,-2.1695,-2.1695,-2.1695,-2.2164,-2.2224,-2.1724,-2.135,-2.1306,-2.168,-2.1335,-2.1231,-2.1425,-2.0782,-2.0438,-2.0423,-1.9947,-1.9944,-2.0453,-2.1111,-2.1784,-1.5062,-1.5047,-1.4833,-1.4007,-1.3769,-1.3411,-1.2134,-1.2295,-1.2564,-1.1954,-1.2295,-1.2531,-1.191,0.0,0.0,0.0,0.0,0.0,0.0,0.0,0.0,0.0,0.0,0.0,-1.0857,-1.0339,-1.0782,-1.2696,-1.161,-1.2018,-1.4661,-1.4826,-1.5411,-1.6651,-1.6741,-1.7384,-1.8687,-1.8732,-1.9061,-1.9708,-1.9708,-1.9708,-1.9708,-1.9708,-1.9708,-1.9708,-1.9708,-1.9708,-1.9708,-1.9708,-1.9708,-1.9708,-1.9708,-1.9708,-1.9708,-1.9708,-1.9708,-1.9708,-1.9708,-1.9708,-1.9708,-1.9708,-1.9708,-1.9708,-1.9708,-1.9708,-1.9708,-1.9708,-1.9708,-1.9708,-1.9708,-1.9708,-1.9708,-1.9708,-1.9708,-1.9708,-1.9708,-1.9708,-1.9708,-1.9708,-1.9708,-1.9708,-1.9738,-2.0303,-2.0972,-2.1635,-2.1739,-2.1754,-2.1724,-2.1724,-2.1724,-2.1695,-2.1695,-2.1695,-2.1695,-2.1724,-2.1724,-2.1695,-2.0486,-2.0352,-2.1635,-2.0456,-2.0064,-2.0718,-2.0064,-1.9738,-1.9738,-1.9708,-1.9708,-1.9753,-2.0423,-2.1096,-1.4705,-1.4517,-1.4198,-1.3726,-1.3262,-1.2793,-1.2192,-1.2453,-1.2609,-1.1939,-1.234,-1.2594,-1.1925,0.0,0.0,0.0,0.0,0.0,0.0,0.0,0.0,0.0,0.0,0.0,0.0,-0.9353,-0.9863,-1.1361,-1.0698,-1.1161,-1.3358,-1.3912,-1.4543,-1.5411,-1.6264,-1.6921,-1.7369,-1.8252,-1.8807,-1.9031,-1.9498,-1.9708,-1.9708,-1.9708,-1.9708,-1.9708,-1.9708,-1.9708,-1.9708,-1.9708,-1.9708,-1.9708,-1.9708,-1.9708,-1.9708,-1.9708,-1.9708,-1.9708,-1.9708,-1.9708,-1.9708,-1.9708,-1.9708,-1.9708,-1.9708,-1.9708,-1.9708,-1.9708,-1.9708,-1.9708,-1.9708,-1.9708,-1.9708,-1.9708,-1.9708,-1.9708,-1.9708,-1.9708,-1.9708,-1.9708,-1.9708,-1.9708,-1.9708,-1.9902,-2.0273,-2.0946,-2.1425,-2.1545,-2.1111,-2.1051,-2.0872,-2.0408,-2.0382,-2.0382,-2.0382,-2.0382,-2.0557,-2.1002,-2.0202,-1.9902,-2.0367,-1.9947,-1.9813,-2.0034,-1.9828,-1.9708,-1.9708,-1.9708,-1.9708,-1.9708,-1.9929,-2.0408,-1.4294,-1.41,-1.3837,-1.3574,-1.3183,-1.2733,-1.2297,-1.2582,-1.275,-1.2079,-1.2401,-1.2647,-1.2132,0.0,0.0,0.0,0.0,0.0,0.0,-0.7899,0.0,0.0,0.0,0.0,0.0,0.0,-0.8978,-1.0039,-0.998,-1.0638,-1.2355,-1.3316,-1.4109,-1.4781,-1.583,-1.6473,-1.6696,-1.7548,-1.8117,-1.8341,-1.9016,-1.9331,-1.9346,-1.9588,-1.9708,-1.9708,-1.9708,-1.9708,-1.9708,-1.9708,-1.9708,-1.9708,-1.9708,-1.9708,-1.9708,-1.9708,-1.9708,-1.9708,-1.9708,-1.9708,-1.9708,-1.9708,-1.9708,-1.9708,-1.9708,-1.9708,-1.9708,-1.9708,-1.9708,-1.9708,-1.9708,-1.9708,-1.9708,-1.9708,-1.9708,-1.9708,-1.9708,-1.9708,-1.9708,-1.9708,-1.9708,-1.9708,-1.9708,-1.9708,-1.9857,-2.0288,-2.0707,-2.0827,-2.0408,-2.0348,-2.0183,-1.9753,-1.9708,-1.9708,-1.9708,-1.9708,-1.9869,-2.0318,-1.9929,-1.9708,-1.9708,-1.9708,-1.9708,-1.9708,-1.9708,-1.9708,-1.9708,-1.9708,-1.9708,-1.9708,-1.9708,-1.9929]}]]